<?xml version="1.0" encoding="UTF-8" standalone="no" ?>
<gpx xmlns="http://www.topografix.com/GPX/1/1" xmlns:xsi="http://www.w3.org/2001/XMLSchema-instance" xsi:schemaLocation="http://www.topografix.com/GPX/1/1 http://www.topografix.com/GPX/1/1/gpx.xsd" version="1.1" creator="VisuGPX - https://www.visugpx.com">
  <metadata>
    <name>Beaujolais les pierres dorées</name>
    <desc><![CDATA[Départ du col du Chatoux, arrivée à Oingt.]]></desc>
  </metadata>
  <trk>
    <name><![CDATA[Beaujolais les pierres dorées_1]]></name>
    <trkseg>
      <trkpt lat="45.98871" lon="4.56483">
        <ele>746.302</ele>
        <time>2018-06-07T10:39:43Z</time>
      </trkpt>
      <trkpt lat="45.98871" lon="4.56483">
        <ele>746.335</ele>
        <time>2018-06-07T10:39:48Z</time>
      </trkpt>
      <trkpt lat="45.98871" lon="4.56483">
        <ele>746.546</ele>
        <time>2018-06-07T10:39:54Z</time>
      </trkpt>
      <trkpt lat="45.98871" lon="4.56483">
        <ele>746.918</ele>
        <time>2018-06-07T10:39:59Z</time>
      </trkpt>
      <trkpt lat="45.98869" lon="4.56502">
        <ele>747.371</ele>
        <time>2018-06-07T10:40:05Z</time>
      </trkpt>
      <trkpt lat="45.98868" lon="4.56512">
        <ele>747.927</ele>
        <time>2018-06-07T10:40:11Z</time>
      </trkpt>
      <trkpt lat="45.98872" lon="4.56518">
        <ele>748.311</ele>
        <time>2018-06-07T10:40:17Z</time>
      </trkpt>
      <trkpt lat="45.98873" lon="4.56519">
        <ele>748.492</ele>
        <time>2018-06-07T10:40:23Z</time>
      </trkpt>
      <trkpt lat="45.98873" lon="4.56519">
        <ele>748.799</ele>
        <time>2018-06-07T10:40:29Z</time>
      </trkpt>
      <trkpt lat="45.98873" lon="4.56519">
        <ele>748.844</ele>
        <time>2018-06-07T10:40:34Z</time>
      </trkpt>
      <trkpt lat="45.98873" lon="4.56519">
        <ele>748.945</ele>
        <time>2018-06-07T10:40:40Z</time>
      </trkpt>
      <trkpt lat="45.9888" lon="4.56525">
        <ele>749.266</ele>
        <time>2018-06-07T10:40:45Z</time>
      </trkpt>
      <trkpt lat="45.9888" lon="4.56525">
        <ele>749.722</ele>
        <time>2018-06-07T10:40:51Z</time>
      </trkpt>
      <trkpt lat="45.9888" lon="4.56525">
        <ele>750</ele>
        <time>2018-06-07T10:40:57Z</time>
      </trkpt>
      <trkpt lat="45.98889" lon="4.56531">
        <ele>750.277</ele>
        <time>2018-06-07T10:41:03Z</time>
      </trkpt>
      <trkpt lat="45.98889" lon="4.56531">
        <ele>750.965</ele>
        <time>2018-06-07T10:41:08Z</time>
      </trkpt>
      <trkpt lat="45.98889" lon="4.56531">
        <ele>751.181</ele>
        <time>2018-06-07T10:41:14Z</time>
      </trkpt>
      <trkpt lat="45.98889" lon="4.56531">
        <ele>751.03</ele>
        <time>2018-06-07T10:41:19Z</time>
      </trkpt>
      <trkpt lat="45.98901" lon="4.56527">
        <ele>751.024</ele>
        <time>2018-06-07T10:41:24Z</time>
      </trkpt>
      <trkpt lat="45.9891" lon="4.56519">
        <ele>751.181</ele>
        <time>2018-06-07T10:41:30Z</time>
      </trkpt>
      <trkpt lat="45.98916" lon="4.56514">
        <ele>751.163</ele>
        <time>2018-06-07T10:41:35Z</time>
      </trkpt>
      <trkpt lat="45.98921" lon="4.5651">
        <ele>750.982</ele>
        <time>2018-06-07T10:41:40Z</time>
      </trkpt>
      <trkpt lat="45.98925" lon="4.56508">
        <ele>751.247</ele>
        <time>2018-06-07T10:41:46Z</time>
      </trkpt>
      <trkpt lat="45.98928" lon="4.56505">
        <ele>750.858</ele>
        <time>2018-06-07T10:41:51Z</time>
      </trkpt>
      <trkpt lat="45.98931" lon="4.56501">
        <ele>750.428</ele>
        <time>2018-06-07T10:41:56Z</time>
      </trkpt>
      <trkpt lat="45.98934" lon="4.56498">
        <ele>749.998</ele>
        <time>2018-06-07T10:42:01Z</time>
      </trkpt>
      <trkpt lat="45.98939" lon="4.56497">
        <ele>749.573</ele>
        <time>2018-06-07T10:42:07Z</time>
      </trkpt>
      <trkpt lat="45.98945" lon="4.56495">
        <ele>749.007</ele>
        <time>2018-06-07T10:42:13Z</time>
      </trkpt>
      <trkpt lat="45.98948" lon="4.56493">
        <ele>748.572</ele>
        <time>2018-06-07T10:42:19Z</time>
      </trkpt>
      <trkpt lat="45.98951" lon="4.56492">
        <ele>748.882</ele>
        <time>2018-06-07T10:42:24Z</time>
      </trkpt>
      <trkpt lat="45.98958" lon="4.56483">
        <ele>749.561</ele>
        <time>2018-06-07T10:42:30Z</time>
      </trkpt>
      <trkpt lat="45.98961" lon="4.56481">
        <ele>750.368</ele>
        <time>2018-06-07T10:42:35Z</time>
      </trkpt>
      <trkpt lat="45.98968" lon="4.56476">
        <ele>751.484</ele>
        <time>2018-06-07T10:42:41Z</time>
      </trkpt>
      <trkpt lat="45.9897" lon="4.56476">
        <ele>751.94</ele>
        <time>2018-06-07T10:42:46Z</time>
      </trkpt>
      <trkpt lat="45.9897" lon="4.56476">
        <ele>752.061</ele>
        <time>2018-06-07T10:42:51Z</time>
      </trkpt>
      <trkpt lat="45.9897" lon="4.56475">
        <ele>753.679</ele>
        <time>2018-06-07T10:42:57Z</time>
      </trkpt>
      <trkpt lat="45.98982" lon="4.5647">
        <ele>755.34</ele>
        <time>2018-06-07T10:43:03Z</time>
      </trkpt>
      <trkpt lat="45.98984" lon="4.56469">
        <ele>756.498</ele>
        <time>2018-06-07T10:43:08Z</time>
      </trkpt>
      <trkpt lat="45.98987" lon="4.56467">
        <ele>757.414</ele>
        <time>2018-06-07T10:43:13Z</time>
      </trkpt>
      <trkpt lat="45.98988" lon="4.56464">
        <ele>758.11</ele>
        <time>2018-06-07T10:43:18Z</time>
      </trkpt>
      <trkpt lat="45.98989" lon="4.56458">
        <ele>758.675</ele>
        <time>2018-06-07T10:43:24Z</time>
      </trkpt>
      <trkpt lat="45.98992" lon="4.56455">
        <ele>759.925</ele>
        <time>2018-06-07T10:43:30Z</time>
      </trkpt>
      <trkpt lat="45.98997" lon="4.56453">
        <ele>760.789</ele>
        <time>2018-06-07T10:43:36Z</time>
      </trkpt>
      <trkpt lat="45.99" lon="4.56446">
        <ele>761.203</ele>
        <time>2018-06-07T10:43:41Z</time>
      </trkpt>
      <trkpt lat="45.99003" lon="4.56441">
        <ele>761.802</ele>
        <time>2018-06-07T10:43:47Z</time>
      </trkpt>
      <trkpt lat="45.99008" lon="4.56436">
        <ele>762.65</ele>
        <time>2018-06-07T10:43:53Z</time>
      </trkpt>
      <trkpt lat="45.99013" lon="4.56425">
        <ele>763.188</ele>
        <time>2018-06-07T10:43:59Z</time>
      </trkpt>
      <trkpt lat="45.99017" lon="4.56421">
        <ele>764.105</ele>
        <time>2018-06-07T10:44:04Z</time>
      </trkpt>
      <trkpt lat="45.9902" lon="4.56422">
        <ele>764.592</ele>
        <time>2018-06-07T10:44:09Z</time>
      </trkpt>
      <trkpt lat="45.99023" lon="4.56417">
        <ele>765.097</ele>
        <time>2018-06-07T10:44:15Z</time>
      </trkpt>
      <trkpt lat="45.99031" lon="4.5641">
        <ele>765.148</ele>
        <time>2018-06-07T10:44:21Z</time>
      </trkpt>
      <trkpt lat="45.99035" lon="4.56403">
        <ele>764.991</ele>
        <time>2018-06-07T10:44:27Z</time>
      </trkpt>
      <trkpt lat="45.99038" lon="4.56396">
        <ele>765.344</ele>
        <time>2018-06-07T10:44:33Z</time>
      </trkpt>
      <trkpt lat="45.99039" lon="4.56394">
        <ele>765.538</ele>
        <time>2018-06-07T10:44:38Z</time>
      </trkpt>
      <trkpt lat="45.99042" lon="4.56389">
        <ele>766.028</ele>
        <time>2018-06-07T10:44:43Z</time>
      </trkpt>
      <trkpt lat="45.99048" lon="4.56383">
        <ele>765.977</ele>
        <time>2018-06-07T10:44:49Z</time>
      </trkpt>
      <trkpt lat="45.99052" lon="4.56381">
        <ele>765.77</ele>
        <time>2018-06-07T10:44:54Z</time>
      </trkpt>
      <trkpt lat="45.99059" lon="4.56378">
        <ele>765.672</ele>
        <time>2018-06-07T10:45:00Z</time>
      </trkpt>
      <trkpt lat="45.99062" lon="4.56377">
        <ele>765.396</ele>
        <time>2018-06-07T10:45:06Z</time>
      </trkpt>
      <trkpt lat="45.99072" lon="4.56373">
        <ele>765.349</ele>
        <time>2018-06-07T10:45:12Z</time>
      </trkpt>
      <trkpt lat="45.99078" lon="4.56372">
        <ele>764.641</ele>
        <time>2018-06-07T10:45:17Z</time>
      </trkpt>
      <trkpt lat="45.99082" lon="4.56367">
        <ele>763.895</ele>
        <time>2018-06-07T10:45:22Z</time>
      </trkpt>
      <trkpt lat="45.99086" lon="4.56365">
        <ele>763.663</ele>
        <time>2018-06-07T10:45:27Z</time>
      </trkpt>
      <trkpt lat="45.99091" lon="4.56358">
        <ele>763.605</ele>
        <time>2018-06-07T10:45:33Z</time>
      </trkpt>
      <trkpt lat="45.99094" lon="4.56357">
        <ele>764.263</ele>
        <time>2018-06-07T10:45:38Z</time>
      </trkpt>
      <trkpt lat="45.99102" lon="4.56348">
        <ele>765.375</ele>
        <time>2018-06-07T10:45:44Z</time>
      </trkpt>
      <trkpt lat="45.99103" lon="4.56346">
        <ele>765.99</ele>
        <time>2018-06-07T10:45:49Z</time>
      </trkpt>
      <trkpt lat="45.99105" lon="4.56346">
        <ele>767.156</ele>
        <time>2018-06-07T10:45:54Z</time>
      </trkpt>
      <trkpt lat="45.9911" lon="4.56345">
        <ele>768.913</ele>
        <time>2018-06-07T10:46:00Z</time>
      </trkpt>
      <trkpt lat="45.99116" lon="4.56336">
        <ele>770.701</ele>
        <time>2018-06-07T10:46:06Z</time>
      </trkpt>
      <trkpt lat="45.99125" lon="4.56335">
        <ele>772.292</ele>
        <time>2018-06-07T10:46:12Z</time>
      </trkpt>
      <trkpt lat="45.9913" lon="4.56337">
        <ele>773.812</ele>
        <time>2018-06-07T10:46:18Z</time>
      </trkpt>
      <trkpt lat="45.99133" lon="4.56332">
        <ele>775.015</ele>
        <time>2018-06-07T10:46:24Z</time>
      </trkpt>
      <trkpt lat="45.99142" lon="4.56333">
        <ele>775.915</ele>
        <time>2018-06-07T10:46:29Z</time>
      </trkpt>
      <trkpt lat="45.99147" lon="4.56334">
        <ele>776.685</ele>
        <time>2018-06-07T10:46:35Z</time>
      </trkpt>
      <trkpt lat="45.99153" lon="4.56331">
        <ele>777.215</ele>
        <time>2018-06-07T10:46:41Z</time>
      </trkpt>
      <trkpt lat="45.99156" lon="4.56331">
        <ele>778.528</ele>
        <time>2018-06-07T10:46:47Z</time>
      </trkpt>
      <trkpt lat="45.99159" lon="4.56328">
        <ele>779.903</ele>
        <time>2018-06-07T10:46:53Z</time>
      </trkpt>
      <trkpt lat="45.99162" lon="4.56322">
        <ele>780.772</ele>
        <time>2018-06-07T10:46:58Z</time>
      </trkpt>
      <trkpt lat="45.99171" lon="4.56316">
        <ele>781.288</ele>
        <time>2018-06-07T10:47:03Z</time>
      </trkpt>
      <trkpt lat="45.99172" lon="4.56315">
        <ele>782.038</ele>
        <time>2018-06-07T10:47:09Z</time>
      </trkpt>
      <trkpt lat="45.99181" lon="4.56308">
        <ele>782.763</ele>
        <time>2018-06-07T10:47:14Z</time>
      </trkpt>
      <trkpt lat="45.99187" lon="4.56306">
        <ele>783.281</ele>
        <time>2018-06-07T10:47:20Z</time>
      </trkpt>
      <trkpt lat="45.99192" lon="4.56302">
        <ele>783.772</ele>
        <time>2018-06-07T10:47:25Z</time>
      </trkpt>
      <trkpt lat="45.99198" lon="4.56295">
        <ele>784.675</ele>
        <time>2018-06-07T10:47:30Z</time>
      </trkpt>
      <trkpt lat="45.99202" lon="4.56289">
        <ele>785.259</ele>
        <time>2018-06-07T10:47:36Z</time>
      </trkpt>
      <trkpt lat="45.99206" lon="4.56285">
        <ele>785.868</ele>
        <time>2018-06-07T10:47:42Z</time>
      </trkpt>
      <trkpt lat="45.99211" lon="4.56278">
        <ele>786.843</ele>
        <time>2018-06-07T10:47:47Z</time>
      </trkpt>
      <trkpt lat="45.99216" lon="4.56272">
        <ele>788.183</ele>
        <time>2018-06-07T10:47:53Z</time>
      </trkpt>
      <trkpt lat="45.99219" lon="4.56268">
        <ele>789.191</ele>
        <time>2018-06-07T10:47:58Z</time>
      </trkpt>
      <trkpt lat="45.99224" lon="4.56262">
        <ele>790.105</ele>
        <time>2018-06-07T10:48:03Z</time>
      </trkpt>
      <trkpt lat="45.99231" lon="4.56255">
        <ele>790.584</ele>
        <time>2018-06-07T10:48:09Z</time>
      </trkpt>
      <trkpt lat="45.99237" lon="4.5625">
        <ele>791.283</ele>
        <time>2018-06-07T10:48:15Z</time>
      </trkpt>
      <trkpt lat="45.9924" lon="4.56247">
        <ele>791.602</ele>
        <time>2018-06-07T10:48:20Z</time>
      </trkpt>
      <trkpt lat="45.99243" lon="4.56244">
        <ele>791.719</ele>
        <time>2018-06-07T10:48:25Z</time>
      </trkpt>
      <trkpt lat="45.99247" lon="4.5624">
        <ele>791.533</ele>
        <time>2018-06-07T10:48:31Z</time>
      </trkpt>
      <trkpt lat="45.99251" lon="4.56235">
        <ele>791.658</ele>
        <time>2018-06-07T10:48:36Z</time>
      </trkpt>
      <trkpt lat="45.99256" lon="4.56232">
        <ele>792.835</ele>
        <time>2018-06-07T10:48:42Z</time>
      </trkpt>
      <trkpt lat="45.99271" lon="4.56222">
        <ele>793.568</ele>
        <time>2018-06-07T10:48:48Z</time>
      </trkpt>
      <trkpt lat="45.99276" lon="4.56218">
        <ele>794.062</ele>
        <time>2018-06-07T10:48:54Z</time>
      </trkpt>
      <trkpt lat="45.99282" lon="4.56214">
        <ele>794.307</ele>
        <time>2018-06-07T10:49:00Z</time>
      </trkpt>
      <trkpt lat="45.99289" lon="4.56208">
        <ele>794.64</ele>
        <time>2018-06-07T10:49:05Z</time>
      </trkpt>
      <trkpt lat="45.99294" lon="4.56207">
        <ele>794.636</ele>
        <time>2018-06-07T10:49:11Z</time>
      </trkpt>
      <trkpt lat="45.99302" lon="4.56206">
        <ele>794.373</ele>
        <time>2018-06-07T10:49:17Z</time>
      </trkpt>
      <trkpt lat="45.99306" lon="4.56205">
        <ele>794.223</ele>
        <time>2018-06-07T10:49:22Z</time>
      </trkpt>
      <trkpt lat="45.99312" lon="4.56204">
        <ele>794.164</ele>
        <time>2018-06-07T10:49:28Z</time>
      </trkpt>
      <trkpt lat="45.99313" lon="4.56204">
        <ele>794.041</ele>
        <time>2018-06-07T10:49:33Z</time>
      </trkpt>
      <trkpt lat="45.99313" lon="4.56204">
        <ele>793.562</ele>
        <time>2018-06-07T10:49:39Z</time>
      </trkpt>
      <trkpt lat="45.99313" lon="4.56205">
        <ele>792.81</ele>
        <time>2018-06-07T10:49:45Z</time>
      </trkpt>
      <trkpt lat="45.99313" lon="4.56205">
        <ele>792.705</ele>
        <time>2018-06-07T10:49:50Z</time>
      </trkpt>
      <trkpt lat="45.99313" lon="4.56205">
        <ele>792.586</ele>
        <time>2018-06-07T10:49:55Z</time>
      </trkpt>
      <trkpt lat="45.99313" lon="4.56205">
        <ele>792.582</ele>
        <time>2018-06-07T10:50:01Z</time>
      </trkpt>
      <trkpt lat="45.99313" lon="4.56205">
        <ele>792.983</ele>
        <time>2018-06-07T10:50:06Z</time>
      </trkpt>
      <trkpt lat="45.99313" lon="4.56205">
        <ele>792.97</ele>
        <time>2018-06-07T10:50:12Z</time>
      </trkpt>
      <trkpt lat="45.99313" lon="4.56205">
        <ele>792.957</ele>
        <time>2018-06-07T10:50:18Z</time>
      </trkpt>
      <trkpt lat="45.99313" lon="4.56204">
        <ele>792.986</ele>
        <time>2018-06-07T10:50:24Z</time>
      </trkpt>
      <trkpt lat="45.99313" lon="4.56204">
        <ele>792.963</ele>
        <time>2018-06-07T10:50:30Z</time>
      </trkpt>
      <trkpt lat="45.99313" lon="4.56204">
        <ele>792.952</ele>
        <time>2018-06-07T10:50:35Z</time>
      </trkpt>
      <trkpt lat="45.99313" lon="4.56206">
        <ele>792.909</ele>
        <time>2018-06-07T10:50:41Z</time>
      </trkpt>
      <trkpt lat="45.99313" lon="4.56206">
        <ele>792.907</ele>
        <time>2018-06-07T10:50:46Z</time>
      </trkpt>
      <trkpt lat="45.99314" lon="4.56209">
        <ele>792.858</ele>
        <time>2018-06-07T10:50:51Z</time>
      </trkpt>
      <trkpt lat="45.99314" lon="4.56208">
        <ele>792.893</ele>
        <time>2018-06-07T10:50:57Z</time>
      </trkpt>
      <trkpt lat="45.9931" lon="4.56202">
        <ele>792.148</ele>
        <time>2018-06-07T10:51:03Z</time>
      </trkpt>
      <trkpt lat="45.99305" lon="4.56195">
        <ele>791.347</ele>
        <time>2018-06-07T10:51:09Z</time>
      </trkpt>
      <trkpt lat="45.99302" lon="4.5619">
        <ele>790.719</ele>
        <time>2018-06-07T10:51:15Z</time>
      </trkpt>
      <trkpt lat="45.99298" lon="4.56185">
        <ele>790.028</ele>
        <time>2018-06-07T10:51:20Z</time>
      </trkpt>
      <trkpt lat="45.99295" lon="4.56179">
        <ele>788.776</ele>
        <time>2018-06-07T10:51:26Z</time>
      </trkpt>
      <trkpt lat="45.9929" lon="4.56174">
        <ele>787.778</ele>
        <time>2018-06-07T10:51:31Z</time>
      </trkpt>
      <trkpt lat="45.99287" lon="4.56169">
        <ele>786.929</ele>
        <time>2018-06-07T10:51:36Z</time>
      </trkpt>
      <trkpt lat="45.99282" lon="4.56166">
        <ele>785.981</ele>
        <time>2018-06-07T10:51:42Z</time>
      </trkpt>
      <trkpt lat="45.9928" lon="4.56163">
        <ele>785.33</ele>
        <time>2018-06-07T10:51:47Z</time>
      </trkpt>
      <trkpt lat="45.99277" lon="4.56154">
        <ele>784.768</ele>
        <time>2018-06-07T10:51:52Z</time>
      </trkpt>
      <trkpt lat="45.99273" lon="4.56147">
        <ele>784.508</ele>
        <time>2018-06-07T10:51:57Z</time>
      </trkpt>
      <trkpt lat="45.99268" lon="4.56141">
        <ele>784.197</ele>
        <time>2018-06-07T10:52:02Z</time>
      </trkpt>
      <trkpt lat="45.99264" lon="4.5614">
        <ele>783.348</ele>
        <time>2018-06-07T10:52:08Z</time>
      </trkpt>
      <trkpt lat="45.9926" lon="4.56135">
        <ele>782.15</ele>
        <time>2018-06-07T10:52:14Z</time>
      </trkpt>
      <trkpt lat="45.99255" lon="4.56126">
        <ele>781.141</ele>
        <time>2018-06-07T10:52:19Z</time>
      </trkpt>
      <trkpt lat="45.99251" lon="4.56121">
        <ele>779.9</ele>
        <time>2018-06-07T10:52:26Z</time>
      </trkpt>
      <trkpt lat="45.99245" lon="4.56116">
        <ele>778.422</ele>
        <time>2018-06-07T10:52:31Z</time>
      </trkpt>
      <trkpt lat="45.9924" lon="4.56113">
        <ele>777.05</ele>
        <time>2018-06-07T10:52:37Z</time>
      </trkpt>
      <trkpt lat="45.99239" lon="4.56106">
        <ele>775.592</ele>
        <time>2018-06-07T10:52:42Z</time>
      </trkpt>
      <trkpt lat="45.99235" lon="4.56101">
        <ele>774.466</ele>
        <time>2018-06-07T10:52:47Z</time>
      </trkpt>
      <trkpt lat="45.99229" lon="4.56096">
        <ele>773.378</ele>
        <time>2018-06-07T10:52:53Z</time>
      </trkpt>
      <trkpt lat="45.99224" lon="4.56091">
        <ele>772.69</ele>
        <time>2018-06-07T10:52:58Z</time>
      </trkpt>
      <trkpt lat="45.99218" lon="4.56085">
        <ele>771.664</ele>
        <time>2018-06-07T10:53:03Z</time>
      </trkpt>
      <trkpt lat="45.99213" lon="4.56083">
        <ele>770.548</ele>
        <time>2018-06-07T10:53:09Z</time>
      </trkpt>
      <trkpt lat="45.99208" lon="4.56078">
        <ele>769.659</ele>
        <time>2018-06-07T10:53:14Z</time>
      </trkpt>
      <trkpt lat="45.99204" lon="4.56073">
        <ele>768.362</ele>
        <time>2018-06-07T10:53:20Z</time>
      </trkpt>
      <trkpt lat="45.992" lon="4.56066">
        <ele>767.258</ele>
        <time>2018-06-07T10:53:26Z</time>
      </trkpt>
      <trkpt lat="45.99198" lon="4.56061">
        <ele>766.192</ele>
        <time>2018-06-07T10:53:31Z</time>
      </trkpt>
      <trkpt lat="45.99195" lon="4.56057">
        <ele>764.785</ele>
        <time>2018-06-07T10:53:37Z</time>
      </trkpt>
      <trkpt lat="45.99194" lon="4.56051">
        <ele>763.2</ele>
        <time>2018-06-07T10:53:43Z</time>
      </trkpt>
      <trkpt lat="45.99191" lon="4.56047">
        <ele>762.118</ele>
        <time>2018-06-07T10:53:48Z</time>
      </trkpt>
      <trkpt lat="45.99187" lon="4.5604">
        <ele>760.718</ele>
        <time>2018-06-07T10:53:54Z</time>
      </trkpt>
      <trkpt lat="45.99185" lon="4.56037">
        <ele>759.535</ele>
        <time>2018-06-07T10:53:59Z</time>
      </trkpt>
      <trkpt lat="45.99176" lon="4.56033">
        <ele>757.973</ele>
        <time>2018-06-07T10:54:04Z</time>
      </trkpt>
      <trkpt lat="45.99172" lon="4.56029">
        <ele>756.648</ele>
        <time>2018-06-07T10:54:09Z</time>
      </trkpt>
      <trkpt lat="45.99167" lon="4.56024">
        <ele>755.364</ele>
        <time>2018-06-07T10:54:16Z</time>
      </trkpt>
      <trkpt lat="45.99163" lon="4.5602">
        <ele>754.308</ele>
        <time>2018-06-07T10:54:21Z</time>
      </trkpt>
      <trkpt lat="45.99159" lon="4.56014">
        <ele>753.208</ele>
        <time>2018-06-07T10:54:27Z</time>
      </trkpt>
      <trkpt lat="45.99157" lon="4.56009">
        <ele>751.55</ele>
        <time>2018-06-07T10:54:33Z</time>
      </trkpt>
      <trkpt lat="45.99155" lon="4.56004">
        <ele>749.937</ele>
        <time>2018-06-07T10:54:39Z</time>
      </trkpt>
      <trkpt lat="45.99155" lon="4.55997">
        <ele>748.967</ele>
        <time>2018-06-07T10:54:44Z</time>
      </trkpt>
      <trkpt lat="45.99152" lon="4.5599">
        <ele>747.925</ele>
        <time>2018-06-07T10:54:50Z</time>
      </trkpt>
      <trkpt lat="45.99151" lon="4.55987">
        <ele>747.031</ele>
        <time>2018-06-07T10:54:55Z</time>
      </trkpt>
      <trkpt lat="45.9915" lon="4.55983">
        <ele>746.02</ele>
        <time>2018-06-07T10:55:00Z</time>
      </trkpt>
      <trkpt lat="45.99144" lon="4.55974">
        <ele>744.441</ele>
        <time>2018-06-07T10:55:05Z</time>
      </trkpt>
      <trkpt lat="45.99142" lon="4.55969">
        <ele>743.061</ele>
        <time>2018-06-07T10:55:11Z</time>
      </trkpt>
      <trkpt lat="45.99135" lon="4.55964">
        <ele>741.716</ele>
        <time>2018-06-07T10:55:17Z</time>
      </trkpt>
      <trkpt lat="45.99131" lon="4.55961">
        <ele>740.498</ele>
        <time>2018-06-07T10:55:23Z</time>
      </trkpt>
      <trkpt lat="45.99129" lon="4.55954">
        <ele>739.084</ele>
        <time>2018-06-07T10:55:28Z</time>
      </trkpt>
      <trkpt lat="45.99126" lon="4.55947">
        <ele>737.6</ele>
        <time>2018-06-07T10:55:33Z</time>
      </trkpt>
      <trkpt lat="45.99119" lon="4.5594">
        <ele>736.12</ele>
        <time>2018-06-07T10:55:39Z</time>
      </trkpt>
      <trkpt lat="45.99117" lon="4.55934">
        <ele>734.645</ele>
        <time>2018-06-07T10:55:45Z</time>
      </trkpt>
      <trkpt lat="45.99116" lon="4.55929">
        <ele>734.036</ele>
        <time>2018-06-07T10:55:51Z</time>
      </trkpt>
      <trkpt lat="45.99114" lon="4.55926">
        <ele>733.359</ele>
        <time>2018-06-07T10:55:57Z</time>
      </trkpt>
      <trkpt lat="45.99112" lon="4.55925">
        <ele>733.067</ele>
        <time>2018-06-07T10:56:02Z</time>
      </trkpt>
      <trkpt lat="45.99109" lon="4.5592">
        <ele>732.256</ele>
        <time>2018-06-07T10:56:08Z</time>
      </trkpt>
      <trkpt lat="45.99111" lon="4.55919">
        <ele>731.526</ele>
        <time>2018-06-07T10:56:13Z</time>
      </trkpt>
      <trkpt lat="45.99111" lon="4.55921">
        <ele>731.085</ele>
        <time>2018-06-07T10:56:19Z</time>
      </trkpt>
      <trkpt lat="45.99109" lon="4.55922">
        <ele>730.77</ele>
        <time>2018-06-07T10:56:24Z</time>
      </trkpt>
      <trkpt lat="45.99107" lon="4.55921">
        <ele>731.163</ele>
        <time>2018-06-07T10:56:29Z</time>
      </trkpt>
      <trkpt lat="45.99105" lon="4.55921">
        <ele>732.063</ele>
        <time>2018-06-07T10:56:34Z</time>
      </trkpt>
      <trkpt lat="45.99107" lon="4.55926">
        <ele>732.339</ele>
        <time>2018-06-07T10:56:40Z</time>
      </trkpt>
      <trkpt lat="45.99108" lon="4.55928">
        <ele>732.044</ele>
        <time>2018-06-07T10:56:46Z</time>
      </trkpt>
      <trkpt lat="45.9911" lon="4.5593">
        <ele>731.507</ele>
        <time>2018-06-07T10:56:51Z</time>
      </trkpt>
      <trkpt lat="45.99112" lon="4.55929">
        <ele>731.165</ele>
        <time>2018-06-07T10:56:57Z</time>
      </trkpt>
      <trkpt lat="45.99112" lon="4.55931">
        <ele>730.633</ele>
        <time>2018-06-07T10:57:03Z</time>
      </trkpt>
      <trkpt lat="45.99113" lon="4.55933">
        <ele>730.004</ele>
        <time>2018-06-07T10:57:09Z</time>
      </trkpt>
      <trkpt lat="45.99112" lon="4.55932">
        <ele>730.184</ele>
        <time>2018-06-07T10:57:14Z</time>
      </trkpt>
      <trkpt lat="45.99113" lon="4.55931">
        <ele>729.802</ele>
        <time>2018-06-07T10:57:20Z</time>
      </trkpt>
      <trkpt lat="45.99112" lon="4.5593">
        <ele>729.866</ele>
        <time>2018-06-07T10:57:26Z</time>
      </trkpt>
      <trkpt lat="45.99111" lon="4.5593">
        <ele>729.518</ele>
        <time>2018-06-07T10:57:31Z</time>
      </trkpt>
      <trkpt lat="45.9911" lon="4.55928">
        <ele>729.179</ele>
        <time>2018-06-07T10:57:37Z</time>
      </trkpt>
      <trkpt lat="45.99111" lon="4.55927">
        <ele>729.283</ele>
        <time>2018-06-07T10:57:42Z</time>
      </trkpt>
      <trkpt lat="45.99109" lon="4.55926">
        <ele>729.022</ele>
        <time>2018-06-07T10:57:48Z</time>
      </trkpt>
      <trkpt lat="45.9911" lon="4.55925">
        <ele>728.521</ele>
        <time>2018-06-07T10:57:54Z</time>
      </trkpt>
      <trkpt lat="45.99109" lon="4.55924">
        <ele>727.679</ele>
        <time>2018-06-07T10:57:59Z</time>
      </trkpt>
      <trkpt lat="45.99107" lon="4.55924">
        <ele>727.648</ele>
        <time>2018-06-07T10:58:04Z</time>
      </trkpt>
      <trkpt lat="45.99106" lon="4.55926">
        <ele>727.817</ele>
        <time>2018-06-07T10:58:09Z</time>
      </trkpt>
      <trkpt lat="45.99104" lon="4.55929">
        <ele>728.058</ele>
        <time>2018-06-07T10:58:15Z</time>
      </trkpt>
      <trkpt lat="45.99102" lon="4.55933">
        <ele>728.139</ele>
        <time>2018-06-07T10:58:20Z</time>
      </trkpt>
      <trkpt lat="45.991" lon="4.55937">
        <ele>728.101</ele>
        <time>2018-06-07T10:58:26Z</time>
      </trkpt>
      <trkpt lat="45.99096" lon="4.55948">
        <ele>728.049</ele>
        <time>2018-06-07T10:58:32Z</time>
      </trkpt>
      <trkpt lat="45.99096" lon="4.55954">
        <ele>727.468</ele>
        <time>2018-06-07T10:58:37Z</time>
      </trkpt>
      <trkpt lat="45.99098" lon="4.55965">
        <ele>727.17</ele>
        <time>2018-06-07T10:58:42Z</time>
      </trkpt>
      <trkpt lat="45.99101" lon="4.55976">
        <ele>726.725</ele>
        <time>2018-06-07T10:58:48Z</time>
      </trkpt>
      <trkpt lat="45.991" lon="4.55982">
        <ele>726.108</ele>
        <time>2018-06-07T10:58:53Z</time>
      </trkpt>
      <trkpt lat="45.99102" lon="4.55991">
        <ele>726.077</ele>
        <time>2018-06-07T10:58:59Z</time>
      </trkpt>
      <trkpt lat="45.99104" lon="4.55997">
        <ele>725.699</ele>
        <time>2018-06-07T10:59:05Z</time>
      </trkpt>
      <trkpt lat="45.99105" lon="4.56005">
        <ele>725.144</ele>
        <time>2018-06-07T10:59:11Z</time>
      </trkpt>
      <trkpt lat="45.99102" lon="4.56021">
        <ele>724.875</ele>
        <time>2018-06-07T10:59:17Z</time>
      </trkpt>
      <trkpt lat="45.99099" lon="4.56028">
        <ele>724.411</ele>
        <time>2018-06-07T10:59:23Z</time>
      </trkpt>
      <trkpt lat="45.99096" lon="4.56037">
        <ele>724.195</ele>
        <time>2018-06-07T10:59:29Z</time>
      </trkpt>
      <trkpt lat="45.99093" lon="4.56047">
        <ele>723.646</ele>
        <time>2018-06-07T10:59:35Z</time>
      </trkpt>
      <trkpt lat="45.99089" lon="4.56051">
        <ele>723.351</ele>
        <time>2018-06-07T10:59:41Z</time>
      </trkpt>
      <trkpt lat="45.99083" lon="4.56056">
        <ele>722.668</ele>
        <time>2018-06-07T10:59:47Z</time>
      </trkpt>
      <trkpt lat="45.99075" lon="4.56065">
        <ele>721.893</ele>
        <time>2018-06-07T10:59:53Z</time>
      </trkpt>
      <trkpt lat="45.99073" lon="4.56068">
        <ele>721.409</ele>
        <time>2018-06-07T10:59:58Z</time>
      </trkpt>
      <trkpt lat="45.99066" lon="4.56075">
        <ele>720.916</ele>
        <time>2018-06-07T11:00:04Z</time>
      </trkpt>
      <trkpt lat="45.99061" lon="4.56081">
        <ele>720.275</ele>
        <time>2018-06-07T11:00:10Z</time>
      </trkpt>
      <trkpt lat="45.99057" lon="4.5609">
        <ele>719.477</ele>
        <time>2018-06-07T11:00:15Z</time>
      </trkpt>
      <trkpt lat="45.99053" lon="4.56095">
        <ele>718.791</ele>
        <time>2018-06-07T11:00:20Z</time>
      </trkpt>
      <trkpt lat="45.99049" lon="4.561">
        <ele>718.153</ele>
        <time>2018-06-07T11:00:26Z</time>
      </trkpt>
      <trkpt lat="45.99046" lon="4.56102">
        <ele>717.835</ele>
        <time>2018-06-07T11:00:31Z</time>
      </trkpt>
      <trkpt lat="45.99039" lon="4.56105">
        <ele>717.532</ele>
        <time>2018-06-07T11:00:37Z</time>
      </trkpt>
      <trkpt lat="45.99033" lon="4.56106">
        <ele>716.657</ele>
        <time>2018-06-07T11:00:42Z</time>
      </trkpt>
      <trkpt lat="45.99028" lon="4.56105">
        <ele>716.295</ele>
        <time>2018-06-07T11:00:47Z</time>
      </trkpt>
      <trkpt lat="45.99024" lon="4.56105">
        <ele>716.097</ele>
        <time>2018-06-07T11:00:52Z</time>
      </trkpt>
      <trkpt lat="45.9902" lon="4.56106">
        <ele>715.809</ele>
        <time>2018-06-07T11:00:58Z</time>
      </trkpt>
      <trkpt lat="45.99016" lon="4.5611">
        <ele>715.571</ele>
        <time>2018-06-07T11:01:03Z</time>
      </trkpt>
      <trkpt lat="45.99008" lon="4.56112">
        <ele>715.224</ele>
        <time>2018-06-07T11:01:09Z</time>
      </trkpt>
      <trkpt lat="45.99005" lon="4.56111">
        <ele>714.551</ele>
        <time>2018-06-07T11:01:15Z</time>
      </trkpt>
      <trkpt lat="45.98998" lon="4.56114">
        <ele>713.509</ele>
        <time>2018-06-07T11:01:21Z</time>
      </trkpt>
      <trkpt lat="45.98994" lon="4.56115">
        <ele>713.025</ele>
        <time>2018-06-07T11:01:27Z</time>
      </trkpt>
      <trkpt lat="45.9899" lon="4.56116">
        <ele>712.773</ele>
        <time>2018-06-07T11:01:33Z</time>
      </trkpt>
      <trkpt lat="45.98985" lon="4.56113">
        <ele>712.359</ele>
        <time>2018-06-07T11:01:39Z</time>
      </trkpt>
      <trkpt lat="45.98981" lon="4.56109">
        <ele>712.06</ele>
        <time>2018-06-07T11:01:45Z</time>
      </trkpt>
      <trkpt lat="45.98977" lon="4.56112">
        <ele>711.238</ele>
        <time>2018-06-07T11:01:51Z</time>
      </trkpt>
      <trkpt lat="45.98971" lon="4.56116">
        <ele>710.732</ele>
        <time>2018-06-07T11:01:57Z</time>
      </trkpt>
      <trkpt lat="45.98968" lon="4.56118">
        <ele>709.979</ele>
        <time>2018-06-07T11:02:03Z</time>
      </trkpt>
      <trkpt lat="45.98962" lon="4.56121">
        <ele>709.306</ele>
        <time>2018-06-07T11:02:09Z</time>
      </trkpt>
      <trkpt lat="45.98957" lon="4.56121">
        <ele>708.349</ele>
        <time>2018-06-07T11:02:15Z</time>
      </trkpt>
      <trkpt lat="45.98953" lon="4.56121">
        <ele>707.619</ele>
        <time>2018-06-07T11:02:20Z</time>
      </trkpt>
      <trkpt lat="45.98949" lon="4.56117">
        <ele>706.667</ele>
        <time>2018-06-07T11:02:26Z</time>
      </trkpt>
      <trkpt lat="45.98946" lon="4.56118">
        <ele>705.806</ele>
        <time>2018-06-07T11:02:31Z</time>
      </trkpt>
      <trkpt lat="45.98941" lon="4.56119">
        <ele>704.684</ele>
        <time>2018-06-07T11:02:37Z</time>
      </trkpt>
      <trkpt lat="45.98936" lon="4.56122">
        <ele>703.576</ele>
        <time>2018-06-07T11:02:43Z</time>
      </trkpt>
      <trkpt lat="45.9893" lon="4.56127">
        <ele>702.885</ele>
        <time>2018-06-07T11:02:48Z</time>
      </trkpt>
      <trkpt lat="45.98924" lon="4.56132">
        <ele>702.051</ele>
        <time>2018-06-07T11:02:54Z</time>
      </trkpt>
      <trkpt lat="45.98919" lon="4.56136">
        <ele>701.413</ele>
        <time>2018-06-07T11:03:00Z</time>
      </trkpt>
      <trkpt lat="45.98913" lon="4.56141">
        <ele>700.871</ele>
        <time>2018-06-07T11:03:05Z</time>
      </trkpt>
      <trkpt lat="45.98906" lon="4.56151">
        <ele>700.031</ele>
        <time>2018-06-07T11:03:11Z</time>
      </trkpt>
      <trkpt lat="45.98899" lon="4.56153">
        <ele>699.466</ele>
        <time>2018-06-07T11:03:16Z</time>
      </trkpt>
      <trkpt lat="45.98895" lon="4.56153">
        <ele>698.66</ele>
        <time>2018-06-07T11:03:21Z</time>
      </trkpt>
      <trkpt lat="45.9889" lon="4.56152">
        <ele>697.662</ele>
        <time>2018-06-07T11:03:27Z</time>
      </trkpt>
      <trkpt lat="45.98886" lon="4.56148">
        <ele>696.893</ele>
        <time>2018-06-07T11:03:32Z</time>
      </trkpt>
      <trkpt lat="45.98882" lon="4.56143">
        <ele>696.344</ele>
        <time>2018-06-07T11:03:38Z</time>
      </trkpt>
      <trkpt lat="45.98876" lon="4.56138">
        <ele>696.223</ele>
        <time>2018-06-07T11:03:43Z</time>
      </trkpt>
      <trkpt lat="45.98867" lon="4.5613">
        <ele>695.52</ele>
        <time>2018-06-07T11:03:49Z</time>
      </trkpt>
      <trkpt lat="45.98861" lon="4.56126">
        <ele>694.875</ele>
        <time>2018-06-07T11:03:55Z</time>
      </trkpt>
      <trkpt lat="45.98855" lon="4.56121">
        <ele>694.869</ele>
        <time>2018-06-07T11:04:00Z</time>
      </trkpt>
      <trkpt lat="45.9885" lon="4.56113">
        <ele>694.531</ele>
        <time>2018-06-07T11:04:06Z</time>
      </trkpt>
      <trkpt lat="45.98847" lon="4.56106">
        <ele>694.354</ele>
        <time>2018-06-07T11:04:12Z</time>
      </trkpt>
      <trkpt lat="45.98841" lon="4.56099">
        <ele>694.428</ele>
        <time>2018-06-07T11:04:17Z</time>
      </trkpt>
      <trkpt lat="45.98835" lon="4.56093">
        <ele>694.436</ele>
        <time>2018-06-07T11:04:23Z</time>
      </trkpt>
      <trkpt lat="45.9883" lon="4.56088">
        <ele>694.508</ele>
        <time>2018-06-07T11:04:28Z</time>
      </trkpt>
      <trkpt lat="45.98826" lon="4.56084">
        <ele>694.532</ele>
        <time>2018-06-07T11:04:33Z</time>
      </trkpt>
      <trkpt lat="45.98818" lon="4.56076">
        <ele>694.576</ele>
        <time>2018-06-07T11:04:40Z</time>
      </trkpt>
      <trkpt lat="45.9881" lon="4.56068">
        <ele>694.265</ele>
        <time>2018-06-07T11:04:46Z</time>
      </trkpt>
      <trkpt lat="45.98806" lon="4.56063">
        <ele>693.69</ele>
        <time>2018-06-07T11:04:51Z</time>
      </trkpt>
      <trkpt lat="45.98801" lon="4.56057">
        <ele>693.083</ele>
        <time>2018-06-07T11:04:57Z</time>
      </trkpt>
      <trkpt lat="45.98796" lon="4.56048">
        <ele>692.285</ele>
        <time>2018-06-07T11:05:03Z</time>
      </trkpt>
      <trkpt lat="45.98792" lon="4.56043">
        <ele>691.416</ele>
        <time>2018-06-07T11:05:08Z</time>
      </trkpt>
      <trkpt lat="45.98788" lon="4.56039">
        <ele>690.379</ele>
        <time>2018-06-07T11:05:14Z</time>
      </trkpt>
      <trkpt lat="45.98782" lon="4.56031">
        <ele>689.624</ele>
        <time>2018-06-07T11:05:20Z</time>
      </trkpt>
      <trkpt lat="45.98778" lon="4.56026">
        <ele>689.079</ele>
        <time>2018-06-07T11:05:26Z</time>
      </trkpt>
      <trkpt lat="45.98775" lon="4.5602">
        <ele>688.8</ele>
        <time>2018-06-07T11:05:32Z</time>
      </trkpt>
      <trkpt lat="45.98769" lon="4.56012">
        <ele>688.582</ele>
        <time>2018-06-07T11:05:37Z</time>
      </trkpt>
      <trkpt lat="45.98765" lon="4.56007">
        <ele>688.723</ele>
        <time>2018-06-07T11:05:42Z</time>
      </trkpt>
      <trkpt lat="45.98761" lon="4.56003">
        <ele>688.681</ele>
        <time>2018-06-07T11:05:47Z</time>
      </trkpt>
      <trkpt lat="45.98756" lon="4.55998">
        <ele>688.784</ele>
        <time>2018-06-07T11:05:53Z</time>
      </trkpt>
      <trkpt lat="45.98753" lon="4.55993">
        <ele>688.607</ele>
        <time>2018-06-07T11:05:58Z</time>
      </trkpt>
      <trkpt lat="45.98747" lon="4.5599">
        <ele>688.051</ele>
        <time>2018-06-07T11:06:04Z</time>
      </trkpt>
      <trkpt lat="45.98744" lon="4.55984">
        <ele>687.545</ele>
        <time>2018-06-07T11:06:09Z</time>
      </trkpt>
      <trkpt lat="45.98737" lon="4.55973">
        <ele>686.989</ele>
        <time>2018-06-07T11:06:15Z</time>
      </trkpt>
      <trkpt lat="45.98732" lon="4.55964">
        <ele>686.173</ele>
        <time>2018-06-07T11:06:20Z</time>
      </trkpt>
      <trkpt lat="45.98726" lon="4.55956">
        <ele>684.926</ele>
        <time>2018-06-07T11:06:26Z</time>
      </trkpt>
      <trkpt lat="45.98721" lon="4.5595">
        <ele>684.019</ele>
        <time>2018-06-07T11:06:32Z</time>
      </trkpt>
      <trkpt lat="45.98715" lon="4.55944">
        <ele>683.393</ele>
        <time>2018-06-07T11:06:37Z</time>
      </trkpt>
      <trkpt lat="45.98711" lon="4.55939">
        <ele>683.172</ele>
        <time>2018-06-07T11:06:43Z</time>
      </trkpt>
      <trkpt lat="45.98705" lon="4.55935">
        <ele>682.862</ele>
        <time>2018-06-07T11:06:49Z</time>
      </trkpt>
      <trkpt lat="45.98699" lon="4.55929">
        <ele>683.019</ele>
        <time>2018-06-07T11:06:55Z</time>
      </trkpt>
      <trkpt lat="45.98692" lon="4.55921">
        <ele>682.723</ele>
        <time>2018-06-07T11:07:01Z</time>
      </trkpt>
      <trkpt lat="45.98691" lon="4.5592">
        <ele>682.738</ele>
        <time>2018-06-07T11:07:07Z</time>
      </trkpt>
      <trkpt lat="45.98689" lon="4.55918">
        <ele>682.581</ele>
        <time>2018-06-07T11:07:12Z</time>
      </trkpt>
      <trkpt lat="45.98684" lon="4.55912">
        <ele>682.375</ele>
        <time>2018-06-07T11:07:18Z</time>
      </trkpt>
      <trkpt lat="45.9868" lon="4.55909">
        <ele>682.06</ele>
        <time>2018-06-07T11:07:23Z</time>
      </trkpt>
      <trkpt lat="45.98676" lon="4.55906">
        <ele>681.392</ele>
        <time>2018-06-07T11:07:29Z</time>
      </trkpt>
      <trkpt lat="45.98672" lon="4.55903">
        <ele>680.973</ele>
        <time>2018-06-07T11:07:34Z</time>
      </trkpt>
      <trkpt lat="45.98662" lon="4.55897">
        <ele>680.329</ele>
        <time>2018-06-07T11:07:40Z</time>
      </trkpt>
      <trkpt lat="45.98656" lon="4.55894">
        <ele>679.573</ele>
        <time>2018-06-07T11:07:46Z</time>
      </trkpt>
      <trkpt lat="45.98651" lon="4.55893">
        <ele>679.057</ele>
        <time>2018-06-07T11:07:51Z</time>
      </trkpt>
      <trkpt lat="45.98648" lon="4.55893">
        <ele>678.715</ele>
        <time>2018-06-07T11:07:56Z</time>
      </trkpt>
      <trkpt lat="45.98642" lon="4.55893">
        <ele>678.278</ele>
        <time>2018-06-07T11:08:02Z</time>
      </trkpt>
      <trkpt lat="45.98634" lon="4.55895">
        <ele>677.494</ele>
        <time>2018-06-07T11:08:08Z</time>
      </trkpt>
      <trkpt lat="45.98624" lon="4.55898">
        <ele>676.909</ele>
        <time>2018-06-07T11:08:14Z</time>
      </trkpt>
      <trkpt lat="45.98618" lon="4.55898">
        <ele>676.523</ele>
        <time>2018-06-07T11:08:19Z</time>
      </trkpt>
      <trkpt lat="45.98611" lon="4.55901">
        <ele>675.864</ele>
        <time>2018-06-07T11:08:24Z</time>
      </trkpt>
      <trkpt lat="45.98607" lon="4.55902">
        <ele>675.014</ele>
        <time>2018-06-07T11:08:29Z</time>
      </trkpt>
      <trkpt lat="45.986" lon="4.55905">
        <ele>674.35</ele>
        <time>2018-06-07T11:08:35Z</time>
      </trkpt>
      <trkpt lat="45.98594" lon="4.55909">
        <ele>673.42</ele>
        <time>2018-06-07T11:08:41Z</time>
      </trkpt>
      <trkpt lat="45.98586" lon="4.55914">
        <ele>672.418</ele>
        <time>2018-06-07T11:08:47Z</time>
      </trkpt>
      <trkpt lat="45.98578" lon="4.55923">
        <ele>671.276</ele>
        <time>2018-06-07T11:08:53Z</time>
      </trkpt>
      <trkpt lat="45.98573" lon="4.5593">
        <ele>670.2</ele>
        <time>2018-06-07T11:08:59Z</time>
      </trkpt>
      <trkpt lat="45.98568" lon="4.55938">
        <ele>668.825</ele>
        <time>2018-06-07T11:09:05Z</time>
      </trkpt>
      <trkpt lat="45.98565" lon="4.55945">
        <ele>667.451</ele>
        <time>2018-06-07T11:09:11Z</time>
      </trkpt>
      <trkpt lat="45.98562" lon="4.55952">
        <ele>666.041</ele>
        <time>2018-06-07T11:09:17Z</time>
      </trkpt>
      <trkpt lat="45.98557" lon="4.55961">
        <ele>664.737</ele>
        <time>2018-06-07T11:09:23Z</time>
      </trkpt>
      <trkpt lat="45.98554" lon="4.55965">
        <ele>663.536</ele>
        <time>2018-06-07T11:09:29Z</time>
      </trkpt>
      <trkpt lat="45.98549" lon="4.55972">
        <ele>662.262</ele>
        <time>2018-06-07T11:09:34Z</time>
      </trkpt>
      <trkpt lat="45.98548" lon="4.5598">
        <ele>661.006</ele>
        <time>2018-06-07T11:09:40Z</time>
      </trkpt>
      <trkpt lat="45.98544" lon="4.55988">
        <ele>660.026</ele>
        <time>2018-06-07T11:09:45Z</time>
      </trkpt>
      <trkpt lat="45.98542" lon="4.55992">
        <ele>659.276</ele>
        <time>2018-06-07T11:09:50Z</time>
      </trkpt>
      <trkpt lat="45.98541" lon="4.55996">
        <ele>658.55</ele>
        <time>2018-06-07T11:09:55Z</time>
      </trkpt>
      <trkpt lat="45.98536" lon="4.56004">
        <ele>657.767</ele>
        <time>2018-06-07T11:10:01Z</time>
      </trkpt>
      <trkpt lat="45.98533" lon="4.56012">
        <ele>656.805</ele>
        <time>2018-06-07T11:10:06Z</time>
      </trkpt>
      <trkpt lat="45.98528" lon="4.56018">
        <ele>655.034</ele>
        <time>2018-06-07T11:10:12Z</time>
      </trkpt>
      <trkpt lat="45.98527" lon="4.56019">
        <ele>653.916</ele>
        <time>2018-06-07T11:10:17Z</time>
      </trkpt>
      <trkpt lat="45.98525" lon="4.56019">
        <ele>653.44</ele>
        <time>2018-06-07T11:10:23Z</time>
      </trkpt>
      <trkpt lat="45.98518" lon="4.56017">
        <ele>653.407</ele>
        <time>2018-06-07T11:10:28Z</time>
      </trkpt>
      <trkpt lat="45.98512" lon="4.56015">
        <ele>653.295</ele>
        <time>2018-06-07T11:10:33Z</time>
      </trkpt>
      <trkpt lat="45.98506" lon="4.56013">
        <ele>653.373</ele>
        <time>2018-06-07T11:10:39Z</time>
      </trkpt>
      <trkpt lat="45.98505" lon="4.56013">
        <ele>653.595</ele>
        <time>2018-06-07T11:10:44Z</time>
      </trkpt>
      <trkpt lat="45.98504" lon="4.56009">
        <ele>654.037</ele>
        <time>2018-06-07T11:10:50Z</time>
      </trkpt>
      <trkpt lat="45.98504" lon="4.56009">
        <ele>653.947</ele>
        <time>2018-06-07T11:10:56Z</time>
      </trkpt>
      <trkpt lat="45.98504" lon="4.56011">
        <ele>654.358</ele>
        <time>2018-06-07T11:11:02Z</time>
      </trkpt>
      <trkpt lat="45.98505" lon="4.56015">
        <ele>655.153</ele>
        <time>2018-06-07T11:11:07Z</time>
      </trkpt>
      <trkpt lat="45.985" lon="4.56018">
        <ele>655.833</ele>
        <time>2018-06-07T11:11:13Z</time>
      </trkpt>
      <trkpt lat="45.98494" lon="4.56022">
        <ele>656.066</ele>
        <time>2018-06-07T11:11:19Z</time>
      </trkpt>
      <trkpt lat="45.98492" lon="4.56023">
        <ele>656.522</ele>
        <time>2018-06-07T11:11:24Z</time>
      </trkpt>
      <trkpt lat="45.98491" lon="4.56023">
        <ele>656.641</ele>
        <time>2018-06-07T11:11:30Z</time>
      </trkpt>
      <trkpt lat="45.98491" lon="4.56023">
        <ele>656.716</ele>
        <time>2018-06-07T11:11:36Z</time>
      </trkpt>
      <trkpt lat="45.98491" lon="4.56023">
        <ele>656.651</ele>
        <time>2018-06-07T11:11:42Z</time>
      </trkpt>
      <trkpt lat="45.98491" lon="4.56023">
        <ele>656.574</ele>
        <time>2018-06-07T11:11:48Z</time>
      </trkpt>
      <trkpt lat="45.98491" lon="4.56023">
        <ele>656.517</ele>
        <time>2018-06-07T11:11:54Z</time>
      </trkpt>
      <trkpt lat="45.98491" lon="4.56023">
        <ele>656.377</ele>
        <time>2018-06-07T11:11:59Z</time>
      </trkpt>
      <trkpt lat="45.98491" lon="4.56023">
        <ele>656.27</ele>
        <time>2018-06-07T11:12:04Z</time>
      </trkpt>
      <trkpt lat="45.9849" lon="4.56021">
        <ele>656.238</ele>
        <time>2018-06-07T11:12:10Z</time>
      </trkpt>
      <trkpt lat="45.98488" lon="4.56016">
        <ele>656.206</ele>
        <time>2018-06-07T11:12:16Z</time>
      </trkpt>
      <trkpt lat="45.98485" lon="4.56012">
        <ele>656.692</ele>
        <time>2018-06-07T11:12:21Z</time>
      </trkpt>
      <trkpt lat="45.98481" lon="4.56008">
        <ele>656.962</ele>
        <time>2018-06-07T11:12:26Z</time>
      </trkpt>
      <trkpt lat="45.98478" lon="4.56005">
        <ele>656.932</ele>
        <time>2018-06-07T11:12:32Z</time>
      </trkpt>
      <trkpt lat="45.98475" lon="4.55999">
        <ele>656.376</ele>
        <time>2018-06-07T11:12:38Z</time>
      </trkpt>
      <trkpt lat="45.98471" lon="4.5599">
        <ele>656.216</ele>
        <time>2018-06-07T11:12:44Z</time>
      </trkpt>
      <trkpt lat="45.98466" lon="4.55983">
        <ele>655.973</ele>
        <time>2018-06-07T11:12:49Z</time>
      </trkpt>
      <trkpt lat="45.98464" lon="4.5598">
        <ele>655.519</ele>
        <time>2018-06-07T11:12:54Z</time>
      </trkpt>
      <trkpt lat="45.9846" lon="4.55976">
        <ele>654.908</ele>
        <time>2018-06-07T11:13:00Z</time>
      </trkpt>
      <trkpt lat="45.98457" lon="4.55965">
        <ele>653.884</ele>
        <time>2018-06-07T11:13:06Z</time>
      </trkpt>
      <trkpt lat="45.98453" lon="4.55957">
        <ele>653.506</ele>
        <time>2018-06-07T11:13:11Z</time>
      </trkpt>
      <trkpt lat="45.9845" lon="4.55949">
        <ele>653.519</ele>
        <time>2018-06-07T11:13:16Z</time>
      </trkpt>
      <trkpt lat="45.98444" lon="4.55947">
        <ele>653.41</ele>
        <time>2018-06-07T11:13:22Z</time>
      </trkpt>
      <trkpt lat="45.98439" lon="4.55943">
        <ele>652.918</ele>
        <time>2018-06-07T11:13:28Z</time>
      </trkpt>
      <trkpt lat="45.98433" lon="4.55939">
        <ele>652.537</ele>
        <time>2018-06-07T11:13:33Z</time>
      </trkpt>
      <trkpt lat="45.98425" lon="4.55933">
        <ele>652.273</ele>
        <time>2018-06-07T11:13:41Z</time>
      </trkpt>
      <trkpt lat="45.9842" lon="4.55929">
        <ele>651.916</ele>
        <time>2018-06-07T11:13:47Z</time>
      </trkpt>
      <trkpt lat="45.98414" lon="4.55926">
        <ele>651.22</ele>
        <time>2018-06-07T11:13:52Z</time>
      </trkpt>
      <trkpt lat="45.98408" lon="4.55927">
        <ele>650.419</ele>
        <time>2018-06-07T11:13:57Z</time>
      </trkpt>
      <trkpt lat="45.98404" lon="4.55927">
        <ele>649.763</ele>
        <time>2018-06-07T11:14:03Z</time>
      </trkpt>
      <trkpt lat="45.98399" lon="4.55929">
        <ele>648.93</ele>
        <time>2018-06-07T11:14:09Z</time>
      </trkpt>
      <trkpt lat="45.98391" lon="4.55934">
        <ele>647.618</ele>
        <time>2018-06-07T11:14:15Z</time>
      </trkpt>
      <trkpt lat="45.98387" lon="4.55936">
        <ele>646.641</ele>
        <time>2018-06-07T11:14:20Z</time>
      </trkpt>
      <trkpt lat="45.98382" lon="4.55942">
        <ele>645.352</ele>
        <time>2018-06-07T11:14:25Z</time>
      </trkpt>
      <trkpt lat="45.98378" lon="4.55946">
        <ele>644.415</ele>
        <time>2018-06-07T11:14:30Z</time>
      </trkpt>
      <trkpt lat="45.98375" lon="4.55953">
        <ele>643.329</ele>
        <time>2018-06-07T11:14:36Z</time>
      </trkpt>
      <trkpt lat="45.98371" lon="4.55962">
        <ele>641.971</ele>
        <time>2018-06-07T11:14:42Z</time>
      </trkpt>
      <trkpt lat="45.98365" lon="4.55969">
        <ele>640.312</ele>
        <time>2018-06-07T11:14:48Z</time>
      </trkpt>
      <trkpt lat="45.98363" lon="4.55975">
        <ele>639.702</ele>
        <time>2018-06-07T11:14:54Z</time>
      </trkpt>
      <trkpt lat="45.9836" lon="4.55981">
        <ele>639.152</ele>
        <time>2018-06-07T11:14:59Z</time>
      </trkpt>
      <trkpt lat="45.98355" lon="4.55985">
        <ele>638.524</ele>
        <time>2018-06-07T11:15:05Z</time>
      </trkpt>
      <trkpt lat="45.98345" lon="4.55988">
        <ele>638.384</ele>
        <time>2018-06-07T11:15:11Z</time>
      </trkpt>
      <trkpt lat="45.9834" lon="4.55991">
        <ele>638.306</ele>
        <time>2018-06-07T11:15:16Z</time>
      </trkpt>
      <trkpt lat="45.98333" lon="4.5599">
        <ele>637.898</ele>
        <time>2018-06-07T11:15:22Z</time>
      </trkpt>
      <trkpt lat="45.98328" lon="4.55986">
        <ele>637.91</ele>
        <time>2018-06-07T11:15:27Z</time>
      </trkpt>
      <trkpt lat="45.98321" lon="4.55983">
        <ele>637.74</ele>
        <time>2018-06-07T11:15:32Z</time>
      </trkpt>
      <trkpt lat="45.98317" lon="4.5598">
        <ele>637.595</ele>
        <time>2018-06-07T11:15:38Z</time>
      </trkpt>
      <trkpt lat="45.98308" lon="4.55975">
        <ele>637.511</ele>
        <time>2018-06-07T11:15:44Z</time>
      </trkpt>
      <trkpt lat="45.983" lon="4.55972">
        <ele>637.371</ele>
        <time>2018-06-07T11:15:49Z</time>
      </trkpt>
      <trkpt lat="45.98295" lon="4.5597">
        <ele>637.423</ele>
        <time>2018-06-07T11:15:54Z</time>
      </trkpt>
      <trkpt lat="45.98289" lon="4.55969">
        <ele>637.406</ele>
        <time>2018-06-07T11:15:59Z</time>
      </trkpt>
      <trkpt lat="45.98284" lon="4.55967">
        <ele>637.444</ele>
        <time>2018-06-07T11:16:05Z</time>
      </trkpt>
      <trkpt lat="45.98278" lon="4.55965">
        <ele>637.553</ele>
        <time>2018-06-07T11:16:10Z</time>
      </trkpt>
      <trkpt lat="45.98273" lon="4.55961">
        <ele>637.795</ele>
        <time>2018-06-07T11:16:15Z</time>
      </trkpt>
      <trkpt lat="45.98269" lon="4.55958">
        <ele>638.072</ele>
        <time>2018-06-07T11:16:21Z</time>
      </trkpt>
      <trkpt lat="45.9826" lon="4.55958">
        <ele>638.377</ele>
        <time>2018-06-07T11:16:27Z</time>
      </trkpt>
      <trkpt lat="45.9825" lon="4.55958">
        <ele>638.311</ele>
        <time>2018-06-07T11:16:32Z</time>
      </trkpt>
      <trkpt lat="45.9824" lon="4.55957">
        <ele>638.257</ele>
        <time>2018-06-07T11:16:38Z</time>
      </trkpt>
      <trkpt lat="45.98234" lon="4.55951">
        <ele>638.331</ele>
        <time>2018-06-07T11:16:44Z</time>
      </trkpt>
      <trkpt lat="45.9823" lon="4.55949">
        <ele>638.119</ele>
        <time>2018-06-07T11:16:50Z</time>
      </trkpt>
      <trkpt lat="45.98224" lon="4.55947">
        <ele>637.963</ele>
        <time>2018-06-07T11:16:56Z</time>
      </trkpt>
      <trkpt lat="45.98219" lon="4.55945">
        <ele>637.998</ele>
        <time>2018-06-07T11:17:02Z</time>
      </trkpt>
      <trkpt lat="45.98214" lon="4.55943">
        <ele>638.026</ele>
        <time>2018-06-07T11:17:07Z</time>
      </trkpt>
      <trkpt lat="45.98208" lon="4.55942">
        <ele>638.406</ele>
        <time>2018-06-07T11:17:13Z</time>
      </trkpt>
      <trkpt lat="45.98203" lon="4.55943">
        <ele>639</ele>
        <time>2018-06-07T11:17:19Z</time>
      </trkpt>
      <trkpt lat="45.98197" lon="4.55941">
        <ele>639.24</ele>
        <time>2018-06-07T11:17:25Z</time>
      </trkpt>
      <trkpt lat="45.98187" lon="4.55939">
        <ele>639.842</ele>
        <time>2018-06-07T11:17:31Z</time>
      </trkpt>
      <trkpt lat="45.98178" lon="4.55938">
        <ele>640.275</ele>
        <time>2018-06-07T11:17:37Z</time>
      </trkpt>
      <trkpt lat="45.98171" lon="4.55937">
        <ele>640.597</ele>
        <time>2018-06-07T11:17:43Z</time>
      </trkpt>
      <trkpt lat="45.98163" lon="4.55933">
        <ele>641.001</ele>
        <time>2018-06-07T11:17:48Z</time>
      </trkpt>
      <trkpt lat="45.98157" lon="4.55935">
        <ele>641.496</ele>
        <time>2018-06-07T11:17:54Z</time>
      </trkpt>
      <trkpt lat="45.98149" lon="4.55938">
        <ele>641.66</ele>
        <time>2018-06-07T11:18:00Z</time>
      </trkpt>
      <trkpt lat="45.98141" lon="4.5594">
        <ele>641.719</ele>
        <time>2018-06-07T11:18:06Z</time>
      </trkpt>
      <trkpt lat="45.98136" lon="4.5594">
        <ele>641.584</ele>
        <time>2018-06-07T11:18:12Z</time>
      </trkpt>
      <trkpt lat="45.98128" lon="4.55941">
        <ele>641.405</ele>
        <time>2018-06-07T11:18:17Z</time>
      </trkpt>
      <trkpt lat="45.98122" lon="4.55943">
        <ele>640.812</ele>
        <time>2018-06-07T11:18:23Z</time>
      </trkpt>
      <trkpt lat="45.98119" lon="4.55945">
        <ele>640.545</ele>
        <time>2018-06-07T11:18:28Z</time>
      </trkpt>
      <trkpt lat="45.98113" lon="4.55949">
        <ele>640.56</ele>
        <time>2018-06-07T11:18:33Z</time>
      </trkpt>
      <trkpt lat="45.98109" lon="4.55953">
        <ele>640.356</ele>
        <time>2018-06-07T11:18:39Z</time>
      </trkpt>
      <trkpt lat="45.98104" lon="4.55958">
        <ele>640.118</ele>
        <time>2018-06-07T11:18:45Z</time>
      </trkpt>
      <trkpt lat="45.98095" lon="4.55964">
        <ele>640.372</ele>
        <time>2018-06-07T11:18:51Z</time>
      </trkpt>
      <trkpt lat="45.98088" lon="4.55968">
        <ele>640.557</ele>
        <time>2018-06-07T11:18:56Z</time>
      </trkpt>
      <trkpt lat="45.98083" lon="4.55974">
        <ele>640.521</ele>
        <time>2018-06-07T11:19:02Z</time>
      </trkpt>
      <trkpt lat="45.98076" lon="4.55983">
        <ele>640.277</ele>
        <time>2018-06-07T11:19:08Z</time>
      </trkpt>
      <trkpt lat="45.98072" lon="4.5599">
        <ele>639.939</ele>
        <time>2018-06-07T11:19:14Z</time>
      </trkpt>
      <trkpt lat="45.98067" lon="4.55997">
        <ele>639.801</ele>
        <time>2018-06-07T11:19:20Z</time>
      </trkpt>
      <trkpt lat="45.98061" lon="4.56004">
        <ele>639.522</ele>
        <time>2018-06-07T11:19:26Z</time>
      </trkpt>
      <trkpt lat="45.98057" lon="4.56011">
        <ele>639.417</ele>
        <time>2018-06-07T11:19:32Z</time>
      </trkpt>
      <trkpt lat="45.98052" lon="4.56019">
        <ele>639.052</ele>
        <time>2018-06-07T11:19:38Z</time>
      </trkpt>
      <trkpt lat="45.98046" lon="4.56029">
        <ele>638.794</ele>
        <time>2018-06-07T11:19:44Z</time>
      </trkpt>
      <trkpt lat="45.98043" lon="4.56035">
        <ele>638.654</ele>
        <time>2018-06-07T11:19:50Z</time>
      </trkpt>
      <trkpt lat="45.98041" lon="4.56037">
        <ele>638.519</ele>
        <time>2018-06-07T11:19:56Z</time>
      </trkpt>
      <trkpt lat="45.98039" lon="4.56047">
        <ele>638.323</ele>
        <time>2018-06-07T11:20:02Z</time>
      </trkpt>
      <trkpt lat="45.98037" lon="4.56054">
        <ele>638.201</ele>
        <time>2018-06-07T11:20:07Z</time>
      </trkpt>
      <trkpt lat="45.98035" lon="4.56065">
        <ele>637.973</ele>
        <time>2018-06-07T11:20:13Z</time>
      </trkpt>
      <trkpt lat="45.98032" lon="4.56074">
        <ele>637.815</ele>
        <time>2018-06-07T11:20:18Z</time>
      </trkpt>
      <trkpt lat="45.98032" lon="4.56086">
        <ele>637.616</ele>
        <time>2018-06-07T11:20:24Z</time>
      </trkpt>
      <trkpt lat="45.98033" lon="4.56095">
        <ele>637.568</ele>
        <time>2018-06-07T11:20:30Z</time>
      </trkpt>
      <trkpt lat="45.98033" lon="4.56102">
        <ele>637.188</ele>
        <time>2018-06-07T11:20:35Z</time>
      </trkpt>
      <trkpt lat="45.98036" lon="4.56109">
        <ele>636.835</ele>
        <time>2018-06-07T11:20:40Z</time>
      </trkpt>
      <trkpt lat="45.98033" lon="4.5612">
        <ele>636.274</ele>
        <time>2018-06-07T11:20:46Z</time>
      </trkpt>
      <trkpt lat="45.9803" lon="4.56125">
        <ele>636.067</ele>
        <time>2018-06-07T11:20:51Z</time>
      </trkpt>
      <trkpt lat="45.98025" lon="4.56134">
        <ele>635.89</ele>
        <time>2018-06-07T11:20:57Z</time>
      </trkpt>
      <trkpt lat="45.98023" lon="4.56142">
        <ele>635.644</ele>
        <time>2018-06-07T11:21:03Z</time>
      </trkpt>
      <trkpt lat="45.98022" lon="4.5615">
        <ele>635.566</ele>
        <time>2018-06-07T11:21:08Z</time>
      </trkpt>
      <trkpt lat="45.98017" lon="4.56158">
        <ele>635.272</ele>
        <time>2018-06-07T11:21:14Z</time>
      </trkpt>
      <trkpt lat="45.98009" lon="4.56162">
        <ele>634.932</ele>
        <time>2018-06-07T11:21:20Z</time>
      </trkpt>
      <trkpt lat="45.97999" lon="4.5617">
        <ele>634.795</ele>
        <time>2018-06-07T11:21:26Z</time>
      </trkpt>
      <trkpt lat="45.97997" lon="4.56177">
        <ele>634.398</ele>
        <time>2018-06-07T11:21:32Z</time>
      </trkpt>
      <trkpt lat="45.97992" lon="4.56184">
        <ele>633.847</ele>
        <time>2018-06-07T11:21:38Z</time>
      </trkpt>
      <trkpt lat="45.97985" lon="4.56193">
        <ele>633.266</ele>
        <time>2018-06-07T11:21:43Z</time>
      </trkpt>
      <trkpt lat="45.9798" lon="4.56199">
        <ele>632.765</ele>
        <time>2018-06-07T11:21:48Z</time>
      </trkpt>
      <trkpt lat="45.9797" lon="4.56202">
        <ele>632.08</ele>
        <time>2018-06-07T11:21:54Z</time>
      </trkpt>
      <trkpt lat="45.97961" lon="4.56204">
        <ele>631.164</ele>
        <time>2018-06-07T11:22:00Z</time>
      </trkpt>
      <trkpt lat="45.97956" lon="4.56205">
        <ele>630.202</ele>
        <time>2018-06-07T11:22:05Z</time>
      </trkpt>
      <trkpt lat="45.9795" lon="4.56204">
        <ele>629.324</ele>
        <time>2018-06-07T11:22:11Z</time>
      </trkpt>
      <trkpt lat="45.97946" lon="4.56203">
        <ele>628.797</ele>
        <time>2018-06-07T11:22:17Z</time>
      </trkpt>
      <trkpt lat="45.97941" lon="4.56205">
        <ele>628.38</ele>
        <time>2018-06-07T11:22:22Z</time>
      </trkpt>
      <trkpt lat="45.97935" lon="4.56205">
        <ele>627.884</ele>
        <time>2018-06-07T11:22:27Z</time>
      </trkpt>
      <trkpt lat="45.97931" lon="4.56206">
        <ele>627.886</ele>
        <time>2018-06-07T11:22:33Z</time>
      </trkpt>
      <trkpt lat="45.97926" lon="4.56208">
        <ele>627.824</ele>
        <time>2018-06-07T11:22:38Z</time>
      </trkpt>
      <trkpt lat="45.9792" lon="4.56212">
        <ele>627.113</ele>
        <time>2018-06-07T11:22:44Z</time>
      </trkpt>
      <trkpt lat="45.97916" lon="4.56215">
        <ele>626.717</ele>
        <time>2018-06-07T11:22:50Z</time>
      </trkpt>
      <trkpt lat="45.97913" lon="4.56218">
        <ele>626.51</ele>
        <time>2018-06-07T11:22:56Z</time>
      </trkpt>
      <trkpt lat="45.97911" lon="4.56221">
        <ele>624.938</ele>
        <time>2018-06-07T11:23:02Z</time>
      </trkpt>
      <trkpt lat="45.97904" lon="4.56227">
        <ele>624.161</ele>
        <time>2018-06-07T11:23:08Z</time>
      </trkpt>
      <trkpt lat="45.97901" lon="4.56231">
        <ele>624.114</ele>
        <time>2018-06-07T11:23:13Z</time>
      </trkpt>
      <trkpt lat="45.97895" lon="4.56234">
        <ele>624.53</ele>
        <time>2018-06-07T11:23:19Z</time>
      </trkpt>
      <trkpt lat="45.9789" lon="4.56238">
        <ele>624.853</ele>
        <time>2018-06-07T11:23:24Z</time>
      </trkpt>
      <trkpt lat="45.97885" lon="4.56243">
        <ele>625.251</ele>
        <time>2018-06-07T11:23:30Z</time>
      </trkpt>
      <trkpt lat="45.97881" lon="4.56253">
        <ele>625.233</ele>
        <time>2018-06-07T11:23:36Z</time>
      </trkpt>
      <trkpt lat="45.97878" lon="4.56259">
        <ele>625.075</ele>
        <time>2018-06-07T11:23:42Z</time>
      </trkpt>
      <trkpt lat="45.97874" lon="4.56264">
        <ele>625.167</ele>
        <time>2018-06-07T11:23:48Z</time>
      </trkpt>
      <trkpt lat="45.97869" lon="4.5627">
        <ele>625.449</ele>
        <time>2018-06-07T11:23:54Z</time>
      </trkpt>
      <trkpt lat="45.97863" lon="4.56275">
        <ele>625.869</ele>
        <time>2018-06-07T11:24:00Z</time>
      </trkpt>
      <trkpt lat="45.97858" lon="4.56282">
        <ele>626.256</ele>
        <time>2018-06-07T11:24:06Z</time>
      </trkpt>
      <trkpt lat="45.97853" lon="4.56289">
        <ele>626.941</ele>
        <time>2018-06-07T11:24:12Z</time>
      </trkpt>
      <trkpt lat="45.97848" lon="4.56294">
        <ele>627.359</ele>
        <time>2018-06-07T11:24:17Z</time>
      </trkpt>
      <trkpt lat="45.97843" lon="4.56299">
        <ele>627.853</ele>
        <time>2018-06-07T11:24:23Z</time>
      </trkpt>
      <trkpt lat="45.97839" lon="4.56302">
        <ele>628.621</ele>
        <time>2018-06-07T11:24:29Z</time>
      </trkpt>
      <trkpt lat="45.97834" lon="4.56309">
        <ele>629.031</ele>
        <time>2018-06-07T11:24:35Z</time>
      </trkpt>
      <trkpt lat="45.97829" lon="4.56314">
        <ele>629.561</ele>
        <time>2018-06-07T11:24:41Z</time>
      </trkpt>
      <trkpt lat="45.97822" lon="4.56316">
        <ele>630.215</ele>
        <time>2018-06-07T11:24:47Z</time>
      </trkpt>
      <trkpt lat="45.97815" lon="4.56319">
        <ele>630.627</ele>
        <time>2018-06-07T11:24:53Z</time>
      </trkpt>
      <trkpt lat="45.97809" lon="4.56321">
        <ele>631.007</ele>
        <time>2018-06-07T11:24:58Z</time>
      </trkpt>
      <trkpt lat="45.97803" lon="4.56324">
        <ele>631.491</ele>
        <time>2018-06-07T11:25:04Z</time>
      </trkpt>
      <trkpt lat="45.97797" lon="4.56326">
        <ele>632.144</ele>
        <time>2018-06-07T11:25:10Z</time>
      </trkpt>
      <trkpt lat="45.97795" lon="4.56325">
        <ele>632.719</ele>
        <time>2018-06-07T11:25:15Z</time>
      </trkpt>
      <trkpt lat="45.97788" lon="4.56326">
        <ele>633.374</ele>
        <time>2018-06-07T11:25:21Z</time>
      </trkpt>
      <trkpt lat="45.9778" lon="4.56329">
        <ele>633.903</ele>
        <time>2018-06-07T11:25:27Z</time>
      </trkpt>
      <trkpt lat="45.97771" lon="4.56329">
        <ele>634.151</ele>
        <time>2018-06-07T11:25:32Z</time>
      </trkpt>
      <trkpt lat="45.97763" lon="4.56327">
        <ele>634.092</ele>
        <time>2018-06-07T11:25:38Z</time>
      </trkpt>
      <trkpt lat="45.97758" lon="4.56326">
        <ele>634.039</ele>
        <time>2018-06-07T11:25:43Z</time>
      </trkpt>
      <trkpt lat="45.97751" lon="4.56322">
        <ele>633.832</ele>
        <time>2018-06-07T11:25:48Z</time>
      </trkpt>
      <trkpt lat="45.97745" lon="4.5632">
        <ele>633.503</ele>
        <time>2018-06-07T11:25:54Z</time>
      </trkpt>
      <trkpt lat="45.97738" lon="4.56317">
        <ele>633.025</ele>
        <time>2018-06-07T11:26:00Z</time>
      </trkpt>
      <trkpt lat="45.97732" lon="4.56312">
        <ele>632.446</ele>
        <time>2018-06-07T11:26:06Z</time>
      </trkpt>
      <trkpt lat="45.97724" lon="4.56312">
        <ele>631.792</ele>
        <time>2018-06-07T11:26:12Z</time>
      </trkpt>
      <trkpt lat="45.97719" lon="4.56309">
        <ele>631.345</ele>
        <time>2018-06-07T11:26:17Z</time>
      </trkpt>
      <trkpt lat="45.97713" lon="4.56304">
        <ele>630.739</ele>
        <time>2018-06-07T11:26:23Z</time>
      </trkpt>
      <trkpt lat="45.97708" lon="4.56299">
        <ele>630.342</ele>
        <time>2018-06-07T11:26:29Z</time>
      </trkpt>
      <trkpt lat="45.97704" lon="4.56294">
        <ele>630.483</ele>
        <time>2018-06-07T11:26:35Z</time>
      </trkpt>
      <trkpt lat="45.97698" lon="4.5629">
        <ele>630.791</ele>
        <time>2018-06-07T11:26:40Z</time>
      </trkpt>
      <trkpt lat="45.97694" lon="4.56287">
        <ele>630.908</ele>
        <time>2018-06-07T11:26:45Z</time>
      </trkpt>
      <trkpt lat="45.9769" lon="4.56282">
        <ele>630.827</ele>
        <time>2018-06-07T11:26:50Z</time>
      </trkpt>
      <trkpt lat="45.97684" lon="4.56277">
        <ele>630.541</ele>
        <time>2018-06-07T11:26:56Z</time>
      </trkpt>
      <trkpt lat="45.97677" lon="4.56274">
        <ele>630.447</ele>
        <time>2018-06-07T11:27:02Z</time>
      </trkpt>
      <trkpt lat="45.9767" lon="4.5627">
        <ele>630.708</ele>
        <time>2018-06-07T11:27:08Z</time>
      </trkpt>
      <trkpt lat="45.97662" lon="4.5627">
        <ele>630.852</ele>
        <time>2018-06-07T11:27:14Z</time>
      </trkpt>
      <trkpt lat="45.97655" lon="4.56267">
        <ele>630.845</ele>
        <time>2018-06-07T11:27:20Z</time>
      </trkpt>
      <trkpt lat="45.97648" lon="4.56266">
        <ele>630.837</ele>
        <time>2018-06-07T11:27:26Z</time>
      </trkpt>
      <trkpt lat="45.97639" lon="4.56262">
        <ele>630.642</ele>
        <time>2018-06-07T11:27:32Z</time>
      </trkpt>
      <trkpt lat="45.97632" lon="4.56263">
        <ele>630.687</ele>
        <time>2018-06-07T11:27:38Z</time>
      </trkpt>
      <trkpt lat="45.97625" lon="4.56263">
        <ele>630.651</ele>
        <time>2018-06-07T11:27:44Z</time>
      </trkpt>
      <trkpt lat="45.9762" lon="4.56262">
        <ele>630.685</ele>
        <time>2018-06-07T11:27:50Z</time>
      </trkpt>
      <trkpt lat="45.97614" lon="4.56265">
        <ele>630.748</ele>
        <time>2018-06-07T11:27:55Z</time>
      </trkpt>
      <trkpt lat="45.97609" lon="4.56267">
        <ele>630.696</ele>
        <time>2018-06-07T11:28:00Z</time>
      </trkpt>
      <trkpt lat="45.97602" lon="4.56271">
        <ele>630.653</ele>
        <time>2018-06-07T11:28:06Z</time>
      </trkpt>
      <trkpt lat="45.97596" lon="4.56274">
        <ele>630.69</ele>
        <time>2018-06-07T11:28:12Z</time>
      </trkpt>
      <trkpt lat="45.9759" lon="4.56275">
        <ele>630.512</ele>
        <time>2018-06-07T11:28:18Z</time>
      </trkpt>
      <trkpt lat="45.97585" lon="4.56278">
        <ele>630.447</ele>
        <time>2018-06-07T11:28:24Z</time>
      </trkpt>
      <trkpt lat="45.97578" lon="4.56282">
        <ele>630.435</ele>
        <time>2018-06-07T11:28:30Z</time>
      </trkpt>
      <trkpt lat="45.97574" lon="4.56284">
        <ele>630.365</ele>
        <time>2018-06-07T11:28:35Z</time>
      </trkpt>
      <trkpt lat="45.97568" lon="4.56287">
        <ele>629.949</ele>
        <time>2018-06-07T11:28:41Z</time>
      </trkpt>
      <trkpt lat="45.9756" lon="4.56292">
        <ele>629.516</ele>
        <time>2018-06-07T11:28:47Z</time>
      </trkpt>
      <trkpt lat="45.97555" lon="4.56295">
        <ele>629.226</ele>
        <time>2018-06-07T11:28:53Z</time>
      </trkpt>
      <trkpt lat="45.97552" lon="4.56295">
        <ele>629.058</ele>
        <time>2018-06-07T11:28:58Z</time>
      </trkpt>
      <trkpt lat="45.97551" lon="4.56296">
        <ele>629.027</ele>
        <time>2018-06-07T11:29:03Z</time>
      </trkpt>
      <trkpt lat="45.97551" lon="4.56297">
        <ele>628.779</ele>
        <time>2018-06-07T11:29:09Z</time>
      </trkpt>
      <trkpt lat="45.97551" lon="4.56298">
        <ele>628.276</ele>
        <time>2018-06-07T11:29:14Z</time>
      </trkpt>
      <trkpt lat="45.97551" lon="4.56297">
        <ele>627.839</ele>
        <time>2018-06-07T11:29:19Z</time>
      </trkpt>
      <trkpt lat="45.97551" lon="4.56296">
        <ele>627.185</ele>
        <time>2018-06-07T11:29:24Z</time>
      </trkpt>
      <trkpt lat="45.97549" lon="4.56296">
        <ele>627.047</ele>
        <time>2018-06-07T11:29:30Z</time>
      </trkpt>
      <trkpt lat="45.97547" lon="4.56294">
        <ele>627.093</ele>
        <time>2018-06-07T11:29:36Z</time>
      </trkpt>
      <trkpt lat="45.97545" lon="4.56292">
        <ele>627.389</ele>
        <time>2018-06-07T11:29:42Z</time>
      </trkpt>
      <trkpt lat="45.97544" lon="4.56291">
        <ele>627.824</ele>
        <time>2018-06-07T11:29:47Z</time>
      </trkpt>
      <trkpt lat="45.97542" lon="4.56292">
        <ele>627.99</ele>
        <time>2018-06-07T11:29:52Z</time>
      </trkpt>
      <trkpt lat="45.97543" lon="4.56294">
        <ele>628.779</ele>
        <time>2018-06-07T11:29:58Z</time>
      </trkpt>
      <trkpt lat="45.97543" lon="4.56295">
        <ele>629.365</ele>
        <time>2018-06-07T11:30:03Z</time>
      </trkpt>
      <trkpt lat="45.97543" lon="4.56294">
        <ele>629.553</ele>
        <time>2018-06-07T11:30:09Z</time>
      </trkpt>
      <trkpt lat="45.97543" lon="4.56296">
        <ele>629.786</ele>
        <time>2018-06-07T11:30:15Z</time>
      </trkpt>
      <trkpt lat="45.97543" lon="4.563">
        <ele>629.795</ele>
        <time>2018-06-07T11:30:20Z</time>
      </trkpt>
      <trkpt lat="45.97543" lon="4.56303">
        <ele>630.069</ele>
        <time>2018-06-07T11:30:26Z</time>
      </trkpt>
      <trkpt lat="45.97543" lon="4.56303">
        <ele>629.983</ele>
        <time>2018-06-07T11:30:32Z</time>
      </trkpt>
      <trkpt lat="45.97543" lon="4.56303">
        <ele>629.195</ele>
        <time>2018-06-07T11:30:38Z</time>
      </trkpt>
      <trkpt lat="45.97544" lon="4.56301">
        <ele>628.585</ele>
        <time>2018-06-07T11:30:44Z</time>
      </trkpt>
      <trkpt lat="45.97544" lon="4.56301">
        <ele>628.668</ele>
        <time>2018-06-07T11:30:49Z</time>
      </trkpt>
      <trkpt lat="45.97546" lon="4.56297">
        <ele>628.458</ele>
        <time>2018-06-07T11:30:55Z</time>
      </trkpt>
      <trkpt lat="45.97546" lon="4.56297">
        <ele>628.425</ele>
        <time>2018-06-07T11:31:01Z</time>
      </trkpt>
      <trkpt lat="45.97544" lon="4.56297">
        <ele>628.251</ele>
        <time>2018-06-07T11:31:07Z</time>
      </trkpt>
      <trkpt lat="45.97539" lon="4.56294">
        <ele>628.17</ele>
        <time>2018-06-07T11:31:13Z</time>
      </trkpt>
      <trkpt lat="45.97536" lon="4.56295">
        <ele>628.161</ele>
        <time>2018-06-07T11:31:18Z</time>
      </trkpt>
      <trkpt lat="45.97533" lon="4.56296">
        <ele>628.219</ele>
        <time>2018-06-07T11:31:24Z</time>
      </trkpt>
      <trkpt lat="45.97532" lon="4.56296">
        <ele>628.325</ele>
        <time>2018-06-07T11:31:30Z</time>
      </trkpt>
      <trkpt lat="45.97532" lon="4.56296">
        <ele>628.308</ele>
        <time>2018-06-07T11:31:35Z</time>
      </trkpt>
      <trkpt lat="45.97531" lon="4.56298">
        <ele>628.311</ele>
        <time>2018-06-07T11:31:41Z</time>
      </trkpt>
      <trkpt lat="45.97525" lon="4.56305">
        <ele>628.439</ele>
        <time>2018-06-07T11:31:47Z</time>
      </trkpt>
      <trkpt lat="45.97524" lon="4.56306">
        <ele>628.468</ele>
        <time>2018-06-07T11:31:53Z</time>
      </trkpt>
      <trkpt lat="45.97512" lon="4.56312">
        <ele>628.593</ele>
        <time>2018-06-07T11:31:58Z</time>
      </trkpt>
      <trkpt lat="45.97506" lon="4.56313">
        <ele>628.937</ele>
        <time>2018-06-07T11:32:04Z</time>
      </trkpt>
      <trkpt lat="45.97501" lon="4.56317">
        <ele>628.669</ele>
        <time>2018-06-07T11:32:10Z</time>
      </trkpt>
      <trkpt lat="45.97494" lon="4.56322">
        <ele>627.901</ele>
        <time>2018-06-07T11:32:16Z</time>
      </trkpt>
      <trkpt lat="45.97487" lon="4.56326">
        <ele>627.548</ele>
        <time>2018-06-07T11:32:21Z</time>
      </trkpt>
      <trkpt lat="45.97481" lon="4.56327">
        <ele>627.391</ele>
        <time>2018-06-07T11:32:26Z</time>
      </trkpt>
      <trkpt lat="45.97474" lon="4.56328">
        <ele>627.237</ele>
        <time>2018-06-07T11:32:32Z</time>
      </trkpt>
      <trkpt lat="45.97469" lon="4.5633">
        <ele>627.026</ele>
        <time>2018-06-07T11:32:38Z</time>
      </trkpt>
      <trkpt lat="45.97461" lon="4.56331">
        <ele>627.275</ele>
        <time>2018-06-07T11:32:44Z</time>
      </trkpt>
      <trkpt lat="45.97451" lon="4.56338">
        <ele>627.355</ele>
        <time>2018-06-07T11:32:49Z</time>
      </trkpt>
      <trkpt lat="45.97446" lon="4.56339">
        <ele>627.26</ele>
        <time>2018-06-07T11:32:55Z</time>
      </trkpt>
      <trkpt lat="45.97441" lon="4.56341">
        <ele>627.368</ele>
        <time>2018-06-07T11:33:00Z</time>
      </trkpt>
      <trkpt lat="45.97434" lon="4.56343">
        <ele>628.086</ele>
        <time>2018-06-07T11:33:06Z</time>
      </trkpt>
      <trkpt lat="45.97429" lon="4.56341">
        <ele>628.355</ele>
        <time>2018-06-07T11:33:11Z</time>
      </trkpt>
      <trkpt lat="45.97423" lon="4.56338">
        <ele>628.014</ele>
        <time>2018-06-07T11:33:17Z</time>
      </trkpt>
      <trkpt lat="45.97415" lon="4.56337">
        <ele>627.7</ele>
        <time>2018-06-07T11:33:23Z</time>
      </trkpt>
      <trkpt lat="45.97407" lon="4.56337">
        <ele>627.951</ele>
        <time>2018-06-07T11:33:29Z</time>
      </trkpt>
      <trkpt lat="45.97401" lon="4.56339">
        <ele>628.018</ele>
        <time>2018-06-07T11:33:34Z</time>
      </trkpt>
      <trkpt lat="45.97393" lon="4.5634">
        <ele>628.4</ele>
        <time>2018-06-07T11:33:40Z</time>
      </trkpt>
      <trkpt lat="45.97386" lon="4.56342">
        <ele>628.677</ele>
        <time>2018-06-07T11:33:46Z</time>
      </trkpt>
      <trkpt lat="45.97377" lon="4.56345">
        <ele>628.82</ele>
        <time>2018-06-07T11:33:52Z</time>
      </trkpt>
      <trkpt lat="45.97372" lon="4.56345">
        <ele>628.901</ele>
        <time>2018-06-07T11:33:57Z</time>
      </trkpt>
      <trkpt lat="45.97366" lon="4.56347">
        <ele>628.595</ele>
        <time>2018-06-07T11:34:02Z</time>
      </trkpt>
      <trkpt lat="45.97359" lon="4.56351">
        <ele>628.412</ele>
        <time>2018-06-07T11:34:08Z</time>
      </trkpt>
      <trkpt lat="45.97353" lon="4.56354">
        <ele>628.098</ele>
        <time>2018-06-07T11:34:13Z</time>
      </trkpt>
      <trkpt lat="45.97345" lon="4.56356">
        <ele>627.848</ele>
        <time>2018-06-07T11:34:19Z</time>
      </trkpt>
      <trkpt lat="45.97339" lon="4.56359">
        <ele>627.734</ele>
        <time>2018-06-07T11:34:24Z</time>
      </trkpt>
      <trkpt lat="45.97331" lon="4.56361">
        <ele>627.056</ele>
        <time>2018-06-07T11:34:30Z</time>
      </trkpt>
      <trkpt lat="45.97325" lon="4.56363">
        <ele>626.678</ele>
        <time>2018-06-07T11:34:35Z</time>
      </trkpt>
      <trkpt lat="45.97318" lon="4.56369">
        <ele>626.008</ele>
        <time>2018-06-07T11:34:41Z</time>
      </trkpt>
      <trkpt lat="45.97312" lon="4.56374">
        <ele>625.608</ele>
        <time>2018-06-07T11:34:46Z</time>
      </trkpt>
      <trkpt lat="45.97305" lon="4.56379">
        <ele>625.123</ele>
        <time>2018-06-07T11:34:52Z</time>
      </trkpt>
      <trkpt lat="45.97299" lon="4.56382">
        <ele>624.512</ele>
        <time>2018-06-07T11:34:57Z</time>
      </trkpt>
      <trkpt lat="45.97293" lon="4.56383">
        <ele>623.926</ele>
        <time>2018-06-07T11:35:03Z</time>
      </trkpt>
      <trkpt lat="45.97286" lon="4.56388">
        <ele>623.3</ele>
        <time>2018-06-07T11:35:09Z</time>
      </trkpt>
      <trkpt lat="45.97279" lon="4.56393">
        <ele>622.898</ele>
        <time>2018-06-07T11:35:15Z</time>
      </trkpt>
      <trkpt lat="45.97272" lon="4.56396">
        <ele>622.431</ele>
        <time>2018-06-07T11:35:20Z</time>
      </trkpt>
      <trkpt lat="45.97265" lon="4.56401">
        <ele>621.907</ele>
        <time>2018-06-07T11:35:26Z</time>
      </trkpt>
      <trkpt lat="45.97257" lon="4.56404">
        <ele>621.356</ele>
        <time>2018-06-07T11:35:31Z</time>
      </trkpt>
      <trkpt lat="45.9725" lon="4.56408">
        <ele>620.987</ele>
        <time>2018-06-07T11:35:37Z</time>
      </trkpt>
      <trkpt lat="45.97244" lon="4.56413">
        <ele>620.615</ele>
        <time>2018-06-07T11:35:42Z</time>
      </trkpt>
      <trkpt lat="45.97239" lon="4.56414">
        <ele>620.525</ele>
        <time>2018-06-07T11:35:47Z</time>
      </trkpt>
      <trkpt lat="45.97229" lon="4.56418">
        <ele>619.806</ele>
        <time>2018-06-07T11:35:53Z</time>
      </trkpt>
      <trkpt lat="45.97223" lon="4.56418">
        <ele>619.122</ele>
        <time>2018-06-07T11:35:58Z</time>
      </trkpt>
      <trkpt lat="45.97216" lon="4.56421">
        <ele>618.293</ele>
        <time>2018-06-07T11:36:04Z</time>
      </trkpt>
      <trkpt lat="45.9721" lon="4.56424">
        <ele>617.24</ele>
        <time>2018-06-07T11:36:10Z</time>
      </trkpt>
      <trkpt lat="45.97204" lon="4.56426">
        <ele>616.814</ele>
        <time>2018-06-07T11:36:15Z</time>
      </trkpt>
      <trkpt lat="45.97197" lon="4.5643">
        <ele>616.205</ele>
        <time>2018-06-07T11:36:21Z</time>
      </trkpt>
      <trkpt lat="45.97197" lon="4.56432">
        <ele>615.763</ele>
        <time>2018-06-07T11:36:27Z</time>
      </trkpt>
      <trkpt lat="45.97196" lon="4.56432">
        <ele>615.557</ele>
        <time>2018-06-07T11:36:32Z</time>
      </trkpt>
      <trkpt lat="45.97192" lon="4.56433">
        <ele>615.027</ele>
        <time>2018-06-07T11:36:38Z</time>
      </trkpt>
      <trkpt lat="45.97188" lon="4.56434">
        <ele>614.649</ele>
        <time>2018-06-07T11:36:44Z</time>
      </trkpt>
      <trkpt lat="45.9718" lon="4.56439">
        <ele>614.381</ele>
        <time>2018-06-07T11:36:49Z</time>
      </trkpt>
      <trkpt lat="45.97174" lon="4.56442">
        <ele>613.679</ele>
        <time>2018-06-07T11:36:55Z</time>
      </trkpt>
      <trkpt lat="45.97167" lon="4.56446">
        <ele>613.207</ele>
        <time>2018-06-07T11:37:00Z</time>
      </trkpt>
      <trkpt lat="45.97159" lon="4.56449">
        <ele>613.085</ele>
        <time>2018-06-07T11:37:06Z</time>
      </trkpt>
      <trkpt lat="45.97152" lon="4.5645">
        <ele>612.702</ele>
        <time>2018-06-07T11:37:12Z</time>
      </trkpt>
      <trkpt lat="45.97146" lon="4.56453">
        <ele>612.078</ele>
        <time>2018-06-07T11:37:18Z</time>
      </trkpt>
      <trkpt lat="45.9714" lon="4.56455">
        <ele>611.999</ele>
        <time>2018-06-07T11:37:24Z</time>
      </trkpt>
      <trkpt lat="45.97132" lon="4.56458">
        <ele>611.898</ele>
        <time>2018-06-07T11:37:30Z</time>
      </trkpt>
      <trkpt lat="45.97122" lon="4.5646">
        <ele>611.614</ele>
        <time>2018-06-07T11:37:36Z</time>
      </trkpt>
      <trkpt lat="45.97116" lon="4.5646">
        <ele>611.064</ele>
        <time>2018-06-07T11:37:41Z</time>
      </trkpt>
      <trkpt lat="45.97108" lon="4.56462">
        <ele>610.516</ele>
        <time>2018-06-07T11:37:47Z</time>
      </trkpt>
      <trkpt lat="45.97101" lon="4.56464">
        <ele>610.153</ele>
        <time>2018-06-07T11:37:53Z</time>
      </trkpt>
      <trkpt lat="45.97094" lon="4.56464">
        <ele>609.507</ele>
        <time>2018-06-07T11:37:58Z</time>
      </trkpt>
      <trkpt lat="45.97087" lon="4.56464">
        <ele>609.076</ele>
        <time>2018-06-07T11:38:04Z</time>
      </trkpt>
      <trkpt lat="45.97079" lon="4.56464">
        <ele>608.681</ele>
        <time>2018-06-07T11:38:10Z</time>
      </trkpt>
      <trkpt lat="45.97073" lon="4.56464">
        <ele>608.228</ele>
        <time>2018-06-07T11:38:16Z</time>
      </trkpt>
      <trkpt lat="45.97066" lon="4.56465">
        <ele>607.995</ele>
        <time>2018-06-07T11:38:22Z</time>
      </trkpt>
      <trkpt lat="45.97058" lon="4.56466">
        <ele>607.966</ele>
        <time>2018-06-07T11:38:27Z</time>
      </trkpt>
      <trkpt lat="45.97049" lon="4.56466">
        <ele>607.785</ele>
        <time>2018-06-07T11:38:33Z</time>
      </trkpt>
      <trkpt lat="45.97044" lon="4.56466">
        <ele>607.58</ele>
        <time>2018-06-07T11:38:38Z</time>
      </trkpt>
      <trkpt lat="45.97034" lon="4.56466">
        <ele>607.433</ele>
        <time>2018-06-07T11:38:44Z</time>
      </trkpt>
      <trkpt lat="45.97026" lon="4.56467">
        <ele>607.12</ele>
        <time>2018-06-07T11:38:49Z</time>
      </trkpt>
      <trkpt lat="45.97017" lon="4.56469">
        <ele>606.819</ele>
        <time>2018-06-07T11:38:55Z</time>
      </trkpt>
      <trkpt lat="45.97012" lon="4.56468">
        <ele>606.879</ele>
        <time>2018-06-07T11:39:00Z</time>
      </trkpt>
      <trkpt lat="45.97006" lon="4.56466">
        <ele>607.021</ele>
        <time>2018-06-07T11:39:06Z</time>
      </trkpt>
      <trkpt lat="45.97004" lon="4.56465">
        <ele>607.072</ele>
        <time>2018-06-07T11:39:12Z</time>
      </trkpt>
      <trkpt lat="45.97003" lon="4.56464">
        <ele>607.236</ele>
        <time>2018-06-07T11:39:18Z</time>
      </trkpt>
      <trkpt lat="45.97003" lon="4.56463">
        <ele>607.347</ele>
        <time>2018-06-07T11:39:24Z</time>
      </trkpt>
      <trkpt lat="45.97003" lon="4.56462">
        <ele>607.167</ele>
        <time>2018-06-07T11:39:29Z</time>
      </trkpt>
      <trkpt lat="45.97003" lon="4.56461">
        <ele>606.852</ele>
        <time>2018-06-07T11:39:34Z</time>
      </trkpt>
      <trkpt lat="45.97002" lon="4.56462">
        <ele>606.756</ele>
        <time>2018-06-07T11:39:40Z</time>
      </trkpt>
      <trkpt lat="45.97002" lon="4.56461">
        <ele>606.512</ele>
        <time>2018-06-07T11:39:46Z</time>
      </trkpt>
      <trkpt lat="45.97001" lon="4.56461">
        <ele>606.43</ele>
        <time>2018-06-07T11:39:51Z</time>
      </trkpt>
      <trkpt lat="45.97001" lon="4.56461">
        <ele>606.436</ele>
        <time>2018-06-07T11:39:56Z</time>
      </trkpt>
      <trkpt lat="45.97" lon="4.56461">
        <ele>606.353</ele>
        <time>2018-06-07T11:40:02Z</time>
      </trkpt>
      <trkpt lat="45.97" lon="4.56462">
        <ele>606.377</ele>
        <time>2018-06-07T11:40:08Z</time>
      </trkpt>
      <trkpt lat="45.97" lon="4.56463">
        <ele>606.684</ele>
        <time>2018-06-07T11:40:13Z</time>
      </trkpt>
      <trkpt lat="45.97001" lon="4.56462">
        <ele>606.996</ele>
        <time>2018-06-07T11:40:19Z</time>
      </trkpt>
      <trkpt lat="45.97002" lon="4.56462">
        <ele>606.991</ele>
        <time>2018-06-07T11:40:25Z</time>
      </trkpt>
      <trkpt lat="45.97002" lon="4.56462">
        <ele>607.019</ele>
        <time>2018-06-07T11:40:30Z</time>
      </trkpt>
      <trkpt lat="45.97002" lon="4.56464">
        <ele>607.028</ele>
        <time>2018-06-07T11:40:36Z</time>
      </trkpt>
      <trkpt lat="45.97003" lon="4.56463">
        <ele>607.062</ele>
        <time>2018-06-07T11:40:41Z</time>
      </trkpt>
      <trkpt lat="45.97003" lon="4.56464">
        <ele>607.088</ele>
        <time>2018-06-07T11:40:47Z</time>
      </trkpt>
      <trkpt lat="45.97003" lon="4.56464">
        <ele>607.127</ele>
        <time>2018-06-07T11:40:52Z</time>
      </trkpt>
      <trkpt lat="45.97003" lon="4.56464">
        <ele>607.129</ele>
        <time>2018-06-07T11:40:58Z</time>
      </trkpt>
      <trkpt lat="45.97002" lon="4.56464">
        <ele>607.057</ele>
        <time>2018-06-07T11:41:03Z</time>
      </trkpt>
      <trkpt lat="45.97002" lon="4.56463">
        <ele>606.821</ele>
        <time>2018-06-07T11:41:09Z</time>
      </trkpt>
      <trkpt lat="45.97002" lon="4.56462">
        <ele>606.538</ele>
        <time>2018-06-07T11:41:14Z</time>
      </trkpt>
      <trkpt lat="45.97002" lon="4.56462">
        <ele>606.385</ele>
        <time>2018-06-07T11:41:20Z</time>
      </trkpt>
      <trkpt lat="45.97002" lon="4.56462">
        <ele>606.399</ele>
        <time>2018-06-07T11:41:25Z</time>
      </trkpt>
      <trkpt lat="45.97002" lon="4.56462">
        <ele>606.417</ele>
        <time>2018-06-07T11:41:31Z</time>
      </trkpt>
      <trkpt lat="45.97001" lon="4.56463">
        <ele>606.502</ele>
        <time>2018-06-07T11:41:37Z</time>
      </trkpt>
      <trkpt lat="45.97001" lon="4.56463">
        <ele>606.51</ele>
        <time>2018-06-07T11:41:43Z</time>
      </trkpt>
      <trkpt lat="45.97001" lon="4.56463">
        <ele>606.495</ele>
        <time>2018-06-07T11:41:49Z</time>
      </trkpt>
      <trkpt lat="45.97001" lon="4.56463">
        <ele>606.489</ele>
        <time>2018-06-07T11:41:54Z</time>
      </trkpt>
      <trkpt lat="45.97001" lon="4.56463">
        <ele>606.472</ele>
        <time>2018-06-07T11:42:00Z</time>
      </trkpt>
      <trkpt lat="45.97001" lon="4.56463">
        <ele>606.475</ele>
        <time>2018-06-07T11:42:05Z</time>
      </trkpt>
      <trkpt lat="45.97001" lon="4.56463">
        <ele>606.472</ele>
        <time>2018-06-07T11:42:11Z</time>
      </trkpt>
      <trkpt lat="45.97001" lon="4.56463">
        <ele>606.452</ele>
        <time>2018-06-07T11:42:17Z</time>
      </trkpt>
      <trkpt lat="45.97001" lon="4.56463">
        <ele>606.464</ele>
        <time>2018-06-07T11:42:22Z</time>
      </trkpt>
      <trkpt lat="45.97" lon="4.56464">
        <ele>606.49</ele>
        <time>2018-06-07T11:42:28Z</time>
      </trkpt>
      <trkpt lat="45.97" lon="4.56464">
        <ele>606.54</ele>
        <time>2018-06-07T11:42:33Z</time>
      </trkpt>
      <trkpt lat="45.97" lon="4.56464">
        <ele>606.643</ele>
        <time>2018-06-07T11:42:40Z</time>
      </trkpt>
      <trkpt lat="45.97" lon="4.56464">
        <ele>606.685</ele>
        <time>2018-06-07T11:42:45Z</time>
      </trkpt>
      <trkpt lat="45.97" lon="4.56464">
        <ele>606.696</ele>
        <time>2018-06-07T11:42:50Z</time>
      </trkpt>
      <trkpt lat="45.97001" lon="4.56464">
        <ele>606.74</ele>
        <time>2018-06-07T11:42:56Z</time>
      </trkpt>
      <trkpt lat="45.97001" lon="4.56465">
        <ele>606.765</ele>
        <time>2018-06-07T11:43:01Z</time>
      </trkpt>
      <trkpt lat="45.97001" lon="4.56465">
        <ele>606.793</ele>
        <time>2018-06-07T11:43:07Z</time>
      </trkpt>
      <trkpt lat="45.97001" lon="4.56465">
        <ele>606.832</ele>
        <time>2018-06-07T11:43:12Z</time>
      </trkpt>
      <trkpt lat="45.97001" lon="4.56465">
        <ele>606.944</ele>
        <time>2018-06-07T11:43:17Z</time>
      </trkpt>
      <trkpt lat="45.97001" lon="4.56465">
        <ele>606.994</ele>
        <time>2018-06-07T11:43:23Z</time>
      </trkpt>
      <trkpt lat="45.97001" lon="4.56465">
        <ele>607.108</ele>
        <time>2018-06-07T11:43:29Z</time>
      </trkpt>
      <trkpt lat="45.97001" lon="4.56465">
        <ele>607.272</ele>
        <time>2018-06-07T11:43:34Z</time>
      </trkpt>
      <trkpt lat="45.97002" lon="4.56465">
        <ele>607.444</ele>
        <time>2018-06-07T11:43:40Z</time>
      </trkpt>
      <trkpt lat="45.97002" lon="4.56465">
        <ele>607.504</ele>
        <time>2018-06-07T11:43:46Z</time>
      </trkpt>
      <trkpt lat="45.97002" lon="4.56465">
        <ele>607.452</ele>
        <time>2018-06-07T11:43:52Z</time>
      </trkpt>
      <trkpt lat="45.97002" lon="4.56465">
        <ele>607.406</ele>
        <time>2018-06-07T11:43:58Z</time>
      </trkpt>
      <trkpt lat="45.97002" lon="4.56465">
        <ele>607.327</ele>
        <time>2018-06-07T11:44:04Z</time>
      </trkpt>
      <trkpt lat="45.97002" lon="4.56465">
        <ele>607.33</ele>
        <time>2018-06-07T11:44:10Z</time>
      </trkpt>
      <trkpt lat="45.97002" lon="4.56465">
        <ele>607.322</ele>
        <time>2018-06-07T11:44:15Z</time>
      </trkpt>
      <trkpt lat="45.97002" lon="4.56465">
        <ele>607.312</ele>
        <time>2018-06-07T11:44:20Z</time>
      </trkpt>
      <trkpt lat="45.97002" lon="4.56465">
        <ele>607.311</ele>
        <time>2018-06-07T11:44:26Z</time>
      </trkpt>
      <trkpt lat="45.97002" lon="4.56465">
        <ele>607.289</ele>
        <time>2018-06-07T11:44:31Z</time>
      </trkpt>
      <trkpt lat="45.97002" lon="4.56465">
        <ele>607.277</ele>
        <time>2018-06-07T11:44:37Z</time>
      </trkpt>
      <trkpt lat="45.97002" lon="4.56465">
        <ele>607.295</ele>
        <time>2018-06-07T11:44:43Z</time>
      </trkpt>
      <trkpt lat="45.97002" lon="4.56465">
        <ele>607.28</ele>
        <time>2018-06-07T11:44:49Z</time>
      </trkpt>
      <trkpt lat="45.97002" lon="4.56465">
        <ele>607.269</ele>
        <time>2018-06-07T11:44:55Z</time>
      </trkpt>
      <trkpt lat="45.97002" lon="4.56465">
        <ele>607.253</ele>
        <time>2018-06-07T11:45:00Z</time>
      </trkpt>
      <trkpt lat="45.97002" lon="4.56465">
        <ele>607.24</ele>
        <time>2018-06-07T11:45:06Z</time>
      </trkpt>
      <trkpt lat="45.97002" lon="4.56465">
        <ele>607.204</ele>
        <time>2018-06-07T11:45:12Z</time>
      </trkpt>
      <trkpt lat="45.97002" lon="4.56465">
        <ele>607.2</ele>
        <time>2018-06-07T11:45:17Z</time>
      </trkpt>
      <trkpt lat="45.97002" lon="4.56465">
        <ele>607.045</ele>
        <time>2018-06-07T11:45:23Z</time>
      </trkpt>
      <trkpt lat="45.96997" lon="4.56461">
        <ele>606.622</ele>
        <time>2018-06-07T11:45:29Z</time>
      </trkpt>
      <trkpt lat="45.96992" lon="4.56456">
        <ele>606.585</ele>
        <time>2018-06-07T11:45:35Z</time>
      </trkpt>
      <trkpt lat="45.96987" lon="4.56449">
        <ele>606.903</ele>
        <time>2018-06-07T11:45:41Z</time>
      </trkpt>
      <trkpt lat="45.96981" lon="4.56443">
        <ele>606.953</ele>
        <time>2018-06-07T11:45:46Z</time>
      </trkpt>
      <trkpt lat="45.96975" lon="4.56438">
        <ele>607.159</ele>
        <time>2018-06-07T11:45:52Z</time>
      </trkpt>
      <trkpt lat="45.96972" lon="4.56431">
        <ele>607.107</ele>
        <time>2018-06-07T11:45:57Z</time>
      </trkpt>
      <trkpt lat="45.96972" lon="4.56431">
        <ele>606.966</ele>
        <time>2018-06-07T11:46:02Z</time>
      </trkpt>
      <trkpt lat="45.96968" lon="4.56428">
        <ele>606.46</ele>
        <time>2018-06-07T11:46:08Z</time>
      </trkpt>
      <trkpt lat="45.96964" lon="4.56422">
        <ele>605.795</ele>
        <time>2018-06-07T11:46:14Z</time>
      </trkpt>
      <trkpt lat="45.96957" lon="4.56417">
        <ele>605.267</ele>
        <time>2018-06-07T11:46:20Z</time>
      </trkpt>
      <trkpt lat="45.96952" lon="4.56412">
        <ele>605.12</ele>
        <time>2018-06-07T11:46:25Z</time>
      </trkpt>
      <trkpt lat="45.96945" lon="4.56406">
        <ele>604.571</ele>
        <time>2018-06-07T11:46:31Z</time>
      </trkpt>
      <trkpt lat="45.9694" lon="4.564">
        <ele>604.268</ele>
        <time>2018-06-07T11:46:37Z</time>
      </trkpt>
      <trkpt lat="45.96935" lon="4.56396">
        <ele>604.095</ele>
        <time>2018-06-07T11:46:42Z</time>
      </trkpt>
      <trkpt lat="45.9693" lon="4.5639">
        <ele>603.821</ele>
        <time>2018-06-07T11:46:48Z</time>
      </trkpt>
      <trkpt lat="45.96923" lon="4.56387">
        <ele>603.998</ele>
        <time>2018-06-07T11:46:53Z</time>
      </trkpt>
      <trkpt lat="45.96918" lon="4.56385">
        <ele>604.297</ele>
        <time>2018-06-07T11:46:59Z</time>
      </trkpt>
      <trkpt lat="45.9691" lon="4.56381">
        <ele>604.105</ele>
        <time>2018-06-07T11:47:05Z</time>
      </trkpt>
      <trkpt lat="45.96904" lon="4.56378">
        <ele>604.015</ele>
        <time>2018-06-07T11:47:10Z</time>
      </trkpt>
      <trkpt lat="45.96897" lon="4.56376">
        <ele>603.716</ele>
        <time>2018-06-07T11:47:15Z</time>
      </trkpt>
      <trkpt lat="45.96892" lon="4.56374">
        <ele>603.731</ele>
        <time>2018-06-07T11:47:21Z</time>
      </trkpt>
      <trkpt lat="45.96888" lon="4.56369">
        <ele>603.9</ele>
        <time>2018-06-07T11:47:26Z</time>
      </trkpt>
      <trkpt lat="45.96879" lon="4.56366">
        <ele>603.711</ele>
        <time>2018-06-07T11:47:32Z</time>
      </trkpt>
      <trkpt lat="45.96872" lon="4.56364">
        <ele>603.825</ele>
        <time>2018-06-07T11:47:38Z</time>
      </trkpt>
      <trkpt lat="45.96867" lon="4.56363">
        <ele>603.676</ele>
        <time>2018-06-07T11:47:44Z</time>
      </trkpt>
      <trkpt lat="45.9686" lon="4.56361">
        <ele>603.739</ele>
        <time>2018-06-07T11:47:49Z</time>
      </trkpt>
      <trkpt lat="45.96854" lon="4.56359">
        <ele>603.94</ele>
        <time>2018-06-07T11:47:55Z</time>
      </trkpt>
      <trkpt lat="45.96849" lon="4.56355">
        <ele>603.952</ele>
        <time>2018-06-07T11:48:00Z</time>
      </trkpt>
      <trkpt lat="45.96845" lon="4.56354">
        <ele>604.065</ele>
        <time>2018-06-07T11:48:05Z</time>
      </trkpt>
      <trkpt lat="45.96838" lon="4.56351">
        <ele>604.048</ele>
        <time>2018-06-07T11:48:11Z</time>
      </trkpt>
      <trkpt lat="45.96832" lon="4.56348">
        <ele>604.235</ele>
        <time>2018-06-07T11:48:16Z</time>
      </trkpt>
      <trkpt lat="45.96826" lon="4.56345">
        <ele>604.16</ele>
        <time>2018-06-07T11:48:21Z</time>
      </trkpt>
      <trkpt lat="45.96822" lon="4.56343">
        <ele>604.547</ele>
        <time>2018-06-07T11:48:26Z</time>
      </trkpt>
      <trkpt lat="45.96822" lon="4.56342">
        <ele>604.662</ele>
        <time>2018-06-07T11:48:32Z</time>
      </trkpt>
      <trkpt lat="45.96817" lon="4.56344">
        <ele>604.906</ele>
        <time>2018-06-07T11:48:38Z</time>
      </trkpt>
      <trkpt lat="45.96811" lon="4.56345">
        <ele>604.769</ele>
        <time>2018-06-07T11:48:44Z</time>
      </trkpt>
      <trkpt lat="45.96805" lon="4.56346">
        <ele>605.066</ele>
        <time>2018-06-07T11:48:49Z</time>
      </trkpt>
      <trkpt lat="45.96799" lon="4.56345">
        <ele>605.275</ele>
        <time>2018-06-07T11:48:54Z</time>
      </trkpt>
      <trkpt lat="45.96792" lon="4.56342">
        <ele>605.246</ele>
        <time>2018-06-07T11:49:00Z</time>
      </trkpt>
      <trkpt lat="45.96789" lon="4.56343">
        <ele>605.359</ele>
        <time>2018-06-07T11:49:05Z</time>
      </trkpt>
      <trkpt lat="45.96782" lon="4.56344">
        <ele>605.683</ele>
        <time>2018-06-07T11:49:11Z</time>
      </trkpt>
      <trkpt lat="45.96777" lon="4.56344">
        <ele>605.744</ele>
        <time>2018-06-07T11:49:16Z</time>
      </trkpt>
      <trkpt lat="45.96773" lon="4.56343">
        <ele>605.795</ele>
        <time>2018-06-07T11:49:21Z</time>
      </trkpt>
      <trkpt lat="45.96769" lon="4.56339">
        <ele>605.625</ele>
        <time>2018-06-07T11:49:26Z</time>
      </trkpt>
      <trkpt lat="45.96764" lon="4.56337">
        <ele>605.265</ele>
        <time>2018-06-07T11:49:32Z</time>
      </trkpt>
      <trkpt lat="45.96755" lon="4.56337">
        <ele>605.108</ele>
        <time>2018-06-07T11:49:38Z</time>
      </trkpt>
      <trkpt lat="45.96749" lon="4.56336">
        <ele>605.206</ele>
        <time>2018-06-07T11:49:43Z</time>
      </trkpt>
      <trkpt lat="45.96742" lon="4.56337">
        <ele>605.252</ele>
        <time>2018-06-07T11:49:48Z</time>
      </trkpt>
      <trkpt lat="45.96734" lon="4.5634">
        <ele>605.477</ele>
        <time>2018-06-07T11:49:54Z</time>
      </trkpt>
      <trkpt lat="45.96726" lon="4.56341">
        <ele>605.76</ele>
        <time>2018-06-07T11:50:00Z</time>
      </trkpt>
      <trkpt lat="45.96718" lon="4.56342">
        <ele>605.753</ele>
        <time>2018-06-07T11:50:05Z</time>
      </trkpt>
      <trkpt lat="45.96711" lon="4.56343">
        <ele>605.907</ele>
        <time>2018-06-07T11:50:10Z</time>
      </trkpt>
      <trkpt lat="45.96702" lon="4.56343">
        <ele>606.006</ele>
        <time>2018-06-07T11:50:16Z</time>
      </trkpt>
      <trkpt lat="45.96694" lon="4.56344">
        <ele>606.119</ele>
        <time>2018-06-07T11:50:21Z</time>
      </trkpt>
      <trkpt lat="45.96687" lon="4.56346">
        <ele>606.453</ele>
        <time>2018-06-07T11:50:27Z</time>
      </trkpt>
      <trkpt lat="45.9668" lon="4.56347">
        <ele>606.62</ele>
        <time>2018-06-07T11:50:32Z</time>
      </trkpt>
      <trkpt lat="45.96672" lon="4.56348">
        <ele>606.919</ele>
        <time>2018-06-07T11:50:38Z</time>
      </trkpt>
      <trkpt lat="45.96664" lon="4.56349">
        <ele>607.006</ele>
        <time>2018-06-07T11:50:43Z</time>
      </trkpt>
      <trkpt lat="45.96656" lon="4.56346">
        <ele>607.085</ele>
        <time>2018-06-07T11:50:49Z</time>
      </trkpt>
      <trkpt lat="45.9665" lon="4.56346">
        <ele>607.167</ele>
        <time>2018-06-07T11:50:54Z</time>
      </trkpt>
      <trkpt lat="45.96643" lon="4.56345">
        <ele>607.311</ele>
        <time>2018-06-07T11:51:00Z</time>
      </trkpt>
      <trkpt lat="45.96638" lon="4.56341">
        <ele>607.438</ele>
        <time>2018-06-07T11:51:05Z</time>
      </trkpt>
      <trkpt lat="45.96636" lon="4.56335">
        <ele>607.551</ele>
        <time>2018-06-07T11:51:10Z</time>
      </trkpt>
      <trkpt lat="45.96639" lon="4.56328">
        <ele>607.415</ele>
        <time>2018-06-07T11:51:15Z</time>
      </trkpt>
      <trkpt lat="45.96642" lon="4.56319">
        <ele>607.684</ele>
        <time>2018-06-07T11:51:20Z</time>
      </trkpt>
      <trkpt lat="45.96643" lon="4.56313">
        <ele>608.183</ele>
        <time>2018-06-07T11:51:26Z</time>
      </trkpt>
      <trkpt lat="45.96648" lon="4.56305">
        <ele>608.52</ele>
        <time>2018-06-07T11:51:31Z</time>
      </trkpt>
      <trkpt lat="45.9665" lon="4.56299">
        <ele>608.807</ele>
        <time>2018-06-07T11:51:36Z</time>
      </trkpt>
      <trkpt lat="45.96655" lon="4.56291">
        <ele>609.529</ele>
        <time>2018-06-07T11:51:43Z</time>
      </trkpt>
      <trkpt lat="45.96657" lon="4.5628">
        <ele>609.92</ele>
        <time>2018-06-07T11:51:48Z</time>
      </trkpt>
      <trkpt lat="45.96659" lon="4.56271">
        <ele>610.196</ele>
        <time>2018-06-07T11:51:54Z</time>
      </trkpt>
      <trkpt lat="45.96658" lon="4.56272">
        <ele>610.402</ele>
        <time>2018-06-07T11:51:59Z</time>
      </trkpt>
      <trkpt lat="45.96658" lon="4.56272">
        <ele>610.874</ele>
        <time>2018-06-07T11:52:04Z</time>
      </trkpt>
      <trkpt lat="45.96661" lon="4.56261">
        <ele>611.253</ele>
        <time>2018-06-07T11:52:10Z</time>
      </trkpt>
      <trkpt lat="45.96663" lon="4.56256">
        <ele>611.573</ele>
        <time>2018-06-07T11:52:15Z</time>
      </trkpt>
      <trkpt lat="45.96666" lon="4.5625">
        <ele>612.122</ele>
        <time>2018-06-07T11:52:21Z</time>
      </trkpt>
      <trkpt lat="45.96671" lon="4.56242">
        <ele>612.595</ele>
        <time>2018-06-07T11:52:27Z</time>
      </trkpt>
      <trkpt lat="45.96675" lon="4.56236">
        <ele>612.965</ele>
        <time>2018-06-07T11:52:32Z</time>
      </trkpt>
      <trkpt lat="45.96678" lon="4.56231">
        <ele>613.239</ele>
        <time>2018-06-07T11:52:38Z</time>
      </trkpt>
      <trkpt lat="45.96683" lon="4.56225">
        <ele>613.432</ele>
        <time>2018-06-07T11:52:44Z</time>
      </trkpt>
      <trkpt lat="45.96687" lon="4.56217">
        <ele>613.767</ele>
        <time>2018-06-07T11:52:50Z</time>
      </trkpt>
      <trkpt lat="45.96688" lon="4.56212">
        <ele>613.83</ele>
        <time>2018-06-07T11:52:56Z</time>
      </trkpt>
      <trkpt lat="45.96689" lon="4.56207">
        <ele>614.029</ele>
        <time>2018-06-07T11:53:01Z</time>
      </trkpt>
      <trkpt lat="45.96689" lon="4.56205">
        <ele>614.238</ele>
        <time>2018-06-07T11:53:07Z</time>
      </trkpt>
      <trkpt lat="45.96688" lon="4.56204">
        <ele>614.296</ele>
        <time>2018-06-07T11:53:13Z</time>
      </trkpt>
      <trkpt lat="45.96689" lon="4.56205">
        <ele>614.154</ele>
        <time>2018-06-07T11:53:18Z</time>
      </trkpt>
      <trkpt lat="45.96692" lon="4.56205">
        <ele>614.176</ele>
        <time>2018-06-07T11:53:24Z</time>
      </trkpt>
      <trkpt lat="45.96691" lon="4.56207">
        <ele>614.203</ele>
        <time>2018-06-07T11:53:30Z</time>
      </trkpt>
      <trkpt lat="45.96691" lon="4.56206">
        <ele>614.548</ele>
        <time>2018-06-07T11:53:35Z</time>
      </trkpt>
      <trkpt lat="45.96689" lon="4.56203">
        <ele>614.923</ele>
        <time>2018-06-07T11:53:40Z</time>
      </trkpt>
      <trkpt lat="45.96687" lon="4.56199">
        <ele>615.545</ele>
        <time>2018-06-07T11:53:46Z</time>
      </trkpt>
      <trkpt lat="45.96685" lon="4.56191">
        <ele>615.84</ele>
        <time>2018-06-07T11:53:51Z</time>
      </trkpt>
      <trkpt lat="45.96681" lon="4.56184">
        <ele>616.001</ele>
        <time>2018-06-07T11:53:57Z</time>
      </trkpt>
      <trkpt lat="45.96679" lon="4.56178">
        <ele>616.222</ele>
        <time>2018-06-07T11:54:02Z</time>
      </trkpt>
      <trkpt lat="45.96675" lon="4.56169">
        <ele>616.356</ele>
        <time>2018-06-07T11:54:08Z</time>
      </trkpt>
      <trkpt lat="45.9667" lon="4.56161">
        <ele>616.404</ele>
        <time>2018-06-07T11:54:14Z</time>
      </trkpt>
      <trkpt lat="45.96667" lon="4.56155">
        <ele>616.219</ele>
        <time>2018-06-07T11:54:20Z</time>
      </trkpt>
      <trkpt lat="45.96665" lon="4.56146">
        <ele>616.337</ele>
        <time>2018-06-07T11:54:26Z</time>
      </trkpt>
      <trkpt lat="45.96663" lon="4.56137">
        <ele>616.426</ele>
        <time>2018-06-07T11:54:32Z</time>
      </trkpt>
      <trkpt lat="45.9666" lon="4.56127">
        <ele>616.53</ele>
        <time>2018-06-07T11:54:38Z</time>
      </trkpt>
      <trkpt lat="45.96657" lon="4.56122">
        <ele>616.574</ele>
        <time>2018-06-07T11:54:44Z</time>
      </trkpt>
      <trkpt lat="45.96655" lon="4.56116">
        <ele>616.62</ele>
        <time>2018-06-07T11:54:49Z</time>
      </trkpt>
      <trkpt lat="45.96653" lon="4.5611">
        <ele>616.751</ele>
        <time>2018-06-07T11:54:54Z</time>
      </trkpt>
      <trkpt lat="45.96648" lon="4.56102">
        <ele>616.972</ele>
        <time>2018-06-07T11:54:59Z</time>
      </trkpt>
      <trkpt lat="45.96644" lon="4.56097">
        <ele>617.032</ele>
        <time>2018-06-07T11:55:04Z</time>
      </trkpt>
      <trkpt lat="45.96641" lon="4.5609">
        <ele>617.229</ele>
        <time>2018-06-07T11:55:09Z</time>
      </trkpt>
      <trkpt lat="45.96637" lon="4.56082">
        <ele>617.375</ele>
        <time>2018-06-07T11:55:15Z</time>
      </trkpt>
      <trkpt lat="45.96632" lon="4.56075">
        <ele>617.48</ele>
        <time>2018-06-07T11:55:20Z</time>
      </trkpt>
      <trkpt lat="45.96627" lon="4.5607">
        <ele>617.322</ele>
        <time>2018-06-07T11:55:26Z</time>
      </trkpt>
      <trkpt lat="45.96623" lon="4.56062">
        <ele>617.014</ele>
        <time>2018-06-07T11:55:32Z</time>
      </trkpt>
      <trkpt lat="45.96618" lon="4.56057">
        <ele>616.572</ele>
        <time>2018-06-07T11:55:38Z</time>
      </trkpt>
      <trkpt lat="45.96616" lon="4.56054">
        <ele>616.377</ele>
        <time>2018-06-07T11:55:43Z</time>
      </trkpt>
      <trkpt lat="45.96611" lon="4.56049">
        <ele>616.258</ele>
        <time>2018-06-07T11:55:49Z</time>
      </trkpt>
      <trkpt lat="45.96605" lon="4.56047">
        <ele>616.04</ele>
        <time>2018-06-07T11:55:55Z</time>
      </trkpt>
      <trkpt lat="45.96599" lon="4.56045">
        <ele>615.744</ele>
        <time>2018-06-07T11:56:01Z</time>
      </trkpt>
      <trkpt lat="45.96595" lon="4.5604">
        <ele>615.295</ele>
        <time>2018-06-07T11:56:06Z</time>
      </trkpt>
      <trkpt lat="45.96595" lon="4.56038">
        <ele>614.404</ele>
        <time>2018-06-07T11:56:11Z</time>
      </trkpt>
      <trkpt lat="45.96592" lon="4.56032">
        <ele>613.644</ele>
        <time>2018-06-07T11:56:17Z</time>
      </trkpt>
      <trkpt lat="45.96589" lon="4.56026">
        <ele>613.26</ele>
        <time>2018-06-07T11:56:22Z</time>
      </trkpt>
      <trkpt lat="45.96585" lon="4.56018">
        <ele>612.566</ele>
        <time>2018-06-07T11:56:28Z</time>
      </trkpt>
      <trkpt lat="45.96582" lon="4.56011">
        <ele>611.646</ele>
        <time>2018-06-07T11:56:34Z</time>
      </trkpt>
      <trkpt lat="45.96579" lon="4.56004">
        <ele>610.855</ele>
        <time>2018-06-07T11:56:40Z</time>
      </trkpt>
      <trkpt lat="45.96574" lon="4.55995">
        <ele>610.358</ele>
        <time>2018-06-07T11:56:46Z</time>
      </trkpt>
      <trkpt lat="45.9657" lon="4.55987">
        <ele>609.931</ele>
        <time>2018-06-07T11:56:52Z</time>
      </trkpt>
      <trkpt lat="45.96567" lon="4.5598">
        <ele>609.378</ele>
        <time>2018-06-07T11:56:57Z</time>
      </trkpt>
      <trkpt lat="45.96563" lon="4.55971">
        <ele>608.689</ele>
        <time>2018-06-07T11:57:03Z</time>
      </trkpt>
      <trkpt lat="45.96558" lon="4.55966">
        <ele>608.156</ele>
        <time>2018-06-07T11:57:08Z</time>
      </trkpt>
      <trkpt lat="45.96556" lon="4.5596">
        <ele>607.7</ele>
        <time>2018-06-07T11:57:13Z</time>
      </trkpt>
      <trkpt lat="45.96553" lon="4.55953">
        <ele>606.94</ele>
        <time>2018-06-07T11:57:19Z</time>
      </trkpt>
      <trkpt lat="45.96548" lon="4.55942">
        <ele>606.237</ele>
        <time>2018-06-07T11:57:25Z</time>
      </trkpt>
      <trkpt lat="45.96545" lon="4.55936">
        <ele>605.713</ele>
        <time>2018-06-07T11:57:31Z</time>
      </trkpt>
      <trkpt lat="45.9654" lon="4.55929">
        <ele>604.926</ele>
        <time>2018-06-07T11:57:37Z</time>
      </trkpt>
      <trkpt lat="45.96536" lon="4.55925">
        <ele>604.353</ele>
        <time>2018-06-07T11:57:42Z</time>
      </trkpt>
      <trkpt lat="45.96532" lon="4.55918">
        <ele>603.554</ele>
        <time>2018-06-07T11:57:47Z</time>
      </trkpt>
      <trkpt lat="45.96533" lon="4.5591">
        <ele>602.667</ele>
        <time>2018-06-07T11:57:53Z</time>
      </trkpt>
      <trkpt lat="45.96533" lon="4.55903">
        <ele>602.196</ele>
        <time>2018-06-07T11:57:58Z</time>
      </trkpt>
      <trkpt lat="45.96532" lon="4.55895">
        <ele>601.538</ele>
        <time>2018-06-07T11:58:04Z</time>
      </trkpt>
      <trkpt lat="45.96529" lon="4.55888">
        <ele>600.933</ele>
        <time>2018-06-07T11:58:09Z</time>
      </trkpt>
      <trkpt lat="45.96526" lon="4.5588">
        <ele>600.084</ele>
        <time>2018-06-07T11:58:15Z</time>
      </trkpt>
      <trkpt lat="45.96522" lon="4.55873">
        <ele>599.157</ele>
        <time>2018-06-07T11:58:21Z</time>
      </trkpt>
      <trkpt lat="45.96517" lon="4.55867">
        <ele>598.475</ele>
        <time>2018-06-07T11:58:26Z</time>
      </trkpt>
      <trkpt lat="45.96513" lon="4.55861">
        <ele>597.57</ele>
        <time>2018-06-07T11:58:32Z</time>
      </trkpt>
      <trkpt lat="45.96509" lon="4.55855">
        <ele>596.647</ele>
        <time>2018-06-07T11:58:38Z</time>
      </trkpt>
      <trkpt lat="45.96505" lon="4.5585">
        <ele>595.739</ele>
        <time>2018-06-07T11:58:43Z</time>
      </trkpt>
      <trkpt lat="45.965" lon="4.55843">
        <ele>595.097</ele>
        <time>2018-06-07T11:58:49Z</time>
      </trkpt>
      <trkpt lat="45.96498" lon="4.55837">
        <ele>594.22</ele>
        <time>2018-06-07T11:58:55Z</time>
      </trkpt>
      <trkpt lat="45.96499" lon="4.55831">
        <ele>593.348</ele>
        <time>2018-06-07T11:59:00Z</time>
      </trkpt>
      <trkpt lat="45.965" lon="4.55823">
        <ele>592.29</ele>
        <time>2018-06-07T11:59:05Z</time>
      </trkpt>
      <trkpt lat="45.96501" lon="4.55816">
        <ele>590.987</ele>
        <time>2018-06-07T11:59:11Z</time>
      </trkpt>
      <trkpt lat="45.96501" lon="4.55807">
        <ele>589.383</ele>
        <time>2018-06-07T11:59:17Z</time>
      </trkpt>
      <trkpt lat="45.96499" lon="4.558">
        <ele>588.302</ele>
        <time>2018-06-07T11:59:22Z</time>
      </trkpt>
      <trkpt lat="45.96498" lon="4.55793">
        <ele>587.32</ele>
        <time>2018-06-07T11:59:27Z</time>
      </trkpt>
      <trkpt lat="45.96495" lon="4.55788">
        <ele>585.922</ele>
        <time>2018-06-07T11:59:33Z</time>
      </trkpt>
      <trkpt lat="45.96493" lon="4.55784">
        <ele>584.916</ele>
        <time>2018-06-07T11:59:38Z</time>
      </trkpt>
      <trkpt lat="45.96489" lon="4.55776">
        <ele>583.822</ele>
        <time>2018-06-07T11:59:43Z</time>
      </trkpt>
      <trkpt lat="45.96485" lon="4.55769">
        <ele>582.597</ele>
        <time>2018-06-07T11:59:49Z</time>
      </trkpt>
      <trkpt lat="45.96478" lon="4.55764">
        <ele>581.438</ele>
        <time>2018-06-07T11:59:55Z</time>
      </trkpt>
      <trkpt lat="45.96474" lon="4.55761">
        <ele>580.575</ele>
        <time>2018-06-07T12:00:00Z</time>
      </trkpt>
      <trkpt lat="45.96468" lon="4.55758">
        <ele>579.705</ele>
        <time>2018-06-07T12:00:06Z</time>
      </trkpt>
      <trkpt lat="45.96464" lon="4.55755">
        <ele>578.792</ele>
        <time>2018-06-07T12:00:11Z</time>
      </trkpt>
      <trkpt lat="45.96459" lon="4.5575">
        <ele>578.135</ele>
        <time>2018-06-07T12:00:16Z</time>
      </trkpt>
      <trkpt lat="45.96455" lon="4.55745">
        <ele>577.003</ele>
        <time>2018-06-07T12:00:22Z</time>
      </trkpt>
      <trkpt lat="45.96451" lon="4.55743">
        <ele>575.817</ele>
        <time>2018-06-07T12:00:28Z</time>
      </trkpt>
      <trkpt lat="45.96446" lon="4.55736">
        <ele>574.737</ele>
        <time>2018-06-07T12:00:34Z</time>
      </trkpt>
      <trkpt lat="45.96444" lon="4.55732">
        <ele>573.796</ele>
        <time>2018-06-07T12:00:39Z</time>
      </trkpt>
      <trkpt lat="45.96439" lon="4.55728">
        <ele>572.762</ele>
        <time>2018-06-07T12:00:44Z</time>
      </trkpt>
      <trkpt lat="45.96435" lon="4.55724">
        <ele>571.79</ele>
        <time>2018-06-07T12:00:49Z</time>
      </trkpt>
      <trkpt lat="45.96434" lon="4.5572">
        <ele>570.754</ele>
        <time>2018-06-07T12:00:55Z</time>
      </trkpt>
      <trkpt lat="45.96432" lon="4.55714">
        <ele>569.617</ele>
        <time>2018-06-07T12:01:00Z</time>
      </trkpt>
      <trkpt lat="45.96429" lon="4.55709">
        <ele>568.055</ele>
        <time>2018-06-07T12:01:06Z</time>
      </trkpt>
      <trkpt lat="45.96428" lon="4.55702">
        <ele>566.809</ele>
        <time>2018-06-07T12:01:11Z</time>
      </trkpt>
      <trkpt lat="45.96425" lon="4.55693">
        <ele>565.713</ele>
        <time>2018-06-07T12:01:17Z</time>
      </trkpt>
      <trkpt lat="45.96421" lon="4.55686">
        <ele>564.463</ele>
        <time>2018-06-07T12:01:23Z</time>
      </trkpt>
      <trkpt lat="45.96418" lon="4.55679">
        <ele>563.207</ele>
        <time>2018-06-07T12:01:28Z</time>
      </trkpt>
      <trkpt lat="45.96414" lon="4.55672">
        <ele>562.059</ele>
        <time>2018-06-07T12:01:34Z</time>
      </trkpt>
      <trkpt lat="45.96409" lon="4.55663">
        <ele>561.44</ele>
        <time>2018-06-07T12:01:40Z</time>
      </trkpt>
      <trkpt lat="45.96405" lon="4.55656">
        <ele>560.823</ele>
        <time>2018-06-07T12:01:45Z</time>
      </trkpt>
      <trkpt lat="45.96401" lon="4.55647">
        <ele>559.801</ele>
        <time>2018-06-07T12:01:51Z</time>
      </trkpt>
      <trkpt lat="45.96399" lon="4.55643">
        <ele>558.91</ele>
        <time>2018-06-07T12:01:56Z</time>
      </trkpt>
      <trkpt lat="45.96395" lon="4.55633">
        <ele>557.891</ele>
        <time>2018-06-07T12:02:01Z</time>
      </trkpt>
      <trkpt lat="45.96392" lon="4.55627">
        <ele>556.801</ele>
        <time>2018-06-07T12:02:07Z</time>
      </trkpt>
      <trkpt lat="45.96388" lon="4.55619">
        <ele>555.83</ele>
        <time>2018-06-07T12:02:12Z</time>
      </trkpt>
      <trkpt lat="45.96386" lon="4.5561">
        <ele>555.073</ele>
        <time>2018-06-07T12:02:18Z</time>
      </trkpt>
      <trkpt lat="45.96384" lon="4.55604">
        <ele>554.256</ele>
        <time>2018-06-07T12:02:23Z</time>
      </trkpt>
      <trkpt lat="45.96385" lon="4.55604">
        <ele>553.434</ele>
        <time>2018-06-07T12:02:29Z</time>
      </trkpt>
      <trkpt lat="45.96384" lon="4.55598">
        <ele>552.699</ele>
        <time>2018-06-07T12:02:35Z</time>
      </trkpt>
      <trkpt lat="45.96382" lon="4.55591">
        <ele>551.883</ele>
        <time>2018-06-07T12:02:40Z</time>
      </trkpt>
      <trkpt lat="45.96378" lon="4.5558">
        <ele>551.111</ele>
        <time>2018-06-07T12:02:46Z</time>
      </trkpt>
      <trkpt lat="45.96373" lon="4.55575">
        <ele>550.587</ele>
        <time>2018-06-07T12:02:51Z</time>
      </trkpt>
      <trkpt lat="45.96371" lon="4.55571">
        <ele>550.025</ele>
        <time>2018-06-07T12:02:56Z</time>
      </trkpt>
      <trkpt lat="45.96369" lon="4.55565">
        <ele>549.719</ele>
        <time>2018-06-07T12:03:02Z</time>
      </trkpt>
      <trkpt lat="45.96367" lon="4.55564">
        <ele>548.926</ele>
        <time>2018-06-07T12:03:08Z</time>
      </trkpt>
      <trkpt lat="45.96368" lon="4.55564">
        <ele>548.264</ele>
        <time>2018-06-07T12:03:16Z</time>
      </trkpt>
      <trkpt lat="45.96369" lon="4.5557">
        <ele>547.804</ele>
        <time>2018-06-07T12:03:21Z</time>
      </trkpt>
      <trkpt lat="45.96371" lon="4.5557">
        <ele>547.444</ele>
        <time>2018-06-07T12:03:27Z</time>
      </trkpt>
      <trkpt lat="45.96373" lon="4.55571">
        <ele>546.919</ele>
        <time>2018-06-07T12:03:33Z</time>
      </trkpt>
      <trkpt lat="45.96372" lon="4.55573">
        <ele>545.895</ele>
        <time>2018-06-07T12:03:38Z</time>
      </trkpt>
      <trkpt lat="45.9637" lon="4.55575">
        <ele>545.029</ele>
        <time>2018-06-07T12:03:44Z</time>
      </trkpt>
      <trkpt lat="45.96368" lon="4.55574">
        <ele>544.793</ele>
        <time>2018-06-07T12:03:49Z</time>
      </trkpt>
      <trkpt lat="45.9637" lon="4.55571">
        <ele>544.238</ele>
        <time>2018-06-07T12:03:55Z</time>
      </trkpt>
      <trkpt lat="45.96371" lon="4.55571">
        <ele>544.237</ele>
        <time>2018-06-07T12:04:00Z</time>
      </trkpt>
      <trkpt lat="45.9637" lon="4.55572">
        <ele>544.123</ele>
        <time>2018-06-07T12:04:06Z</time>
      </trkpt>
      <trkpt lat="45.96369" lon="4.55572">
        <ele>544.159</ele>
        <time>2018-06-07T12:04:11Z</time>
      </trkpt>
      <trkpt lat="45.9637" lon="4.55571">
        <ele>544.382</ele>
        <time>2018-06-07T12:04:17Z</time>
      </trkpt>
      <trkpt lat="45.96368" lon="4.55566">
        <ele>544.385</ele>
        <time>2018-06-07T12:04:23Z</time>
      </trkpt>
      <trkpt lat="45.96368" lon="4.55565">
        <ele>544.407</ele>
        <time>2018-06-07T12:04:28Z</time>
      </trkpt>
      <trkpt lat="45.96367" lon="4.55566">
        <ele>544.307</ele>
        <time>2018-06-07T12:04:34Z</time>
      </trkpt>
      <trkpt lat="45.96366" lon="4.55565">
        <ele>544.217</ele>
        <time>2018-06-07T12:04:40Z</time>
      </trkpt>
      <trkpt lat="45.96368" lon="4.55565">
        <ele>544.004</ele>
        <time>2018-06-07T12:04:46Z</time>
      </trkpt>
      <trkpt lat="45.96369" lon="4.55565">
        <ele>543.796</ele>
        <time>2018-06-07T12:04:52Z</time>
      </trkpt>
      <trkpt lat="45.96368" lon="4.55564">
        <ele>543.391</ele>
        <time>2018-06-07T12:04:57Z</time>
      </trkpt>
      <trkpt lat="45.96368" lon="4.55565">
        <ele>543.114</ele>
        <time>2018-06-07T12:05:02Z</time>
      </trkpt>
      <trkpt lat="45.96368" lon="4.55567">
        <ele>543.071</ele>
        <time>2018-06-07T12:05:08Z</time>
      </trkpt>
      <trkpt lat="45.96367" lon="4.55569">
        <ele>543.261</ele>
        <time>2018-06-07T12:05:13Z</time>
      </trkpt>
      <trkpt lat="45.96369" lon="4.55571">
        <ele>543.249</ele>
        <time>2018-06-07T12:05:19Z</time>
      </trkpt>
      <trkpt lat="45.9637" lon="4.5557">
        <ele>543.303</ele>
        <time>2018-06-07T12:05:24Z</time>
      </trkpt>
      <trkpt lat="45.96372" lon="4.55569">
        <ele>542.908</ele>
        <time>2018-06-07T12:05:30Z</time>
      </trkpt>
      <trkpt lat="45.96373" lon="4.55568">
        <ele>542.807</ele>
        <time>2018-06-07T12:05:35Z</time>
      </trkpt>
      <trkpt lat="45.96375" lon="4.55571">
        <ele>540.321</ele>
        <time>2018-06-07T12:05:41Z</time>
      </trkpt>
      <trkpt lat="45.96375" lon="4.55572">
        <ele>538.81</ele>
        <time>2018-06-07T12:05:46Z</time>
      </trkpt>
      <trkpt lat="45.96375" lon="4.55571">
        <ele>538.302</ele>
        <time>2018-06-07T12:05:52Z</time>
      </trkpt>
      <trkpt lat="45.96373" lon="4.55569">
        <ele>538.248</ele>
        <time>2018-06-07T12:05:58Z</time>
      </trkpt>
      <trkpt lat="45.96372" lon="4.55568">
        <ele>538.281</ele>
        <time>2018-06-07T12:06:04Z</time>
      </trkpt>
      <trkpt lat="45.96372" lon="4.55567">
        <ele>538.314</ele>
        <time>2018-06-07T12:06:09Z</time>
      </trkpt>
      <trkpt lat="45.96372" lon="4.55568">
        <ele>538.35</ele>
        <time>2018-06-07T12:06:14Z</time>
      </trkpt>
      <trkpt lat="45.96372" lon="4.55569">
        <ele>538.518</ele>
        <time>2018-06-07T12:06:19Z</time>
      </trkpt>
      <trkpt lat="45.9637" lon="4.5557">
        <ele>538.981</ele>
        <time>2018-06-07T12:06:25Z</time>
      </trkpt>
      <trkpt lat="45.96369" lon="4.55571">
        <ele>539.684</ele>
        <time>2018-06-07T12:06:31Z</time>
      </trkpt>
      <trkpt lat="45.96367" lon="4.55571">
        <ele>540.199</ele>
        <time>2018-06-07T12:06:37Z</time>
      </trkpt>
      <trkpt lat="45.96367" lon="4.55571">
        <ele>540.619</ele>
        <time>2018-06-07T12:06:43Z</time>
      </trkpt>
      <trkpt lat="45.96366" lon="4.55572">
        <ele>540.909</ele>
        <time>2018-06-07T12:06:48Z</time>
      </trkpt>
      <trkpt lat="45.96366" lon="4.55574">
        <ele>541.257</ele>
        <time>2018-06-07T12:06:54Z</time>
      </trkpt>
      <trkpt lat="45.96366" lon="4.55574">
        <ele>541.33</ele>
        <time>2018-06-07T12:07:00Z</time>
      </trkpt>
      <trkpt lat="45.96365" lon="4.55574">
        <ele>541.421</ele>
        <time>2018-06-07T12:07:05Z</time>
      </trkpt>
      <trkpt lat="45.96368" lon="4.55574">
        <ele>541.463</ele>
        <time>2018-06-07T12:07:11Z</time>
      </trkpt>
      <trkpt lat="45.96369" lon="4.55575">
        <ele>541.356</ele>
        <time>2018-06-07T12:07:17Z</time>
      </trkpt>
      <trkpt lat="45.96367" lon="4.55577">
        <ele>541.582</ele>
        <time>2018-06-07T12:07:22Z</time>
      </trkpt>
      <trkpt lat="45.96365" lon="4.55579">
        <ele>541.817</ele>
        <time>2018-06-07T12:07:28Z</time>
      </trkpt>
      <trkpt lat="45.96366" lon="4.5558">
        <ele>542.109</ele>
        <time>2018-06-07T12:07:33Z</time>
      </trkpt>
      <trkpt lat="45.96365" lon="4.5558">
        <ele>542.232</ele>
        <time>2018-06-07T12:07:39Z</time>
      </trkpt>
      <trkpt lat="45.96363" lon="4.55581">
        <ele>542.164</ele>
        <time>2018-06-07T12:07:45Z</time>
      </trkpt>
      <trkpt lat="45.96361" lon="4.55584">
        <ele>542.339</ele>
        <time>2018-06-07T12:07:50Z</time>
      </trkpt>
      <trkpt lat="45.96359" lon="4.55587">
        <ele>542.462</ele>
        <time>2018-06-07T12:07:55Z</time>
      </trkpt>
      <trkpt lat="45.96355" lon="4.55593">
        <ele>542.474</ele>
        <time>2018-06-07T12:08:01Z</time>
      </trkpt>
      <trkpt lat="45.96352" lon="4.556">
        <ele>542.359</ele>
        <time>2018-06-07T12:08:07Z</time>
      </trkpt>
      <trkpt lat="45.9635" lon="4.55607">
        <ele>542.314</ele>
        <time>2018-06-07T12:08:13Z</time>
      </trkpt>
      <trkpt lat="45.96347" lon="4.55615">
        <ele>542.163</ele>
        <time>2018-06-07T12:08:18Z</time>
      </trkpt>
      <trkpt lat="45.96345" lon="4.5562">
        <ele>541.934</ele>
        <time>2018-06-07T12:08:23Z</time>
      </trkpt>
      <trkpt lat="45.96343" lon="4.55629">
        <ele>541.742</ele>
        <time>2018-06-07T12:08:28Z</time>
      </trkpt>
      <trkpt lat="45.9634" lon="4.55636">
        <ele>541.566</ele>
        <time>2018-06-07T12:08:34Z</time>
      </trkpt>
      <trkpt lat="45.96337" lon="4.55645">
        <ele>541.153</ele>
        <time>2018-06-07T12:08:40Z</time>
      </trkpt>
      <trkpt lat="45.96333" lon="4.55654">
        <ele>540.888</ele>
        <time>2018-06-07T12:08:46Z</time>
      </trkpt>
      <trkpt lat="45.96331" lon="4.55665">
        <ele>540.902</ele>
        <time>2018-06-07T12:08:52Z</time>
      </trkpt>
      <trkpt lat="45.9633" lon="4.55673">
        <ele>540.746</ele>
        <time>2018-06-07T12:08:57Z</time>
      </trkpt>
      <trkpt lat="45.96328" lon="4.55684">
        <ele>540.605</ele>
        <time>2018-06-07T12:09:04Z</time>
      </trkpt>
      <trkpt lat="45.96324" lon="4.55694">
        <ele>540.412</ele>
        <time>2018-06-07T12:09:09Z</time>
      </trkpt>
      <trkpt lat="45.96321" lon="4.55704">
        <ele>540.499</ele>
        <time>2018-06-07T12:09:15Z</time>
      </trkpt>
      <trkpt lat="45.96319" lon="4.55711">
        <ele>540.699</ele>
        <time>2018-06-07T12:09:20Z</time>
      </trkpt>
      <trkpt lat="45.96319" lon="4.55722">
        <ele>540.761</ele>
        <time>2018-06-07T12:09:26Z</time>
      </trkpt>
      <trkpt lat="45.96319" lon="4.55731">
        <ele>540.741</ele>
        <time>2018-06-07T12:09:32Z</time>
      </trkpt>
      <trkpt lat="45.96319" lon="4.55744">
        <ele>540.494</ele>
        <time>2018-06-07T12:09:38Z</time>
      </trkpt>
      <trkpt lat="45.96319" lon="4.55753">
        <ele>539.998</ele>
        <time>2018-06-07T12:09:44Z</time>
      </trkpt>
      <trkpt lat="45.9632" lon="4.55765">
        <ele>539.597</ele>
        <time>2018-06-07T12:09:50Z</time>
      </trkpt>
      <trkpt lat="45.96319" lon="4.55773">
        <ele>539.44</ele>
        <time>2018-06-07T12:09:55Z</time>
      </trkpt>
      <trkpt lat="45.9632" lon="4.55782">
        <ele>539.729</ele>
        <time>2018-06-07T12:10:00Z</time>
      </trkpt>
      <trkpt lat="45.96318" lon="4.55791">
        <ele>539.811</ele>
        <time>2018-06-07T12:10:06Z</time>
      </trkpt>
      <trkpt lat="45.96314" lon="4.55799">
        <ele>540.072</ele>
        <time>2018-06-07T12:10:12Z</time>
      </trkpt>
      <trkpt lat="45.96309" lon="4.55806">
        <ele>540.262</ele>
        <time>2018-06-07T12:10:17Z</time>
      </trkpt>
      <trkpt lat="45.96304" lon="4.55809">
        <ele>540.281</ele>
        <time>2018-06-07T12:10:23Z</time>
      </trkpt>
      <trkpt lat="45.963" lon="4.55808">
        <ele>540.327</ele>
        <time>2018-06-07T12:10:29Z</time>
      </trkpt>
      <trkpt lat="45.96298" lon="4.55808">
        <ele>540.873</ele>
        <time>2018-06-07T12:10:34Z</time>
      </trkpt>
      <trkpt lat="45.96295" lon="4.55805">
        <ele>540.953</ele>
        <time>2018-06-07T12:10:40Z</time>
      </trkpt>
      <trkpt lat="45.96289" lon="4.55805">
        <ele>540.634</ele>
        <time>2018-06-07T12:10:45Z</time>
      </trkpt>
      <trkpt lat="45.96283" lon="4.55805">
        <ele>540.617</ele>
        <time>2018-06-07T12:10:51Z</time>
      </trkpt>
      <trkpt lat="45.96277" lon="4.55805">
        <ele>540.505</ele>
        <time>2018-06-07T12:10:56Z</time>
      </trkpt>
      <trkpt lat="45.9627" lon="4.55808">
        <ele>540.164</ele>
        <time>2018-06-07T12:11:02Z</time>
      </trkpt>
      <trkpt lat="45.96264" lon="4.55811">
        <ele>539.986</ele>
        <time>2018-06-07T12:11:08Z</time>
      </trkpt>
      <trkpt lat="45.96258" lon="4.55813">
        <ele>540.104</ele>
        <time>2018-06-07T12:11:13Z</time>
      </trkpt>
      <trkpt lat="45.9625" lon="4.55816">
        <ele>540.121</ele>
        <time>2018-06-07T12:11:19Z</time>
      </trkpt>
      <trkpt lat="45.96244" lon="4.55818">
        <ele>540.457</ele>
        <time>2018-06-07T12:11:24Z</time>
      </trkpt>
      <trkpt lat="45.96241" lon="4.5582">
        <ele>540.449</ele>
        <time>2018-06-07T12:11:30Z</time>
      </trkpt>
      <trkpt lat="45.96238" lon="4.55822">
        <ele>540.452</ele>
        <time>2018-06-07T12:11:36Z</time>
      </trkpt>
      <trkpt lat="45.96233" lon="4.55824">
        <ele>540.741</ele>
        <time>2018-06-07T12:11:41Z</time>
      </trkpt>
      <trkpt lat="45.96225" lon="4.55825">
        <ele>540.744</ele>
        <time>2018-06-07T12:11:47Z</time>
      </trkpt>
      <trkpt lat="45.96221" lon="4.55829">
        <ele>540.95</ele>
        <time>2018-06-07T12:11:53Z</time>
      </trkpt>
      <trkpt lat="45.96215" lon="4.55831">
        <ele>541.365</ele>
        <time>2018-06-07T12:11:58Z</time>
      </trkpt>
      <trkpt lat="45.96209" lon="4.55835">
        <ele>541.661</ele>
        <time>2018-06-07T12:12:03Z</time>
      </trkpt>
      <trkpt lat="45.96204" lon="4.55839">
        <ele>541.793</ele>
        <time>2018-06-07T12:12:09Z</time>
      </trkpt>
      <trkpt lat="45.96197" lon="4.55845">
        <ele>542.562</ele>
        <time>2018-06-07T12:12:15Z</time>
      </trkpt>
      <trkpt lat="45.9619" lon="4.55849">
        <ele>543.388</ele>
        <time>2018-06-07T12:12:20Z</time>
      </trkpt>
      <trkpt lat="45.96185" lon="4.55855">
        <ele>544.324</ele>
        <time>2018-06-07T12:12:26Z</time>
      </trkpt>
      <trkpt lat="45.96179" lon="4.55859">
        <ele>544.947</ele>
        <time>2018-06-07T12:12:32Z</time>
      </trkpt>
      <trkpt lat="45.96174" lon="4.55868">
        <ele>545.618</ele>
        <time>2018-06-07T12:12:38Z</time>
      </trkpt>
      <trkpt lat="45.9617" lon="4.55873">
        <ele>546.293</ele>
        <time>2018-06-07T12:12:43Z</time>
      </trkpt>
      <trkpt lat="45.96164" lon="4.55881">
        <ele>547.162</ele>
        <time>2018-06-07T12:12:49Z</time>
      </trkpt>
      <trkpt lat="45.9616" lon="4.55889">
        <ele>547.401</ele>
        <time>2018-06-07T12:12:55Z</time>
      </trkpt>
      <trkpt lat="45.96156" lon="4.55896">
        <ele>547.817</ele>
        <time>2018-06-07T12:13:01Z</time>
      </trkpt>
      <trkpt lat="45.96151" lon="4.55905">
        <ele>547.882</ele>
        <time>2018-06-07T12:13:07Z</time>
      </trkpt>
      <trkpt lat="45.96146" lon="4.55914">
        <ele>547.777</ele>
        <time>2018-06-07T12:13:13Z</time>
      </trkpt>
      <trkpt lat="45.96144" lon="4.55919">
        <ele>548.243</ele>
        <time>2018-06-07T12:13:18Z</time>
      </trkpt>
      <trkpt lat="45.96137" lon="4.55927">
        <ele>548.832</ele>
        <time>2018-06-07T12:13:24Z</time>
      </trkpt>
      <trkpt lat="45.96132" lon="4.55935">
        <ele>549.012</ele>
        <time>2018-06-07T12:13:30Z</time>
      </trkpt>
      <trkpt lat="45.9613" lon="4.5594">
        <ele>549.297</ele>
        <time>2018-06-07T12:13:35Z</time>
      </trkpt>
      <trkpt lat="45.96125" lon="4.55949">
        <ele>549.17</ele>
        <time>2018-06-07T12:13:41Z</time>
      </trkpt>
      <trkpt lat="45.9612" lon="4.55957">
        <ele>549.275</ele>
        <time>2018-06-07T12:13:47Z</time>
      </trkpt>
      <trkpt lat="45.96116" lon="4.55965">
        <ele>549.641</ele>
        <time>2018-06-07T12:13:53Z</time>
      </trkpt>
      <trkpt lat="45.96112" lon="4.55972">
        <ele>550.13</ele>
        <time>2018-06-07T12:13:59Z</time>
      </trkpt>
      <trkpt lat="45.96109" lon="4.55974">
        <ele>550.545</ele>
        <time>2018-06-07T12:14:04Z</time>
      </trkpt>
      <trkpt lat="45.96106" lon="4.55975">
        <ele>551.15</ele>
        <time>2018-06-07T12:14:10Z</time>
      </trkpt>
      <trkpt lat="45.96109" lon="4.55976">
        <ele>551.02</ele>
        <time>2018-06-07T12:14:15Z</time>
      </trkpt>
      <trkpt lat="45.96116" lon="4.55977">
        <ele>550.231</ele>
        <time>2018-06-07T12:14:21Z</time>
      </trkpt>
      <trkpt lat="45.96123" lon="4.55979">
        <ele>549.207</ele>
        <time>2018-06-07T12:14:27Z</time>
      </trkpt>
      <trkpt lat="45.96127" lon="4.55981">
        <ele>548.215</ele>
        <time>2018-06-07T12:14:33Z</time>
      </trkpt>
      <trkpt lat="45.96133" lon="4.55982">
        <ele>547.565</ele>
        <time>2018-06-07T12:14:38Z</time>
      </trkpt>
      <trkpt lat="45.9614" lon="4.5598">
        <ele>547.027</ele>
        <time>2018-06-07T12:14:44Z</time>
      </trkpt>
      <trkpt lat="45.96147" lon="4.55979">
        <ele>546.7</ele>
        <time>2018-06-07T12:14:49Z</time>
      </trkpt>
      <trkpt lat="45.96152" lon="4.55976">
        <ele>546.464</ele>
        <time>2018-06-07T12:14:55Z</time>
      </trkpt>
      <trkpt lat="45.96156" lon="4.55975">
        <ele>546.291</ele>
        <time>2018-06-07T12:15:00Z</time>
      </trkpt>
      <trkpt lat="45.96162" lon="4.55975">
        <ele>546.521</ele>
        <time>2018-06-07T12:15:06Z</time>
      </trkpt>
      <trkpt lat="45.96166" lon="4.55975">
        <ele>546.732</ele>
        <time>2018-06-07T12:15:11Z</time>
      </trkpt>
      <trkpt lat="45.96172" lon="4.55978">
        <ele>547.281</ele>
        <time>2018-06-07T12:15:17Z</time>
      </trkpt>
      <trkpt lat="45.96176" lon="4.55979">
        <ele>547.504</ele>
        <time>2018-06-07T12:15:23Z</time>
      </trkpt>
      <trkpt lat="45.96178" lon="4.55981">
        <ele>547.772</ele>
        <time>2018-06-07T12:15:28Z</time>
      </trkpt>
      <trkpt lat="45.96182" lon="4.55985">
        <ele>548.655</ele>
        <time>2018-06-07T12:15:34Z</time>
      </trkpt>
      <trkpt lat="45.96189" lon="4.55991">
        <ele>549.219</ele>
        <time>2018-06-07T12:15:40Z</time>
      </trkpt>
      <trkpt lat="45.96194" lon="4.55996">
        <ele>549.872</ele>
        <time>2018-06-07T12:15:46Z</time>
      </trkpt>
      <trkpt lat="45.96197" lon="4.56004">
        <ele>550.514</ele>
        <time>2018-06-07T12:15:52Z</time>
      </trkpt>
      <trkpt lat="45.96201" lon="4.56008">
        <ele>551.029</ele>
        <time>2018-06-07T12:15:57Z</time>
      </trkpt>
      <trkpt lat="45.96204" lon="4.56011">
        <ele>551.407</ele>
        <time>2018-06-07T12:16:02Z</time>
      </trkpt>
      <trkpt lat="45.96208" lon="4.56018">
        <ele>552.203</ele>
        <time>2018-06-07T12:16:08Z</time>
      </trkpt>
      <trkpt lat="45.96211" lon="4.56023">
        <ele>552.712</ele>
        <time>2018-06-07T12:16:13Z</time>
      </trkpt>
      <trkpt lat="45.96213" lon="4.5603">
        <ele>553.153</ele>
        <time>2018-06-07T12:16:18Z</time>
      </trkpt>
      <trkpt lat="45.96214" lon="4.56037">
        <ele>553.825</ele>
        <time>2018-06-07T12:16:24Z</time>
      </trkpt>
      <trkpt lat="45.96216" lon="4.56043">
        <ele>554.418</ele>
        <time>2018-06-07T12:16:29Z</time>
      </trkpt>
      <trkpt lat="45.96217" lon="4.5605">
        <ele>555.233</ele>
        <time>2018-06-07T12:16:35Z</time>
      </trkpt>
      <trkpt lat="45.96218" lon="4.56057">
        <ele>556.104</ele>
        <time>2018-06-07T12:16:40Z</time>
      </trkpt>
      <trkpt lat="45.96219" lon="4.56063">
        <ele>557.287</ele>
        <time>2018-06-07T12:16:46Z</time>
      </trkpt>
      <trkpt lat="45.96219" lon="4.5607">
        <ele>557.974</ele>
        <time>2018-06-07T12:16:51Z</time>
      </trkpt>
      <trkpt lat="45.96221" lon="4.5608">
        <ele>558.434</ele>
        <time>2018-06-07T12:16:57Z</time>
      </trkpt>
      <trkpt lat="45.96223" lon="4.5609">
        <ele>558.754</ele>
        <time>2018-06-07T12:17:03Z</time>
      </trkpt>
      <trkpt lat="45.96225" lon="4.56097">
        <ele>559.462</ele>
        <time>2018-06-07T12:17:09Z</time>
      </trkpt>
      <trkpt lat="45.96227" lon="4.56105">
        <ele>560.146</ele>
        <time>2018-06-07T12:17:15Z</time>
      </trkpt>
      <trkpt lat="45.96228" lon="4.56115">
        <ele>561.026</ele>
        <time>2018-06-07T12:17:21Z</time>
      </trkpt>
      <trkpt lat="45.96229" lon="4.56122">
        <ele>561.931</ele>
        <time>2018-06-07T12:17:26Z</time>
      </trkpt>
      <trkpt lat="45.96229" lon="4.56131">
        <ele>562.76</ele>
        <time>2018-06-07T12:17:32Z</time>
      </trkpt>
      <trkpt lat="45.96229" lon="4.56139">
        <ele>563.372</ele>
        <time>2018-06-07T12:17:38Z</time>
      </trkpt>
      <trkpt lat="45.96229" lon="4.56147">
        <ele>563.766</ele>
        <time>2018-06-07T12:17:44Z</time>
      </trkpt>
      <trkpt lat="45.96231" lon="4.56155">
        <ele>564.463</ele>
        <time>2018-06-07T12:17:49Z</time>
      </trkpt>
      <trkpt lat="45.96233" lon="4.56166">
        <ele>565.174</ele>
        <time>2018-06-07T12:17:55Z</time>
      </trkpt>
      <trkpt lat="45.96235" lon="4.56171">
        <ele>565.465</ele>
        <time>2018-06-07T12:18:00Z</time>
      </trkpt>
      <trkpt lat="45.96238" lon="4.56178">
        <ele>565.857</ele>
        <time>2018-06-07T12:18:05Z</time>
      </trkpt>
      <trkpt lat="45.96243" lon="4.56187">
        <ele>566.121</ele>
        <time>2018-06-07T12:18:10Z</time>
      </trkpt>
      <trkpt lat="45.96245" lon="4.56196">
        <ele>566.401</ele>
        <time>2018-06-07T12:18:16Z</time>
      </trkpt>
      <trkpt lat="45.96247" lon="4.56202">
        <ele>566.408</ele>
        <time>2018-06-07T12:18:21Z</time>
      </trkpt>
      <trkpt lat="45.96251" lon="4.56211">
        <ele>566.712</ele>
        <time>2018-06-07T12:18:27Z</time>
      </trkpt>
      <trkpt lat="45.96255" lon="4.56218">
        <ele>567.043</ele>
        <time>2018-06-07T12:18:32Z</time>
      </trkpt>
      <trkpt lat="45.96258" lon="4.56226">
        <ele>567.203</ele>
        <time>2018-06-07T12:18:38Z</time>
      </trkpt>
      <trkpt lat="45.9626" lon="4.56238">
        <ele>567.616</ele>
        <time>2018-06-07T12:18:44Z</time>
      </trkpt>
      <trkpt lat="45.96259" lon="4.56247">
        <ele>567.88</ele>
        <time>2018-06-07T12:18:50Z</time>
      </trkpt>
      <trkpt lat="45.96258" lon="4.56258">
        <ele>568.156</ele>
        <time>2018-06-07T12:18:56Z</time>
      </trkpt>
      <trkpt lat="45.96255" lon="4.56266">
        <ele>568.554</ele>
        <time>2018-06-07T12:19:02Z</time>
      </trkpt>
      <trkpt lat="45.96253" lon="4.56274">
        <ele>568.884</ele>
        <time>2018-06-07T12:19:08Z</time>
      </trkpt>
      <trkpt lat="45.96251" lon="4.56282">
        <ele>569.317</ele>
        <time>2018-06-07T12:19:13Z</time>
      </trkpt>
      <trkpt lat="45.96249" lon="4.5629">
        <ele>569.67</ele>
        <time>2018-06-07T12:19:18Z</time>
      </trkpt>
      <trkpt lat="45.96248" lon="4.56299">
        <ele>570.136</ele>
        <time>2018-06-07T12:19:23Z</time>
      </trkpt>
      <trkpt lat="45.96245" lon="4.56312">
        <ele>570.343</ele>
        <time>2018-06-07T12:19:29Z</time>
      </trkpt>
      <trkpt lat="45.96245" lon="4.56319">
        <ele>570.477</ele>
        <time>2018-06-07T12:19:34Z</time>
      </trkpt>
      <trkpt lat="45.96243" lon="4.56328">
        <ele>570.566</ele>
        <time>2018-06-07T12:19:39Z</time>
      </trkpt>
      <trkpt lat="45.96243" lon="4.56337">
        <ele>570.409</ele>
        <time>2018-06-07T12:19:44Z</time>
      </trkpt>
      <trkpt lat="45.96243" lon="4.56348">
        <ele>570.581</ele>
        <time>2018-06-07T12:19:50Z</time>
      </trkpt>
      <trkpt lat="45.96242" lon="4.56355">
        <ele>570.598</ele>
        <time>2018-06-07T12:19:55Z</time>
      </trkpt>
      <trkpt lat="45.96242" lon="4.56363">
        <ele>570.477</ele>
        <time>2018-06-07T12:20:00Z</time>
      </trkpt>
      <trkpt lat="45.96242" lon="4.56373">
        <ele>570.151</ele>
        <time>2018-06-07T12:20:05Z</time>
      </trkpt>
      <trkpt lat="45.96241" lon="4.56385">
        <ele>569.315</ele>
        <time>2018-06-07T12:20:11Z</time>
      </trkpt>
      <trkpt lat="45.96242" lon="4.56392">
        <ele>568.819</ele>
        <time>2018-06-07T12:20:16Z</time>
      </trkpt>
      <trkpt lat="45.96242" lon="4.56403">
        <ele>568.047</ele>
        <time>2018-06-07T12:20:21Z</time>
      </trkpt>
      <trkpt lat="45.96243" lon="4.56411">
        <ele>566.586</ele>
        <time>2018-06-07T12:20:27Z</time>
      </trkpt>
      <trkpt lat="45.9624" lon="4.5642">
        <ele>565.568</ele>
        <time>2018-06-07T12:20:33Z</time>
      </trkpt>
      <trkpt lat="45.96235" lon="4.56429">
        <ele>565.07</ele>
        <time>2018-06-07T12:20:38Z</time>
      </trkpt>
      <trkpt lat="45.9623" lon="4.56438">
        <ele>564.398</ele>
        <time>2018-06-07T12:20:44Z</time>
      </trkpt>
      <trkpt lat="45.96225" lon="4.56448">
        <ele>564.635</ele>
        <time>2018-06-07T12:20:50Z</time>
      </trkpt>
      <trkpt lat="45.96222" lon="4.56457">
        <ele>564.756</ele>
        <time>2018-06-07T12:20:55Z</time>
      </trkpt>
      <trkpt lat="45.9622" lon="4.56463">
        <ele>565.147</ele>
        <time>2018-06-07T12:21:00Z</time>
      </trkpt>
      <trkpt lat="45.96214" lon="4.56473">
        <ele>565.091</ele>
        <time>2018-06-07T12:21:06Z</time>
      </trkpt>
      <trkpt lat="45.96212" lon="4.56479">
        <ele>564.697</ele>
        <time>2018-06-07T12:21:12Z</time>
      </trkpt>
      <trkpt lat="45.96209" lon="4.56487">
        <ele>564.838</ele>
        <time>2018-06-07T12:21:17Z</time>
      </trkpt>
      <trkpt lat="45.96203" lon="4.56493">
        <ele>565.164</ele>
        <time>2018-06-07T12:21:23Z</time>
      </trkpt>
      <trkpt lat="45.96197" lon="4.56496">
        <ele>565.563</ele>
        <time>2018-06-07T12:21:29Z</time>
      </trkpt>
      <trkpt lat="45.9619" lon="4.565">
        <ele>565.529</ele>
        <time>2018-06-07T12:21:35Z</time>
      </trkpt>
      <trkpt lat="45.96185" lon="4.56503">
        <ele>565.528</ele>
        <time>2018-06-07T12:21:40Z</time>
      </trkpt>
      <trkpt lat="45.96178" lon="4.56505">
        <ele>565.524</ele>
        <time>2018-06-07T12:21:46Z</time>
      </trkpt>
      <trkpt lat="45.96171" lon="4.56508">
        <ele>564.834</ele>
        <time>2018-06-07T12:21:52Z</time>
      </trkpt>
      <trkpt lat="45.96165" lon="4.56512">
        <ele>564.08</ele>
        <time>2018-06-07T12:21:58Z</time>
      </trkpt>
      <trkpt lat="45.96157" lon="4.56516">
        <ele>564.037</ele>
        <time>2018-06-07T12:22:03Z</time>
      </trkpt>
      <trkpt lat="45.9615" lon="4.56518">
        <ele>563.622</ele>
        <time>2018-06-07T12:22:09Z</time>
      </trkpt>
      <trkpt lat="45.96142" lon="4.56521">
        <ele>563.522</ele>
        <time>2018-06-07T12:22:15Z</time>
      </trkpt>
      <trkpt lat="45.96135" lon="4.56525">
        <ele>563.34</ele>
        <time>2018-06-07T12:22:20Z</time>
      </trkpt>
      <trkpt lat="45.96128" lon="4.5653">
        <ele>563.342</ele>
        <time>2018-06-07T12:22:26Z</time>
      </trkpt>
      <trkpt lat="45.96122" lon="4.56532">
        <ele>563.591</ele>
        <time>2018-06-07T12:22:32Z</time>
      </trkpt>
      <trkpt lat="45.96115" lon="4.56535">
        <ele>563.563</ele>
        <time>2018-06-07T12:22:38Z</time>
      </trkpt>
      <trkpt lat="45.96108" lon="4.56541">
        <ele>563.347</ele>
        <time>2018-06-07T12:22:44Z</time>
      </trkpt>
      <trkpt lat="45.96103" lon="4.56545">
        <ele>562.878</ele>
        <time>2018-06-07T12:22:49Z</time>
      </trkpt>
      <trkpt lat="45.96099" lon="4.56548">
        <ele>562.706</ele>
        <time>2018-06-07T12:22:55Z</time>
      </trkpt>
      <trkpt lat="45.96097" lon="4.56549">
        <ele>562.481</ele>
        <time>2018-06-07T12:23:00Z</time>
      </trkpt>
      <trkpt lat="45.96095" lon="4.56549">
        <ele>562.46</ele>
        <time>2018-06-07T12:23:06Z</time>
      </trkpt>
      <trkpt lat="45.96092" lon="4.56548">
        <ele>562.491</ele>
        <time>2018-06-07T12:23:12Z</time>
      </trkpt>
      <trkpt lat="45.96091" lon="4.56548">
        <ele>562.662</ele>
        <time>2018-06-07T12:23:17Z</time>
      </trkpt>
      <trkpt lat="45.96091" lon="4.56548">
        <ele>562.723</ele>
        <time>2018-06-07T12:23:23Z</time>
      </trkpt>
      <trkpt lat="45.96092" lon="4.56548">
        <ele>562.484</ele>
        <time>2018-06-07T12:23:29Z</time>
      </trkpt>
      <trkpt lat="45.96093" lon="4.56548">
        <ele>562.623</ele>
        <time>2018-06-07T12:23:35Z</time>
      </trkpt>
      <trkpt lat="45.96092" lon="4.56546">
        <ele>562.74</ele>
        <time>2018-06-07T12:23:41Z</time>
      </trkpt>
      <trkpt lat="45.96091" lon="4.56546">
        <ele>562.988</ele>
        <time>2018-06-07T12:23:48Z</time>
      </trkpt>
      <trkpt lat="45.96092" lon="4.56549">
        <ele>563.118</ele>
        <time>2018-06-07T12:23:53Z</time>
      </trkpt>
      <trkpt lat="45.96092" lon="4.56548">
        <ele>562.968</ele>
        <time>2018-06-07T12:23:59Z</time>
      </trkpt>
      <trkpt lat="45.96091" lon="4.56548">
        <ele>562.906</ele>
        <time>2018-06-07T12:24:04Z</time>
      </trkpt>
      <trkpt lat="45.9609" lon="4.56547">
        <ele>562.84</ele>
        <time>2018-06-07T12:24:10Z</time>
      </trkpt>
      <trkpt lat="45.96089" lon="4.56546">
        <ele>562.812</ele>
        <time>2018-06-07T12:24:15Z</time>
      </trkpt>
      <trkpt lat="45.96089" lon="4.56545">
        <ele>562.869</ele>
        <time>2018-06-07T12:24:20Z</time>
      </trkpt>
      <trkpt lat="45.96086" lon="4.56539">
        <ele>563.395</ele>
        <time>2018-06-07T12:24:26Z</time>
      </trkpt>
      <trkpt lat="45.96086" lon="4.56541">
        <ele>563.865</ele>
        <time>2018-06-07T12:24:32Z</time>
      </trkpt>
      <trkpt lat="45.96086" lon="4.56545">
        <ele>564.152</ele>
        <time>2018-06-07T12:24:37Z</time>
      </trkpt>
      <trkpt lat="45.96087" lon="4.56547">
        <ele>564.088</ele>
        <time>2018-06-07T12:24:42Z</time>
      </trkpt>
      <trkpt lat="45.96089" lon="4.56551">
        <ele>564.03</ele>
        <time>2018-06-07T12:24:48Z</time>
      </trkpt>
      <trkpt lat="45.96088" lon="4.56552">
        <ele>563.982</ele>
        <time>2018-06-07T12:24:53Z</time>
      </trkpt>
      <trkpt lat="45.96088" lon="4.56552">
        <ele>563.891</ele>
        <time>2018-06-07T12:24:59Z</time>
      </trkpt>
      <trkpt lat="45.96091" lon="4.5655">
        <ele>562.905</ele>
        <time>2018-06-07T12:25:05Z</time>
      </trkpt>
      <trkpt lat="45.96092" lon="4.56549">
        <ele>561.709</ele>
        <time>2018-06-07T12:25:11Z</time>
      </trkpt>
      <trkpt lat="45.96094" lon="4.56549">
        <ele>561.65</ele>
        <time>2018-06-07T12:25:16Z</time>
      </trkpt>
      <trkpt lat="45.96095" lon="4.56548">
        <ele>561.575</ele>
        <time>2018-06-07T12:25:21Z</time>
      </trkpt>
      <trkpt lat="45.96095" lon="4.56546">
        <ele>561.259</ele>
        <time>2018-06-07T12:25:27Z</time>
      </trkpt>
      <trkpt lat="45.96095" lon="4.56547">
        <ele>560.77</ele>
        <time>2018-06-07T12:25:34Z</time>
      </trkpt>
      <trkpt lat="45.96095" lon="4.56547">
        <ele>559.676</ele>
        <time>2018-06-07T12:25:40Z</time>
      </trkpt>
      <trkpt lat="45.96096" lon="4.56546">
        <ele>559.044</ele>
        <time>2018-06-07T12:25:46Z</time>
      </trkpt>
      <trkpt lat="45.96096" lon="4.56546">
        <ele>558.703</ele>
        <time>2018-06-07T12:25:52Z</time>
      </trkpt>
      <trkpt lat="45.96096" lon="4.56546">
        <ele>558.431</ele>
        <time>2018-06-07T12:25:57Z</time>
      </trkpt>
      <trkpt lat="45.96096" lon="4.56546">
        <ele>558.228</ele>
        <time>2018-06-07T12:26:03Z</time>
      </trkpt>
      <trkpt lat="45.96096" lon="4.56546">
        <ele>558.118</ele>
        <time>2018-06-07T12:26:09Z</time>
      </trkpt>
      <trkpt lat="45.96096" lon="4.56546">
        <ele>557.97</ele>
        <time>2018-06-07T12:26:15Z</time>
      </trkpt>
      <trkpt lat="45.96096" lon="4.56546">
        <ele>557.89</ele>
        <time>2018-06-07T12:26:21Z</time>
      </trkpt>
      <trkpt lat="45.96095" lon="4.56545">
        <ele>557.655</ele>
        <time>2018-06-07T12:26:27Z</time>
      </trkpt>
      <trkpt lat="45.96096" lon="4.56545">
        <ele>557.145</ele>
        <time>2018-06-07T12:26:33Z</time>
      </trkpt>
      <trkpt lat="45.96096" lon="4.56546">
        <ele>556.922</ele>
        <time>2018-06-07T12:26:39Z</time>
      </trkpt>
      <trkpt lat="45.96096" lon="4.56548">
        <ele>556.587</ele>
        <time>2018-06-07T12:26:44Z</time>
      </trkpt>
      <trkpt lat="45.96096" lon="4.56547">
        <ele>556.411</ele>
        <time>2018-06-07T12:26:49Z</time>
      </trkpt>
      <trkpt lat="45.96096" lon="4.56547">
        <ele>556.34</ele>
        <time>2018-06-07T12:26:55Z</time>
      </trkpt>
      <trkpt lat="45.96094" lon="4.56546">
        <ele>556.173</ele>
        <time>2018-06-07T12:27:01Z</time>
      </trkpt>
      <trkpt lat="45.96092" lon="4.56549">
        <ele>555.852</ele>
        <time>2018-06-07T12:27:07Z</time>
      </trkpt>
      <trkpt lat="45.96093" lon="4.56551">
        <ele>555.724</ele>
        <time>2018-06-07T12:27:13Z</time>
      </trkpt>
      <trkpt lat="45.96093" lon="4.56551">
        <ele>555.769</ele>
        <time>2018-06-07T12:27:18Z</time>
      </trkpt>
      <trkpt lat="45.96092" lon="4.56551">
        <ele>555.933</ele>
        <time>2018-06-07T12:27:24Z</time>
      </trkpt>
      <trkpt lat="45.96092" lon="4.56551">
        <ele>555.983</ele>
        <time>2018-06-07T12:27:29Z</time>
      </trkpt>
      <trkpt lat="45.96089" lon="4.56551">
        <ele>556.226</ele>
        <time>2018-06-07T12:27:34Z</time>
      </trkpt>
      <trkpt lat="45.96088" lon="4.5655">
        <ele>556.816</ele>
        <time>2018-06-07T12:27:40Z</time>
      </trkpt>
      <trkpt lat="45.96088" lon="4.5655">
        <ele>556.701</ele>
        <time>2018-06-07T12:27:45Z</time>
      </trkpt>
      <trkpt lat="45.96088" lon="4.5655">
        <ele>556.478</ele>
        <time>2018-06-07T12:27:51Z</time>
      </trkpt>
      <trkpt lat="45.96087" lon="4.56549">
        <ele>554.652</ele>
        <time>2018-06-07T12:27:57Z</time>
      </trkpt>
      <trkpt lat="45.96087" lon="4.56549">
        <ele>554.46</ele>
        <time>2018-06-07T12:28:02Z</time>
      </trkpt>
      <trkpt lat="45.96087" lon="4.56549">
        <ele>554.004</ele>
        <time>2018-06-07T12:28:08Z</time>
      </trkpt>
      <trkpt lat="45.96087" lon="4.56549">
        <ele>553.751</ele>
        <time>2018-06-07T12:28:14Z</time>
      </trkpt>
      <trkpt lat="45.96086" lon="4.56549">
        <ele>553.664</ele>
        <time>2018-06-07T12:28:19Z</time>
      </trkpt>
      <trkpt lat="45.96084" lon="4.56549">
        <ele>553.107</ele>
        <time>2018-06-07T12:28:25Z</time>
      </trkpt>
      <trkpt lat="45.96084" lon="4.56549">
        <ele>553.072</ele>
        <time>2018-06-07T12:28:31Z</time>
      </trkpt>
      <trkpt lat="45.96084" lon="4.56549">
        <ele>553.051</ele>
        <time>2018-06-07T12:28:37Z</time>
      </trkpt>
      <trkpt lat="45.96084" lon="4.5655">
        <ele>553.482</ele>
        <time>2018-06-07T12:28:42Z</time>
      </trkpt>
      <trkpt lat="45.96085" lon="4.56549">
        <ele>554.083</ele>
        <time>2018-06-07T12:28:48Z</time>
      </trkpt>
      <trkpt lat="45.96088" lon="4.5655">
        <ele>554.399</ele>
        <time>2018-06-07T12:28:53Z</time>
      </trkpt>
      <trkpt lat="45.96089" lon="4.56549">
        <ele>555.3</ele>
        <time>2018-06-07T12:28:59Z</time>
      </trkpt>
      <trkpt lat="45.9609" lon="4.56548">
        <ele>556.315</ele>
        <time>2018-06-07T12:29:05Z</time>
      </trkpt>
      <trkpt lat="45.96086" lon="4.56544">
        <ele>556.128</ele>
        <time>2018-06-07T12:29:10Z</time>
      </trkpt>
      <trkpt lat="45.96085" lon="4.56545">
        <ele>556.099</ele>
        <time>2018-06-07T12:29:15Z</time>
      </trkpt>
      <trkpt lat="45.96085" lon="4.56545">
        <ele>555.932</ele>
        <time>2018-06-07T12:29:21Z</time>
      </trkpt>
      <trkpt lat="45.96085" lon="4.56545">
        <ele>555.899</ele>
        <time>2018-06-07T12:29:26Z</time>
      </trkpt>
      <trkpt lat="45.96085" lon="4.56545">
        <ele>555.863</ele>
        <time>2018-06-07T12:29:32Z</time>
      </trkpt>
      <trkpt lat="45.96085" lon="4.56545">
        <ele>555.834</ele>
        <time>2018-06-07T12:29:38Z</time>
      </trkpt>
      <trkpt lat="45.96085" lon="4.56545">
        <ele>555.878</ele>
        <time>2018-06-07T12:29:43Z</time>
      </trkpt>
      <trkpt lat="45.96085" lon="4.56545">
        <ele>555.972</ele>
        <time>2018-06-07T12:29:48Z</time>
      </trkpt>
      <trkpt lat="45.96085" lon="4.56545">
        <ele>556.109</ele>
        <time>2018-06-07T12:29:54Z</time>
      </trkpt>
      <trkpt lat="45.96085" lon="4.56545">
        <ele>556.613</ele>
        <time>2018-06-07T12:30:00Z</time>
      </trkpt>
      <trkpt lat="45.96085" lon="4.56545">
        <ele>556.555</ele>
        <time>2018-06-07T12:30:06Z</time>
      </trkpt>
      <trkpt lat="45.96085" lon="4.56545">
        <ele>556.427</ele>
        <time>2018-06-07T12:30:12Z</time>
      </trkpt>
      <trkpt lat="45.96085" lon="4.56545">
        <ele>556.37</ele>
        <time>2018-06-07T12:30:17Z</time>
      </trkpt>
      <trkpt lat="45.96085" lon="4.56545">
        <ele>556.352</ele>
        <time>2018-06-07T12:30:23Z</time>
      </trkpt>
      <trkpt lat="45.96085" lon="4.56545">
        <ele>556.156</ele>
        <time>2018-06-07T12:30:29Z</time>
      </trkpt>
      <trkpt lat="45.96085" lon="4.56545">
        <ele>555.968</ele>
        <time>2018-06-07T12:30:34Z</time>
      </trkpt>
      <trkpt lat="45.96084" lon="4.56547">
        <ele>555.401</ele>
        <time>2018-06-07T12:30:40Z</time>
      </trkpt>
      <trkpt lat="45.96082" lon="4.56548">
        <ele>554.322</ele>
        <time>2018-06-07T12:30:45Z</time>
      </trkpt>
      <trkpt lat="45.96079" lon="4.56548">
        <ele>553.89</ele>
        <time>2018-06-07T12:30:50Z</time>
      </trkpt>
      <trkpt lat="45.96074" lon="4.56553">
        <ele>552.961</ele>
        <time>2018-06-07T12:30:56Z</time>
      </trkpt>
      <trkpt lat="45.96068" lon="4.56562">
        <ele>552.332</ele>
        <time>2018-06-07T12:31:02Z</time>
      </trkpt>
      <trkpt lat="45.96062" lon="4.56563">
        <ele>551.984</ele>
        <time>2018-06-07T12:31:08Z</time>
      </trkpt>
      <trkpt lat="45.96055" lon="4.56564">
        <ele>551.64</ele>
        <time>2018-06-07T12:31:13Z</time>
      </trkpt>
      <trkpt lat="45.9605" lon="4.56572">
        <ele>551.638</ele>
        <time>2018-06-07T12:31:19Z</time>
      </trkpt>
      <trkpt lat="45.96042" lon="4.56578">
        <ele>551.919</ele>
        <time>2018-06-07T12:31:25Z</time>
      </trkpt>
      <trkpt lat="45.96038" lon="4.56585">
        <ele>552.979</ele>
        <time>2018-06-07T12:31:31Z</time>
      </trkpt>
      <trkpt lat="45.96032" lon="4.56593">
        <ele>553.566</ele>
        <time>2018-06-07T12:31:37Z</time>
      </trkpt>
      <trkpt lat="45.96028" lon="4.56599">
        <ele>553.523</ele>
        <time>2018-06-07T12:31:42Z</time>
      </trkpt>
      <trkpt lat="45.96024" lon="4.56608">
        <ele>553.255</ele>
        <time>2018-06-07T12:31:48Z</time>
      </trkpt>
      <trkpt lat="45.96023" lon="4.56616">
        <ele>552.997</ele>
        <time>2018-06-07T12:31:53Z</time>
      </trkpt>
      <trkpt lat="45.96017" lon="4.56625">
        <ele>552.123</ele>
        <time>2018-06-07T12:31:59Z</time>
      </trkpt>
      <trkpt lat="45.9601" lon="4.56627">
        <ele>551.692</ele>
        <time>2018-06-07T12:32:04Z</time>
      </trkpt>
      <trkpt lat="45.96005" lon="4.56631">
        <ele>551.509</ele>
        <time>2018-06-07T12:32:10Z</time>
      </trkpt>
      <trkpt lat="45.96" lon="4.56637">
        <ele>551.6</ele>
        <time>2018-06-07T12:32:15Z</time>
      </trkpt>
      <trkpt lat="45.95995" lon="4.56642">
        <ele>551.533</ele>
        <time>2018-06-07T12:32:21Z</time>
      </trkpt>
      <trkpt lat="45.95989" lon="4.56647">
        <ele>551.373</ele>
        <time>2018-06-07T12:32:27Z</time>
      </trkpt>
      <trkpt lat="45.95987" lon="4.56652">
        <ele>551.685</ele>
        <time>2018-06-07T12:32:33Z</time>
      </trkpt>
      <trkpt lat="45.95983" lon="4.56657">
        <ele>551.962</ele>
        <time>2018-06-07T12:32:38Z</time>
      </trkpt>
      <trkpt lat="45.95979" lon="4.56666">
        <ele>552.189</ele>
        <time>2018-06-07T12:32:44Z</time>
      </trkpt>
      <trkpt lat="45.95979" lon="4.56666">
        <ele>552.488</ele>
        <time>2018-06-07T12:32:49Z</time>
      </trkpt>
      <trkpt lat="45.95982" lon="4.56662">
        <ele>553.108</ele>
        <time>2018-06-07T12:32:55Z</time>
      </trkpt>
      <trkpt lat="45.95982" lon="4.56661">
        <ele>553.22</ele>
        <time>2018-06-07T12:33:00Z</time>
      </trkpt>
      <trkpt lat="45.95982" lon="4.5666">
        <ele>553.223</ele>
        <time>2018-06-07T12:33:06Z</time>
      </trkpt>
      <trkpt lat="45.95983" lon="4.56665">
        <ele>553.37</ele>
        <time>2018-06-07T12:33:11Z</time>
      </trkpt>
      <trkpt lat="45.95984" lon="4.56675">
        <ele>553.301</ele>
        <time>2018-06-07T12:33:17Z</time>
      </trkpt>
      <trkpt lat="45.95987" lon="4.56684">
        <ele>552.986</ele>
        <time>2018-06-07T12:33:22Z</time>
      </trkpt>
      <trkpt lat="45.95989" lon="4.56693">
        <ele>552.845</ele>
        <time>2018-06-07T12:33:28Z</time>
      </trkpt>
      <trkpt lat="45.95988" lon="4.56695">
        <ele>552.545</ele>
        <time>2018-06-07T12:33:33Z</time>
      </trkpt>
      <trkpt lat="45.95987" lon="4.56696">
        <ele>552.008</ele>
        <time>2018-06-07T12:33:39Z</time>
      </trkpt>
      <trkpt lat="45.95987" lon="4.56696">
        <ele>552.576</ele>
        <time>2018-06-07T12:33:44Z</time>
      </trkpt>
      <trkpt lat="45.95982" lon="4.56701">
        <ele>552.928</ele>
        <time>2018-06-07T12:33:50Z</time>
      </trkpt>
      <trkpt lat="45.95979" lon="4.56703">
        <ele>552.858</ele>
        <time>2018-06-07T12:33:55Z</time>
      </trkpt>
      <trkpt lat="45.95974" lon="4.56712">
        <ele>552.45</ele>
        <time>2018-06-07T12:34:01Z</time>
      </trkpt>
      <trkpt lat="45.95968" lon="4.56723">
        <ele>551.67</ele>
        <time>2018-06-07T12:34:07Z</time>
      </trkpt>
      <trkpt lat="45.95961" lon="4.56727">
        <ele>551.273</ele>
        <time>2018-06-07T12:34:12Z</time>
      </trkpt>
      <trkpt lat="45.95956" lon="4.56733">
        <ele>550.886</ele>
        <time>2018-06-07T12:34:18Z</time>
      </trkpt>
      <trkpt lat="45.95951" lon="4.56739">
        <ele>550.56</ele>
        <time>2018-06-07T12:34:24Z</time>
      </trkpt>
      <trkpt lat="45.95946" lon="4.56746">
        <ele>550.214</ele>
        <time>2018-06-07T12:34:30Z</time>
      </trkpt>
      <trkpt lat="45.95944" lon="4.56746">
        <ele>549.764</ele>
        <time>2018-06-07T12:34:35Z</time>
      </trkpt>
      <trkpt lat="45.9594" lon="4.56748">
        <ele>549.427</ele>
        <time>2018-06-07T12:34:41Z</time>
      </trkpt>
      <trkpt lat="45.95936" lon="4.56751">
        <ele>549.209</ele>
        <time>2018-06-07T12:34:47Z</time>
      </trkpt>
      <trkpt lat="45.95931" lon="4.56757">
        <ele>548.856</ele>
        <time>2018-06-07T12:34:52Z</time>
      </trkpt>
      <trkpt lat="45.95924" lon="4.56762">
        <ele>548.445</ele>
        <time>2018-06-07T12:34:58Z</time>
      </trkpt>
      <trkpt lat="45.9592" lon="4.56766">
        <ele>548.26</ele>
        <time>2018-06-07T12:35:04Z</time>
      </trkpt>
      <trkpt lat="45.95915" lon="4.5677">
        <ele>547.991</ele>
        <time>2018-06-07T12:35:09Z</time>
      </trkpt>
      <trkpt lat="45.95912" lon="4.56774">
        <ele>547.114</ele>
        <time>2018-06-07T12:35:15Z</time>
      </trkpt>
      <trkpt lat="45.95906" lon="4.56779">
        <ele>546.114</ele>
        <time>2018-06-07T12:35:21Z</time>
      </trkpt>
      <trkpt lat="45.95901" lon="4.5678">
        <ele>545.225</ele>
        <time>2018-06-07T12:35:26Z</time>
      </trkpt>
      <trkpt lat="45.95893" lon="4.5678">
        <ele>544.513</ele>
        <time>2018-06-07T12:35:32Z</time>
      </trkpt>
      <trkpt lat="45.95888" lon="4.56781">
        <ele>543.816</ele>
        <time>2018-06-07T12:35:38Z</time>
      </trkpt>
      <trkpt lat="45.95885" lon="4.56781">
        <ele>542.66</ele>
        <time>2018-06-07T12:35:44Z</time>
      </trkpt>
      <trkpt lat="45.95881" lon="4.56785">
        <ele>541.513</ele>
        <time>2018-06-07T12:35:49Z</time>
      </trkpt>
      <trkpt lat="45.95879" lon="4.56794">
        <ele>540.028</ele>
        <time>2018-06-07T12:35:55Z</time>
      </trkpt>
      <trkpt lat="45.95879" lon="4.56798">
        <ele>538.698</ele>
        <time>2018-06-07T12:36:01Z</time>
      </trkpt>
      <trkpt lat="45.95877" lon="4.56808">
        <ele>537.119</ele>
        <time>2018-06-07T12:36:07Z</time>
      </trkpt>
      <trkpt lat="45.95875" lon="4.56816">
        <ele>536.039</ele>
        <time>2018-06-07T12:36:13Z</time>
      </trkpt>
      <trkpt lat="45.95871" lon="4.56818">
        <ele>535.018</ele>
        <time>2018-06-07T12:36:19Z</time>
      </trkpt>
      <trkpt lat="45.95866" lon="4.56819">
        <ele>534.564</ele>
        <time>2018-06-07T12:36:24Z</time>
      </trkpt>
      <trkpt lat="45.95862" lon="4.5682">
        <ele>534.188</ele>
        <time>2018-06-07T12:36:29Z</time>
      </trkpt>
      <trkpt lat="45.95856" lon="4.5682">
        <ele>533.925</ele>
        <time>2018-06-07T12:36:35Z</time>
      </trkpt>
      <trkpt lat="45.95851" lon="4.56818">
        <ele>533.459</ele>
        <time>2018-06-07T12:36:41Z</time>
      </trkpt>
      <trkpt lat="45.95848" lon="4.56818">
        <ele>532.581</ele>
        <time>2018-06-07T12:36:47Z</time>
      </trkpt>
      <trkpt lat="45.95842" lon="4.56819">
        <ele>531.638</ele>
        <time>2018-06-07T12:36:53Z</time>
      </trkpt>
      <trkpt lat="45.95839" lon="4.5682">
        <ele>530.546</ele>
        <time>2018-06-07T12:36:58Z</time>
      </trkpt>
      <trkpt lat="45.95833" lon="4.56823">
        <ele>529.545</ele>
        <time>2018-06-07T12:37:04Z</time>
      </trkpt>
      <trkpt lat="45.95825" lon="4.56827">
        <ele>528.377</ele>
        <time>2018-06-07T12:37:10Z</time>
      </trkpt>
      <trkpt lat="45.95821" lon="4.56832">
        <ele>527.205</ele>
        <time>2018-06-07T12:37:15Z</time>
      </trkpt>
      <trkpt lat="45.95816" lon="4.56835">
        <ele>525.659</ele>
        <time>2018-06-07T12:37:20Z</time>
      </trkpt>
      <trkpt lat="45.95809" lon="4.56837">
        <ele>523.656</ele>
        <time>2018-06-07T12:37:26Z</time>
      </trkpt>
      <trkpt lat="45.95802" lon="4.56839">
        <ele>521.679</ele>
        <time>2018-06-07T12:37:32Z</time>
      </trkpt>
      <trkpt lat="45.95797" lon="4.5684">
        <ele>519.404</ele>
        <time>2018-06-07T12:37:38Z</time>
      </trkpt>
      <trkpt lat="45.95789" lon="4.5684">
        <ele>517.799</ele>
        <time>2018-06-07T12:37:43Z</time>
      </trkpt>
      <trkpt lat="45.95785" lon="4.56838">
        <ele>516.492</ele>
        <time>2018-06-07T12:37:49Z</time>
      </trkpt>
      <trkpt lat="45.9578" lon="4.56837">
        <ele>515.428</ele>
        <time>2018-06-07T12:37:54Z</time>
      </trkpt>
      <trkpt lat="45.95774" lon="4.5684">
        <ele>514.167</ele>
        <time>2018-06-07T12:38:00Z</time>
      </trkpt>
      <trkpt lat="45.95768" lon="4.5684">
        <ele>512.968</ele>
        <time>2018-06-07T12:38:06Z</time>
      </trkpt>
      <trkpt lat="45.95762" lon="4.56839">
        <ele>511.86</ele>
        <time>2018-06-07T12:38:11Z</time>
      </trkpt>
      <trkpt lat="45.95757" lon="4.56839">
        <ele>510.768</ele>
        <time>2018-06-07T12:38:17Z</time>
      </trkpt>
      <trkpt lat="45.95751" lon="4.56836">
        <ele>509.68</ele>
        <time>2018-06-07T12:38:23Z</time>
      </trkpt>
      <trkpt lat="45.95746" lon="4.56833">
        <ele>508.407</ele>
        <time>2018-06-07T12:38:28Z</time>
      </trkpt>
      <trkpt lat="45.95739" lon="4.56831">
        <ele>507.008</ele>
        <time>2018-06-07T12:38:34Z</time>
      </trkpt>
      <trkpt lat="45.9573" lon="4.56828">
        <ele>505.308</ele>
        <time>2018-06-07T12:38:40Z</time>
      </trkpt>
      <trkpt lat="45.95725" lon="4.56827">
        <ele>503.762</ele>
        <time>2018-06-07T12:38:46Z</time>
      </trkpt>
      <trkpt lat="45.95722" lon="4.56825">
        <ele>502.429</ele>
        <time>2018-06-07T12:38:51Z</time>
      </trkpt>
      <trkpt lat="45.95718" lon="4.56823">
        <ele>500.708</ele>
        <time>2018-06-07T12:38:57Z</time>
      </trkpt>
      <trkpt lat="45.95715" lon="4.56821">
        <ele>499.293</ele>
        <time>2018-06-07T12:39:03Z</time>
      </trkpt>
      <trkpt lat="45.95708" lon="4.56816">
        <ele>497.948</ele>
        <time>2018-06-07T12:39:09Z</time>
      </trkpt>
      <trkpt lat="45.95703" lon="4.56814">
        <ele>496.412</ele>
        <time>2018-06-07T12:39:15Z</time>
      </trkpt>
      <trkpt lat="45.95698" lon="4.56809">
        <ele>495.135</ele>
        <time>2018-06-07T12:39:20Z</time>
      </trkpt>
      <trkpt lat="45.95695" lon="4.56804">
        <ele>493.466</ele>
        <time>2018-06-07T12:39:26Z</time>
      </trkpt>
      <trkpt lat="45.95691" lon="4.56797">
        <ele>491.867</ele>
        <time>2018-06-07T12:39:32Z</time>
      </trkpt>
      <trkpt lat="45.95688" lon="4.56796">
        <ele>490.361</ele>
        <time>2018-06-07T12:39:37Z</time>
      </trkpt>
      <trkpt lat="45.95683" lon="4.56797">
        <ele>488.907</ele>
        <time>2018-06-07T12:39:42Z</time>
      </trkpt>
      <trkpt lat="45.95677" lon="4.56795">
        <ele>487.481</ele>
        <time>2018-06-07T12:39:47Z</time>
      </trkpt>
      <trkpt lat="45.95672" lon="4.56796">
        <ele>485.926</ele>
        <time>2018-06-07T12:39:53Z</time>
      </trkpt>
      <trkpt lat="45.95665" lon="4.56797">
        <ele>484.565</ele>
        <time>2018-06-07T12:39:58Z</time>
      </trkpt>
      <trkpt lat="45.95664" lon="4.568">
        <ele>483.135</ele>
        <time>2018-06-07T12:40:03Z</time>
      </trkpt>
      <trkpt lat="45.95656" lon="4.56801">
        <ele>481.302</ele>
        <time>2018-06-07T12:40:09Z</time>
      </trkpt>
      <trkpt lat="45.95653" lon="4.56802">
        <ele>480.149</ele>
        <time>2018-06-07T12:40:14Z</time>
      </trkpt>
      <trkpt lat="45.95648" lon="4.56804">
        <ele>479.303</ele>
        <time>2018-06-07T12:40:19Z</time>
      </trkpt>
      <trkpt lat="45.95645" lon="4.56806">
        <ele>478.021</ele>
        <time>2018-06-07T12:40:24Z</time>
      </trkpt>
      <trkpt lat="45.95638" lon="4.56806">
        <ele>476.491</ele>
        <time>2018-06-07T12:40:30Z</time>
      </trkpt>
      <trkpt lat="45.95633" lon="4.56808">
        <ele>475.237</ele>
        <time>2018-06-07T12:40:35Z</time>
      </trkpt>
      <trkpt lat="45.95627" lon="4.56811">
        <ele>473.849</ele>
        <time>2018-06-07T12:40:40Z</time>
      </trkpt>
      <trkpt lat="45.95623" lon="4.56812">
        <ele>472.01</ele>
        <time>2018-06-07T12:40:46Z</time>
      </trkpt>
      <trkpt lat="45.95619" lon="4.56814">
        <ele>470.605</ele>
        <time>2018-06-07T12:40:51Z</time>
      </trkpt>
      <trkpt lat="45.95614" lon="4.56812">
        <ele>469.291</ele>
        <time>2018-06-07T12:40:57Z</time>
      </trkpt>
      <trkpt lat="45.95606" lon="4.56813">
        <ele>468.1</ele>
        <time>2018-06-07T12:41:03Z</time>
      </trkpt>
      <trkpt lat="45.95601" lon="4.56812">
        <ele>466.742</ele>
        <time>2018-06-07T12:41:09Z</time>
      </trkpt>
      <trkpt lat="45.95597" lon="4.56812">
        <ele>465.697</ele>
        <time>2018-06-07T12:41:14Z</time>
      </trkpt>
      <trkpt lat="45.95592" lon="4.56812">
        <ele>464.646</ele>
        <time>2018-06-07T12:41:19Z</time>
      </trkpt>
      <trkpt lat="45.95585" lon="4.56811">
        <ele>463.248</ele>
        <time>2018-06-07T12:41:25Z</time>
      </trkpt>
      <trkpt lat="45.95579" lon="4.56812">
        <ele>462.071</ele>
        <time>2018-06-07T12:41:31Z</time>
      </trkpt>
      <trkpt lat="45.95573" lon="4.56811">
        <ele>461.097</ele>
        <time>2018-06-07T12:41:36Z</time>
      </trkpt>
      <trkpt lat="45.9557" lon="4.56811">
        <ele>459.75</ele>
        <time>2018-06-07T12:41:42Z</time>
      </trkpt>
      <trkpt lat="45.9556" lon="4.56807">
        <ele>458.259</ele>
        <time>2018-06-07T12:41:48Z</time>
      </trkpt>
      <trkpt lat="45.95558" lon="4.56805">
        <ele>456.913</ele>
        <time>2018-06-07T12:41:53Z</time>
      </trkpt>
      <trkpt lat="45.95555" lon="4.56802">
        <ele>455.698</ele>
        <time>2018-06-07T12:41:58Z</time>
      </trkpt>
      <trkpt lat="45.95548" lon="4.56802">
        <ele>454.576</ele>
        <time>2018-06-07T12:42:04Z</time>
      </trkpt>
      <trkpt lat="45.95543" lon="4.56802">
        <ele>453.214</ele>
        <time>2018-06-07T12:42:10Z</time>
      </trkpt>
      <trkpt lat="45.95537" lon="4.56801">
        <ele>452.188</ele>
        <time>2018-06-07T12:42:15Z</time>
      </trkpt>
      <trkpt lat="45.95532" lon="4.56803">
        <ele>450.539</ele>
        <time>2018-06-07T12:42:21Z</time>
      </trkpt>
      <trkpt lat="45.95526" lon="4.56804">
        <ele>449.218</ele>
        <time>2018-06-07T12:42:26Z</time>
      </trkpt>
      <trkpt lat="45.95521" lon="4.56806">
        <ele>447.735</ele>
        <time>2018-06-07T12:42:32Z</time>
      </trkpt>
      <trkpt lat="45.95514" lon="4.56806">
        <ele>446.62</ele>
        <time>2018-06-07T12:42:37Z</time>
      </trkpt>
      <trkpt lat="45.95508" lon="4.56808">
        <ele>445.733</ele>
        <time>2018-06-07T12:42:43Z</time>
      </trkpt>
      <trkpt lat="45.95502" lon="4.56808">
        <ele>444.48</ele>
        <time>2018-06-07T12:42:49Z</time>
      </trkpt>
      <trkpt lat="45.95496" lon="4.56808">
        <ele>443.377</ele>
        <time>2018-06-07T12:42:55Z</time>
      </trkpt>
      <trkpt lat="45.95489" lon="4.56807">
        <ele>442.527</ele>
        <time>2018-06-07T12:43:01Z</time>
      </trkpt>
      <trkpt lat="45.95488" lon="4.56807">
        <ele>441.551</ele>
        <time>2018-06-07T12:43:06Z</time>
      </trkpt>
      <trkpt lat="45.9548" lon="4.56808">
        <ele>440.628</ele>
        <time>2018-06-07T12:43:12Z</time>
      </trkpt>
      <trkpt lat="45.95475" lon="4.56807">
        <ele>439.769</ele>
        <time>2018-06-07T12:43:17Z</time>
      </trkpt>
      <trkpt lat="45.95468" lon="4.56806">
        <ele>438.832</ele>
        <time>2018-06-07T12:43:23Z</time>
      </trkpt>
      <trkpt lat="45.9546" lon="4.56804">
        <ele>437.399</ele>
        <time>2018-06-07T12:43:29Z</time>
      </trkpt>
      <trkpt lat="45.95454" lon="4.56804">
        <ele>436.206</ele>
        <time>2018-06-07T12:43:34Z</time>
      </trkpt>
      <trkpt lat="45.95447" lon="4.56802">
        <ele>435.024</ele>
        <time>2018-06-07T12:43:40Z</time>
      </trkpt>
      <trkpt lat="45.95445" lon="4.56802">
        <ele>434.245</ele>
        <time>2018-06-07T12:43:45Z</time>
      </trkpt>
      <trkpt lat="45.95439" lon="4.568">
        <ele>433.514</ele>
        <time>2018-06-07T12:43:51Z</time>
      </trkpt>
      <trkpt lat="45.95433" lon="4.568">
        <ele>432.81</ele>
        <time>2018-06-07T12:43:56Z</time>
      </trkpt>
      <trkpt lat="45.95425" lon="4.568">
        <ele>431.904</ele>
        <time>2018-06-07T12:44:02Z</time>
      </trkpt>
      <trkpt lat="45.95416" lon="4.56799">
        <ele>431.322</ele>
        <time>2018-06-07T12:44:08Z</time>
      </trkpt>
      <trkpt lat="45.95409" lon="4.56798">
        <ele>430.747</ele>
        <time>2018-06-07T12:44:13Z</time>
      </trkpt>
      <trkpt lat="45.954" lon="4.56794">
        <ele>429.933</ele>
        <time>2018-06-07T12:44:19Z</time>
      </trkpt>
      <trkpt lat="45.95397" lon="4.56794">
        <ele>429.105</ele>
        <time>2018-06-07T12:44:24Z</time>
      </trkpt>
      <trkpt lat="45.95391" lon="4.56788">
        <ele>427.964</ele>
        <time>2018-06-07T12:44:30Z</time>
      </trkpt>
      <trkpt lat="45.95385" lon="4.56787">
        <ele>426.664</ele>
        <time>2018-06-07T12:44:36Z</time>
      </trkpt>
      <trkpt lat="45.95382" lon="4.56784">
        <ele>425.296</ele>
        <time>2018-06-07T12:44:42Z</time>
      </trkpt>
      <trkpt lat="45.95378" lon="4.56777">
        <ele>424.459</ele>
        <time>2018-06-07T12:44:47Z</time>
      </trkpt>
      <trkpt lat="45.95373" lon="4.56773">
        <ele>423.638</ele>
        <time>2018-06-07T12:44:53Z</time>
      </trkpt>
      <trkpt lat="45.95368" lon="4.5677">
        <ele>423.158</ele>
        <time>2018-06-07T12:44:58Z</time>
      </trkpt>
      <trkpt lat="45.95362" lon="4.56768">
        <ele>422.361</ele>
        <time>2018-06-07T12:45:04Z</time>
      </trkpt>
      <trkpt lat="45.95358" lon="4.56767">
        <ele>421.022</ele>
        <time>2018-06-07T12:45:09Z</time>
      </trkpt>
      <trkpt lat="45.9535" lon="4.56766">
        <ele>419.586</ele>
        <time>2018-06-07T12:45:15Z</time>
      </trkpt>
      <trkpt lat="45.95345" lon="4.56764">
        <ele>418.539</ele>
        <time>2018-06-07T12:45:20Z</time>
      </trkpt>
      <trkpt lat="45.9534" lon="4.56759">
        <ele>417.348</ele>
        <time>2018-06-07T12:45:25Z</time>
      </trkpt>
      <trkpt lat="45.95334" lon="4.56756">
        <ele>415.889</ele>
        <time>2018-06-07T12:45:31Z</time>
      </trkpt>
      <trkpt lat="45.95332" lon="4.56756">
        <ele>413.598</ele>
        <time>2018-06-07T12:45:37Z</time>
      </trkpt>
      <trkpt lat="45.95325" lon="4.56757">
        <ele>411.924</ele>
        <time>2018-06-07T12:45:42Z</time>
      </trkpt>
      <trkpt lat="45.95325" lon="4.56759">
        <ele>411.073</ele>
        <time>2018-06-07T12:45:47Z</time>
      </trkpt>
      <trkpt lat="45.95326" lon="4.5676">
        <ele>410.448</ele>
        <time>2018-06-07T12:45:53Z</time>
      </trkpt>
      <trkpt lat="45.95328" lon="4.56765">
        <ele>409.123</ele>
        <time>2018-06-07T12:45:58Z</time>
      </trkpt>
      <trkpt lat="45.95328" lon="4.5677">
        <ele>407.653</ele>
        <time>2018-06-07T12:46:04Z</time>
      </trkpt>
      <trkpt lat="45.95329" lon="4.56772">
        <ele>407.108</ele>
        <time>2018-06-07T12:46:09Z</time>
      </trkpt>
      <trkpt lat="45.95331" lon="4.56776">
        <ele>406.234</ele>
        <time>2018-06-07T12:46:15Z</time>
      </trkpt>
      <trkpt lat="45.95334" lon="4.56779">
        <ele>405.774</ele>
        <time>2018-06-07T12:46:20Z</time>
      </trkpt>
      <trkpt lat="45.95338" lon="4.56788">
        <ele>405.418</ele>
        <time>2018-06-07T12:46:26Z</time>
      </trkpt>
      <trkpt lat="45.9534" lon="4.56793">
        <ele>404.918</ele>
        <time>2018-06-07T12:46:31Z</time>
      </trkpt>
      <trkpt lat="45.95342" lon="4.568">
        <ele>403.731</ele>
        <time>2018-06-07T12:46:37Z</time>
      </trkpt>
      <trkpt lat="45.95345" lon="4.56804">
        <ele>402.314</ele>
        <time>2018-06-07T12:46:42Z</time>
      </trkpt>
      <trkpt lat="45.95349" lon="4.56809">
        <ele>401.224</ele>
        <time>2018-06-07T12:46:48Z</time>
      </trkpt>
      <trkpt lat="45.95356" lon="4.5682">
        <ele>400.364</ele>
        <time>2018-06-07T12:46:54Z</time>
      </trkpt>
      <trkpt lat="45.95359" lon="4.56825">
        <ele>399.719</ele>
        <time>2018-06-07T12:46:59Z</time>
      </trkpt>
      <trkpt lat="45.95364" lon="4.56836">
        <ele>399.498</ele>
        <time>2018-06-07T12:47:05Z</time>
      </trkpt>
      <trkpt lat="45.95366" lon="4.56843">
        <ele>399.169</ele>
        <time>2018-06-07T12:47:10Z</time>
      </trkpt>
      <trkpt lat="45.9537" lon="4.56852">
        <ele>398.888</ele>
        <time>2018-06-07T12:47:16Z</time>
      </trkpt>
      <trkpt lat="45.95373" lon="4.5686">
        <ele>399.111</ele>
        <time>2018-06-07T12:47:21Z</time>
      </trkpt>
      <trkpt lat="45.95377" lon="4.56872">
        <ele>399.306</ele>
        <time>2018-06-07T12:47:27Z</time>
      </trkpt>
      <trkpt lat="45.95379" lon="4.56879">
        <ele>398.984</ele>
        <time>2018-06-07T12:47:33Z</time>
      </trkpt>
      <trkpt lat="45.95382" lon="4.5689">
        <ele>399.103</ele>
        <time>2018-06-07T12:47:39Z</time>
      </trkpt>
      <trkpt lat="45.95386" lon="4.569">
        <ele>399.462</ele>
        <time>2018-06-07T12:47:45Z</time>
      </trkpt>
      <trkpt lat="45.95388" lon="4.56912">
        <ele>399.876</ele>
        <time>2018-06-07T12:47:51Z</time>
      </trkpt>
      <trkpt lat="45.9539" lon="4.5692">
        <ele>400.336</ele>
        <time>2018-06-07T12:47:57Z</time>
      </trkpt>
      <trkpt lat="45.95395" lon="4.56932">
        <ele>400.658</ele>
        <time>2018-06-07T12:48:03Z</time>
      </trkpt>
      <trkpt lat="45.95399" lon="4.56943">
        <ele>400.691</ele>
        <time>2018-06-07T12:48:09Z</time>
      </trkpt>
      <trkpt lat="45.95401" lon="4.5695">
        <ele>401.239</ele>
        <time>2018-06-07T12:48:14Z</time>
      </trkpt>
      <trkpt lat="45.95402" lon="4.56957">
        <ele>401.545</ele>
        <time>2018-06-07T12:48:20Z</time>
      </trkpt>
      <trkpt lat="45.95404" lon="4.56966">
        <ele>401.83</ele>
        <time>2018-06-07T12:48:25Z</time>
      </trkpt>
      <trkpt lat="45.95408" lon="4.56972">
        <ele>401.573</ele>
        <time>2018-06-07T12:48:30Z</time>
      </trkpt>
      <trkpt lat="45.95413" lon="4.56978">
        <ele>400.578</ele>
        <time>2018-06-07T12:48:36Z</time>
      </trkpt>
      <trkpt lat="45.95415" lon="4.56983">
        <ele>400.085</ele>
        <time>2018-06-07T12:48:41Z</time>
      </trkpt>
      <trkpt lat="45.95418" lon="4.56993">
        <ele>399.275</ele>
        <time>2018-06-07T12:48:46Z</time>
      </trkpt>
      <trkpt lat="45.95422" lon="4.57001">
        <ele>398.514</ele>
        <time>2018-06-07T12:48:51Z</time>
      </trkpt>
      <trkpt lat="45.95424" lon="4.57006">
        <ele>398.068</ele>
        <time>2018-06-07T12:48:56Z</time>
      </trkpt>
      <trkpt lat="45.95428" lon="4.57014">
        <ele>398.605</ele>
        <time>2018-06-07T12:49:02Z</time>
      </trkpt>
      <trkpt lat="45.9543" lon="4.57024">
        <ele>398.981</ele>
        <time>2018-06-07T12:49:08Z</time>
      </trkpt>
      <trkpt lat="45.95432" lon="4.5703">
        <ele>399.724</ele>
        <time>2018-06-07T12:49:14Z</time>
      </trkpt>
      <trkpt lat="45.95436" lon="4.57036">
        <ele>400.066</ele>
        <time>2018-06-07T12:49:20Z</time>
      </trkpt>
      <trkpt lat="45.95441" lon="4.5704">
        <ele>400.007</ele>
        <time>2018-06-07T12:49:25Z</time>
      </trkpt>
      <trkpt lat="45.95444" lon="4.57045">
        <ele>400.544</ele>
        <time>2018-06-07T12:49:31Z</time>
      </trkpt>
      <trkpt lat="45.9545" lon="4.57057">
        <ele>400.777</ele>
        <time>2018-06-07T12:49:37Z</time>
      </trkpt>
      <trkpt lat="45.95455" lon="4.57064">
        <ele>400.478</ele>
        <time>2018-06-07T12:49:43Z</time>
      </trkpt>
      <trkpt lat="45.95458" lon="4.57075">
        <ele>400.265</ele>
        <time>2018-06-07T12:49:49Z</time>
      </trkpt>
      <trkpt lat="45.95462" lon="4.5708">
        <ele>399.989</ele>
        <time>2018-06-07T12:49:55Z</time>
      </trkpt>
      <trkpt lat="45.95467" lon="4.57089">
        <ele>399.872</ele>
        <time>2018-06-07T12:50:01Z</time>
      </trkpt>
      <trkpt lat="45.95471" lon="4.57096">
        <ele>400.051</ele>
        <time>2018-06-07T12:50:07Z</time>
      </trkpt>
      <trkpt lat="45.95476" lon="4.57106">
        <ele>400.231</ele>
        <time>2018-06-07T12:50:13Z</time>
      </trkpt>
      <trkpt lat="45.95481" lon="4.57114">
        <ele>400.635</ele>
        <time>2018-06-07T12:50:19Z</time>
      </trkpt>
      <trkpt lat="45.95484" lon="4.57123">
        <ele>401.823</ele>
        <time>2018-06-07T12:50:25Z</time>
      </trkpt>
      <trkpt lat="45.9549" lon="4.57132">
        <ele>402.667</ele>
        <time>2018-06-07T12:50:31Z</time>
      </trkpt>
      <trkpt lat="45.95492" lon="4.57138">
        <ele>403.591</ele>
        <time>2018-06-07T12:50:37Z</time>
      </trkpt>
      <trkpt lat="45.95499" lon="4.57144">
        <ele>404.144</ele>
        <time>2018-06-07T12:50:42Z</time>
      </trkpt>
      <trkpt lat="45.95502" lon="4.57153">
        <ele>404.733</ele>
        <time>2018-06-07T12:50:47Z</time>
      </trkpt>
      <trkpt lat="45.95508" lon="4.5716">
        <ele>405.683</ele>
        <time>2018-06-07T12:50:53Z</time>
      </trkpt>
      <trkpt lat="45.95514" lon="4.57164">
        <ele>406.539</ele>
        <time>2018-06-07T12:50:59Z</time>
      </trkpt>
      <trkpt lat="45.9552" lon="4.57172">
        <ele>407.283</ele>
        <time>2018-06-07T12:51:05Z</time>
      </trkpt>
      <trkpt lat="45.95526" lon="4.5718">
        <ele>408.276</ele>
        <time>2018-06-07T12:51:11Z</time>
      </trkpt>
      <trkpt lat="45.95533" lon="4.57189">
        <ele>409.46</ele>
        <time>2018-06-07T12:51:17Z</time>
      </trkpt>
      <trkpt lat="45.95539" lon="4.57202">
        <ele>409.795</ele>
        <time>2018-06-07T12:51:23Z</time>
      </trkpt>
      <trkpt lat="45.95544" lon="4.5721">
        <ele>409.64</ele>
        <time>2018-06-07T12:51:29Z</time>
      </trkpt>
      <trkpt lat="45.95545" lon="4.57213">
        <ele>409.419</ele>
        <time>2018-06-07T12:51:34Z</time>
      </trkpt>
      <trkpt lat="45.95545" lon="4.57221">
        <ele>409.013</ele>
        <time>2018-06-07T12:51:40Z</time>
      </trkpt>
      <trkpt lat="45.9555" lon="4.57229">
        <ele>408.799</ele>
        <time>2018-06-07T12:51:46Z</time>
      </trkpt>
      <trkpt lat="45.95551" lon="4.57237">
        <ele>408.254</ele>
        <time>2018-06-07T12:51:51Z</time>
      </trkpt>
      <trkpt lat="45.95556" lon="4.57246">
        <ele>407.739</ele>
        <time>2018-06-07T12:51:57Z</time>
      </trkpt>
      <trkpt lat="45.95559" lon="4.57257">
        <ele>407.128</ele>
        <time>2018-06-07T12:52:03Z</time>
      </trkpt>
      <trkpt lat="45.95563" lon="4.57267">
        <ele>406.72</ele>
        <time>2018-06-07T12:52:09Z</time>
      </trkpt>
      <trkpt lat="45.95564" lon="4.57277">
        <ele>406.122</ele>
        <time>2018-06-07T12:52:14Z</time>
      </trkpt>
      <trkpt lat="45.95561" lon="4.57286">
        <ele>404.782</ele>
        <time>2018-06-07T12:52:20Z</time>
      </trkpt>
      <trkpt lat="45.9556" lon="4.57295">
        <ele>403.636</ele>
        <time>2018-06-07T12:52:25Z</time>
      </trkpt>
      <trkpt lat="45.95557" lon="4.57303">
        <ele>402.973</ele>
        <time>2018-06-07T12:52:31Z</time>
      </trkpt>
      <trkpt lat="45.95552" lon="4.57315">
        <ele>403.024</ele>
        <time>2018-06-07T12:52:37Z</time>
      </trkpt>
      <trkpt lat="45.95552" lon="4.57321">
        <ele>403.414</ele>
        <time>2018-06-07T12:52:42Z</time>
      </trkpt>
      <trkpt lat="45.95551" lon="4.57328">
        <ele>403.611</ele>
        <time>2018-06-07T12:52:48Z</time>
      </trkpt>
      <trkpt lat="45.9555" lon="4.57331">
        <ele>404.256</ele>
        <time>2018-06-07T12:52:54Z</time>
      </trkpt>
      <trkpt lat="45.9555" lon="4.5733">
        <ele>405.204</ele>
        <time>2018-06-07T12:52:59Z</time>
      </trkpt>
      <trkpt lat="45.95549" lon="4.57334">
        <ele>406.272</ele>
        <time>2018-06-07T12:53:05Z</time>
      </trkpt>
      <trkpt lat="45.95545" lon="4.57341">
        <ele>407.121</ele>
        <time>2018-06-07T12:53:11Z</time>
      </trkpt>
      <trkpt lat="45.9554" lon="4.57347">
        <ele>407.59</ele>
        <time>2018-06-07T12:53:17Z</time>
      </trkpt>
      <trkpt lat="45.95539" lon="4.57354">
        <ele>408.474</ele>
        <time>2018-06-07T12:53:23Z</time>
      </trkpt>
      <trkpt lat="45.95534" lon="4.57363">
        <ele>408.522</ele>
        <time>2018-06-07T12:53:29Z</time>
      </trkpt>
      <trkpt lat="45.95531" lon="4.57369">
        <ele>408.439</ele>
        <time>2018-06-07T12:53:34Z</time>
      </trkpt>
      <trkpt lat="45.95529" lon="4.57371">
        <ele>408.639</ele>
        <time>2018-06-07T12:53:40Z</time>
      </trkpt>
      <trkpt lat="45.95526" lon="4.57379">
        <ele>409.035</ele>
        <time>2018-06-07T12:53:45Z</time>
      </trkpt>
      <trkpt lat="45.95523" lon="4.57388">
        <ele>409.252</ele>
        <time>2018-06-07T12:53:51Z</time>
      </trkpt>
      <trkpt lat="45.95522" lon="4.57395">
        <ele>409.815</ele>
        <time>2018-06-07T12:53:56Z</time>
      </trkpt>
      <trkpt lat="45.95517" lon="4.57404">
        <ele>411.249</ele>
        <time>2018-06-07T12:54:02Z</time>
      </trkpt>
      <trkpt lat="45.95517" lon="4.57408">
        <ele>412.437</ele>
        <time>2018-06-07T12:54:07Z</time>
      </trkpt>
      <trkpt lat="45.95515" lon="4.57413">
        <ele>413.629</ele>
        <time>2018-06-07T12:54:13Z</time>
      </trkpt>
      <trkpt lat="45.95509" lon="4.5742">
        <ele>414.859</ele>
        <time>2018-06-07T12:54:19Z</time>
      </trkpt>
      <trkpt lat="45.95507" lon="4.57428">
        <ele>415.838</ele>
        <time>2018-06-07T12:54:24Z</time>
      </trkpt>
      <trkpt lat="45.95505" lon="4.57435">
        <ele>416.478</ele>
        <time>2018-06-07T12:54:30Z</time>
      </trkpt>
      <trkpt lat="45.95502" lon="4.57444">
        <ele>416.961</ele>
        <time>2018-06-07T12:54:36Z</time>
      </trkpt>
      <trkpt lat="45.955" lon="4.57447">
        <ele>417.532</ele>
        <time>2018-06-07T12:54:41Z</time>
      </trkpt>
      <trkpt lat="45.95498" lon="4.57453">
        <ele>418.143</ele>
        <time>2018-06-07T12:54:47Z</time>
      </trkpt>
      <trkpt lat="45.95495" lon="4.57458">
        <ele>418.727</ele>
        <time>2018-06-07T12:54:52Z</time>
      </trkpt>
      <trkpt lat="45.95492" lon="4.57465">
        <ele>419.592</ele>
        <time>2018-06-07T12:54:57Z</time>
      </trkpt>
      <trkpt lat="45.9549" lon="4.57472">
        <ele>421.013</ele>
        <time>2018-06-07T12:55:03Z</time>
      </trkpt>
      <trkpt lat="45.95485" lon="4.57478">
        <ele>422.281</ele>
        <time>2018-06-07T12:55:09Z</time>
      </trkpt>
      <trkpt lat="45.9548" lon="4.57484">
        <ele>423.525</ele>
        <time>2018-06-07T12:55:15Z</time>
      </trkpt>
      <trkpt lat="45.95476" lon="4.57488">
        <ele>424.751</ele>
        <time>2018-06-07T12:55:20Z</time>
      </trkpt>
      <trkpt lat="45.95473" lon="4.57493">
        <ele>426.127</ele>
        <time>2018-06-07T12:55:26Z</time>
      </trkpt>
      <trkpt lat="45.9547" lon="4.575">
        <ele>427.812</ele>
        <time>2018-06-07T12:55:32Z</time>
      </trkpt>
      <trkpt lat="45.95467" lon="4.57506">
        <ele>428.921</ele>
        <time>2018-06-07T12:55:38Z</time>
      </trkpt>
      <trkpt lat="45.95465" lon="4.57514">
        <ele>429.712</ele>
        <time>2018-06-07T12:55:44Z</time>
      </trkpt>
      <trkpt lat="45.95458" lon="4.57517">
        <ele>430.802</ele>
        <time>2018-06-07T12:55:50Z</time>
      </trkpt>
      <trkpt lat="45.95456" lon="4.57522">
        <ele>431.501</ele>
        <time>2018-06-07T12:55:55Z</time>
      </trkpt>
      <trkpt lat="45.95453" lon="4.57526">
        <ele>432.326</ele>
        <time>2018-06-07T12:56:00Z</time>
      </trkpt>
      <trkpt lat="45.9545" lon="4.57534">
        <ele>433.622</ele>
        <time>2018-06-07T12:56:06Z</time>
      </trkpt>
      <trkpt lat="45.95447" lon="4.57541">
        <ele>434.945</ele>
        <time>2018-06-07T12:56:12Z</time>
      </trkpt>
      <trkpt lat="45.95442" lon="4.57549">
        <ele>436.172</ele>
        <time>2018-06-07T12:56:18Z</time>
      </trkpt>
      <trkpt lat="45.9544" lon="4.57557">
        <ele>437.313</ele>
        <time>2018-06-07T12:56:23Z</time>
      </trkpt>
      <trkpt lat="45.95437" lon="4.57564">
        <ele>438.697</ele>
        <time>2018-06-07T12:56:29Z</time>
      </trkpt>
      <trkpt lat="45.95438" lon="4.57574">
        <ele>439.707</ele>
        <time>2018-06-07T12:56:34Z</time>
      </trkpt>
      <trkpt lat="45.95438" lon="4.57583">
        <ele>440.529</ele>
        <time>2018-06-07T12:56:40Z</time>
      </trkpt>
      <trkpt lat="45.95435" lon="4.57586">
        <ele>441.617</ele>
        <time>2018-06-07T12:56:46Z</time>
      </trkpt>
      <trkpt lat="45.9543" lon="4.57586">
        <ele>442.873</ele>
        <time>2018-06-07T12:56:52Z</time>
      </trkpt>
      <trkpt lat="45.95424" lon="4.57585">
        <ele>443.958</ele>
        <time>2018-06-07T12:56:58Z</time>
      </trkpt>
      <trkpt lat="45.9542" lon="4.5758">
        <ele>444.523</ele>
        <time>2018-06-07T12:57:04Z</time>
      </trkpt>
      <trkpt lat="45.95423" lon="4.57579">
        <ele>445.042</ele>
        <time>2018-06-07T12:57:10Z</time>
      </trkpt>
      <trkpt lat="45.95423" lon="4.57577">
        <ele>445.062</ele>
        <time>2018-06-07T12:57:15Z</time>
      </trkpt>
      <trkpt lat="45.95422" lon="4.57575">
        <ele>445.108</ele>
        <time>2018-06-07T12:57:21Z</time>
      </trkpt>
      <trkpt lat="45.95423" lon="4.57575">
        <ele>445.062</ele>
        <time>2018-06-07T12:57:26Z</time>
      </trkpt>
      <trkpt lat="45.95422" lon="4.57573">
        <ele>445.422</ele>
        <time>2018-06-07T12:57:31Z</time>
      </trkpt>
      <trkpt lat="45.95422" lon="4.57575">
        <ele>446.265</ele>
        <time>2018-06-07T12:57:37Z</time>
      </trkpt>
      <trkpt lat="45.95418" lon="4.5757">
        <ele>447.278</ele>
        <time>2018-06-07T12:57:43Z</time>
      </trkpt>
      <trkpt lat="45.95417" lon="4.5757">
        <ele>447.996</ele>
        <time>2018-06-07T12:57:48Z</time>
      </trkpt>
      <trkpt lat="45.95417" lon="4.57572">
        <ele>449.017</ele>
        <time>2018-06-07T12:57:54Z</time>
      </trkpt>
      <trkpt lat="45.95418" lon="4.57574">
        <ele>449.574</ele>
        <time>2018-06-07T12:57:59Z</time>
      </trkpt>
      <trkpt lat="45.95418" lon="4.57577">
        <ele>450.59</ele>
        <time>2018-06-07T12:58:05Z</time>
      </trkpt>
      <trkpt lat="45.95417" lon="4.57577">
        <ele>451.562</ele>
        <time>2018-06-07T12:58:11Z</time>
      </trkpt>
      <trkpt lat="45.95419" lon="4.57579">
        <ele>451.866</ele>
        <time>2018-06-07T12:58:16Z</time>
      </trkpt>
      <trkpt lat="45.95423" lon="4.57583">
        <ele>452.143</ele>
        <time>2018-06-07T12:58:22Z</time>
      </trkpt>
      <trkpt lat="45.95424" lon="4.57581">
        <ele>452.025</ele>
        <time>2018-06-07T12:58:27Z</time>
      </trkpt>
      <trkpt lat="45.95422" lon="4.5758">
        <ele>452.015</ele>
        <time>2018-06-07T12:58:33Z</time>
      </trkpt>
      <trkpt lat="45.95423" lon="4.57579">
        <ele>451.524</ele>
        <time>2018-06-07T12:58:39Z</time>
      </trkpt>
      <trkpt lat="45.95422" lon="4.5758">
        <ele>451.378</ele>
        <time>2018-06-07T12:58:44Z</time>
      </trkpt>
      <trkpt lat="45.95418" lon="4.57581">
        <ele>451.339</ele>
        <time>2018-06-07T12:58:51Z</time>
      </trkpt>
      <trkpt lat="45.95415" lon="4.57585">
        <ele>451.56</ele>
        <time>2018-06-07T12:58:56Z</time>
      </trkpt>
      <trkpt lat="45.95415" lon="4.57585">
        <ele>451.811</ele>
        <time>2018-06-07T12:59:01Z</time>
      </trkpt>
      <trkpt lat="45.95415" lon="4.57585">
        <ele>451.976</ele>
        <time>2018-06-07T12:59:07Z</time>
      </trkpt>
      <trkpt lat="45.95415" lon="4.57585">
        <ele>452.268</ele>
        <time>2018-06-07T12:59:13Z</time>
      </trkpt>
      <trkpt lat="45.95415" lon="4.57585">
        <ele>452.391</ele>
        <time>2018-06-07T12:59:19Z</time>
      </trkpt>
      <trkpt lat="45.95415" lon="4.57585">
        <ele>452.548</ele>
        <time>2018-06-07T12:59:25Z</time>
      </trkpt>
      <trkpt lat="45.95415" lon="4.57585">
        <ele>452.701</ele>
        <time>2018-06-07T12:59:30Z</time>
      </trkpt>
      <trkpt lat="45.95415" lon="4.57585">
        <ele>452.863</ele>
        <time>2018-06-07T12:59:36Z</time>
      </trkpt>
      <trkpt lat="45.95415" lon="4.57585">
        <ele>452.935</ele>
        <time>2018-06-07T12:59:41Z</time>
      </trkpt>
      <trkpt lat="45.95418" lon="4.57581">
        <ele>453.422</ele>
        <time>2018-06-07T12:59:46Z</time>
      </trkpt>
      <trkpt lat="45.95422" lon="4.57581">
        <ele>454.473</ele>
        <time>2018-06-07T12:59:52Z</time>
      </trkpt>
      <trkpt lat="45.95423" lon="4.57581">
        <ele>455.491</ele>
        <time>2018-06-07T12:59:59Z</time>
      </trkpt>
      <trkpt lat="45.95424" lon="4.57578">
        <ele>455.039</ele>
        <time>2018-06-07T13:00:04Z</time>
      </trkpt>
      <trkpt lat="45.95429" lon="4.57577">
        <ele>454.514</ele>
        <time>2018-06-07T13:00:09Z</time>
      </trkpt>
      <trkpt lat="45.95432" lon="4.57573">
        <ele>454.072</ele>
        <time>2018-06-07T13:00:14Z</time>
      </trkpt>
      <trkpt lat="45.95432" lon="4.57573">
        <ele>453.584</ele>
        <time>2018-06-07T13:00:20Z</time>
      </trkpt>
      <trkpt lat="45.95432" lon="4.57573">
        <ele>453.417</ele>
        <time>2018-06-07T13:00:26Z</time>
      </trkpt>
      <trkpt lat="45.95432" lon="4.57573">
        <ele>453.328</ele>
        <time>2018-06-07T13:00:31Z</time>
      </trkpt>
      <trkpt lat="45.95432" lon="4.57573">
        <ele>453.324</ele>
        <time>2018-06-07T13:00:36Z</time>
      </trkpt>
      <trkpt lat="45.95432" lon="4.57573">
        <ele>453.267</ele>
        <time>2018-06-07T13:00:42Z</time>
      </trkpt>
      <trkpt lat="45.95432" lon="4.57573">
        <ele>453.167</ele>
        <time>2018-06-07T13:00:48Z</time>
      </trkpt>
      <trkpt lat="45.95431" lon="4.57573">
        <ele>452.35</ele>
        <time>2018-06-07T13:00:54Z</time>
      </trkpt>
      <trkpt lat="45.95431" lon="4.57573">
        <ele>452.275</ele>
        <time>2018-06-07T13:01:00Z</time>
      </trkpt>
      <trkpt lat="45.9543" lon="4.57573">
        <ele>452.123</ele>
        <time>2018-06-07T13:01:06Z</time>
      </trkpt>
      <trkpt lat="45.9543" lon="4.57573">
        <ele>452.151</ele>
        <time>2018-06-07T13:01:12Z</time>
      </trkpt>
      <trkpt lat="45.9543" lon="4.57573">
        <ele>452.081</ele>
        <time>2018-06-07T13:01:18Z</time>
      </trkpt>
      <trkpt lat="45.9543" lon="4.57573">
        <ele>451.953</ele>
        <time>2018-06-07T13:01:23Z</time>
      </trkpt>
      <trkpt lat="45.95429" lon="4.57573">
        <ele>451.55</ele>
        <time>2018-06-07T13:01:29Z</time>
      </trkpt>
      <trkpt lat="45.95429" lon="4.57573">
        <ele>451.453</ele>
        <time>2018-06-07T13:01:34Z</time>
      </trkpt>
      <trkpt lat="45.95428" lon="4.57572">
        <ele>451.24</ele>
        <time>2018-06-07T13:01:40Z</time>
      </trkpt>
      <trkpt lat="45.95428" lon="4.57572">
        <ele>450.955</ele>
        <time>2018-06-07T13:01:46Z</time>
      </trkpt>
      <trkpt lat="45.95428" lon="4.57572">
        <ele>450.931</ele>
        <time>2018-06-07T13:01:52Z</time>
      </trkpt>
      <trkpt lat="45.95428" lon="4.57572">
        <ele>450.894</ele>
        <time>2018-06-07T13:01:58Z</time>
      </trkpt>
      <trkpt lat="45.95428" lon="4.57572">
        <ele>450.87</ele>
        <time>2018-06-07T13:02:03Z</time>
      </trkpt>
      <trkpt lat="45.95428" lon="4.57572">
        <ele>450.838</ele>
        <time>2018-06-07T13:02:09Z</time>
      </trkpt>
      <trkpt lat="45.95428" lon="4.57572">
        <ele>450.843</ele>
        <time>2018-06-07T13:02:15Z</time>
      </trkpt>
      <trkpt lat="45.95428" lon="4.57572">
        <ele>450.808</ele>
        <time>2018-06-07T13:02:21Z</time>
      </trkpt>
      <trkpt lat="45.95428" lon="4.57572">
        <ele>450.749</ele>
        <time>2018-06-07T13:02:26Z</time>
      </trkpt>
      <trkpt lat="45.95428" lon="4.57572">
        <ele>450.772</ele>
        <time>2018-06-07T13:02:32Z</time>
      </trkpt>
      <trkpt lat="45.95428" lon="4.57572">
        <ele>450.744</ele>
        <time>2018-06-07T13:02:37Z</time>
      </trkpt>
      <trkpt lat="45.95428" lon="4.57572">
        <ele>450.151</ele>
        <time>2018-06-07T13:02:43Z</time>
      </trkpt>
      <trkpt lat="45.95428" lon="4.57572">
        <ele>449.857</ele>
        <time>2018-06-07T13:02:49Z</time>
      </trkpt>
      <trkpt lat="45.95428" lon="4.57572">
        <ele>449.715</ele>
        <time>2018-06-07T13:02:54Z</time>
      </trkpt>
      <trkpt lat="45.95428" lon="4.57572">
        <ele>449.666</ele>
        <time>2018-06-07T13:02:59Z</time>
      </trkpt>
      <trkpt lat="45.95428" lon="4.57572">
        <ele>449.624</ele>
        <time>2018-06-07T13:03:05Z</time>
      </trkpt>
      <trkpt lat="45.95428" lon="4.57572">
        <ele>449.649</ele>
        <time>2018-06-07T13:03:10Z</time>
      </trkpt>
      <trkpt lat="45.95427" lon="4.57572">
        <ele>449.847</ele>
        <time>2018-06-07T13:03:16Z</time>
      </trkpt>
      <trkpt lat="45.95427" lon="4.57572">
        <ele>449.934</ele>
        <time>2018-06-07T13:03:21Z</time>
      </trkpt>
      <trkpt lat="45.95428" lon="4.57572">
        <ele>449.957</ele>
        <time>2018-06-07T13:03:27Z</time>
      </trkpt>
      <trkpt lat="45.95429" lon="4.57579">
        <ele>449.726</ele>
        <time>2018-06-07T13:03:32Z</time>
      </trkpt>
      <trkpt lat="45.95427" lon="4.57589">
        <ele>449.722</ele>
        <time>2018-06-07T13:03:38Z</time>
      </trkpt>
      <trkpt lat="45.95427" lon="4.5759">
        <ele>449.81</ele>
        <time>2018-06-07T13:03:43Z</time>
      </trkpt>
      <trkpt lat="45.95427" lon="4.5759">
        <ele>449.885</ele>
        <time>2018-06-07T13:03:49Z</time>
      </trkpt>
      <trkpt lat="45.95427" lon="4.5759">
        <ele>449.918</ele>
        <time>2018-06-07T13:03:55Z</time>
      </trkpt>
      <trkpt lat="45.95427" lon="4.57589">
        <ele>450.038</ele>
        <time>2018-06-07T13:04:00Z</time>
      </trkpt>
      <trkpt lat="45.95425" lon="4.57588">
        <ele>450.761</ele>
        <time>2018-06-07T13:04:06Z</time>
      </trkpt>
      <trkpt lat="45.95425" lon="4.57588">
        <ele>450.949</ele>
        <time>2018-06-07T13:04:11Z</time>
      </trkpt>
      <trkpt lat="45.95425" lon="4.57588">
        <ele>450.923</ele>
        <time>2018-06-07T13:04:17Z</time>
      </trkpt>
      <trkpt lat="45.95423" lon="4.57586">
        <ele>450.847</ele>
        <time>2018-06-07T13:04:23Z</time>
      </trkpt>
      <trkpt lat="45.95421" lon="4.57585">
        <ele>450.735</ele>
        <time>2018-06-07T13:04:28Z</time>
      </trkpt>
      <trkpt lat="45.95421" lon="4.57585">
        <ele>450.719</ele>
        <time>2018-06-07T13:04:34Z</time>
      </trkpt>
      <trkpt lat="45.95421" lon="4.57585">
        <ele>451.009</ele>
        <time>2018-06-07T13:04:40Z</time>
      </trkpt>
      <trkpt lat="45.9542" lon="4.57585">
        <ele>450.972</ele>
        <time>2018-06-07T13:04:45Z</time>
      </trkpt>
      <trkpt lat="45.95419" lon="4.57585">
        <ele>451.026</ele>
        <time>2018-06-07T13:04:51Z</time>
      </trkpt>
      <trkpt lat="45.95419" lon="4.57585">
        <ele>451.281</ele>
        <time>2018-06-07T13:04:57Z</time>
      </trkpt>
      <trkpt lat="45.95419" lon="4.57585">
        <ele>451.646</ele>
        <time>2018-06-07T13:05:03Z</time>
      </trkpt>
      <trkpt lat="45.95419" lon="4.57585">
        <ele>452.315</ele>
        <time>2018-06-07T13:05:09Z</time>
      </trkpt>
      <trkpt lat="45.95419" lon="4.57585">
        <ele>453.116</ele>
        <time>2018-06-07T13:05:14Z</time>
      </trkpt>
      <trkpt lat="45.95421" lon="4.57585">
        <ele>453.214</ele>
        <time>2018-06-07T13:05:20Z</time>
      </trkpt>
      <trkpt lat="45.95422" lon="4.57585">
        <ele>453.65</ele>
        <time>2018-06-07T13:05:25Z</time>
      </trkpt>
      <trkpt lat="45.95422" lon="4.57585">
        <ele>453.642</ele>
        <time>2018-06-07T13:05:31Z</time>
      </trkpt>
      <trkpt lat="45.95422" lon="4.57585">
        <ele>453.66</ele>
        <time>2018-06-07T13:05:37Z</time>
      </trkpt>
      <trkpt lat="45.95422" lon="4.57585">
        <ele>453.716</ele>
        <time>2018-06-07T13:05:42Z</time>
      </trkpt>
      <trkpt lat="45.95422" lon="4.57585">
        <ele>453.814</ele>
        <time>2018-06-07T13:05:48Z</time>
      </trkpt>
      <trkpt lat="45.95422" lon="4.57585">
        <ele>453.913</ele>
        <time>2018-06-07T13:05:53Z</time>
      </trkpt>
      <trkpt lat="45.95422" lon="4.57585">
        <ele>454.131</ele>
        <time>2018-06-07T13:05:59Z</time>
      </trkpt>
      <trkpt lat="45.95422" lon="4.57585">
        <ele>454.617</ele>
        <time>2018-06-07T13:06:05Z</time>
      </trkpt>
      <trkpt lat="45.95422" lon="4.57585">
        <ele>454.982</ele>
        <time>2018-06-07T13:06:10Z</time>
      </trkpt>
      <trkpt lat="45.95421" lon="4.57584">
        <ele>455.567</ele>
        <time>2018-06-07T13:06:16Z</time>
      </trkpt>
      <trkpt lat="45.9542" lon="4.57582">
        <ele>455.968</ele>
        <time>2018-06-07T13:06:21Z</time>
      </trkpt>
      <trkpt lat="45.9542" lon="4.57579">
        <ele>456.161</ele>
        <time>2018-06-07T13:06:27Z</time>
      </trkpt>
      <trkpt lat="45.9542" lon="4.57578">
        <ele>456.141</ele>
        <time>2018-06-07T13:06:32Z</time>
      </trkpt>
      <trkpt lat="45.9542" lon="4.57578">
        <ele>456.096</ele>
        <time>2018-06-07T13:06:37Z</time>
      </trkpt>
      <trkpt lat="45.95419" lon="4.57576">
        <ele>455.905</ele>
        <time>2018-06-07T13:06:43Z</time>
      </trkpt>
      <trkpt lat="45.95419" lon="4.57579">
        <ele>455.028</ele>
        <time>2018-06-07T13:06:49Z</time>
      </trkpt>
      <trkpt lat="45.9542" lon="4.57579">
        <ele>454.916</ele>
        <time>2018-06-07T13:06:55Z</time>
      </trkpt>
      <trkpt lat="45.9542" lon="4.57579">
        <ele>454.881</ele>
        <time>2018-06-07T13:07:00Z</time>
      </trkpt>
      <trkpt lat="45.9542" lon="4.57579">
        <ele>454.902</ele>
        <time>2018-06-07T13:07:06Z</time>
      </trkpt>
      <trkpt lat="45.9542" lon="4.57579">
        <ele>454.931</ele>
        <time>2018-06-07T13:07:12Z</time>
      </trkpt>
      <trkpt lat="45.9542" lon="4.57579">
        <ele>455.087</ele>
        <time>2018-06-07T13:07:17Z</time>
      </trkpt>
      <trkpt lat="45.9542" lon="4.57579">
        <ele>455.291</ele>
        <time>2018-06-07T13:07:23Z</time>
      </trkpt>
      <trkpt lat="45.9542" lon="4.57576">
        <ele>455.311</ele>
        <time>2018-06-07T13:07:29Z</time>
      </trkpt>
      <trkpt lat="45.95421" lon="4.57572">
        <ele>455.313</ele>
        <time>2018-06-07T13:07:34Z</time>
      </trkpt>
      <trkpt lat="45.95421" lon="4.57571">
        <ele>454.642</ele>
        <time>2018-06-07T13:07:40Z</time>
      </trkpt>
      <trkpt lat="45.95421" lon="4.57571">
        <ele>454.298</ele>
        <time>2018-06-07T13:07:46Z</time>
      </trkpt>
      <trkpt lat="45.95425" lon="4.57571">
        <ele>453.179</ele>
        <time>2018-06-07T13:07:52Z</time>
      </trkpt>
      <trkpt lat="45.95435" lon="4.57565">
        <ele>451.585</ele>
        <time>2018-06-07T13:07:58Z</time>
      </trkpt>
      <trkpt lat="45.9544" lon="4.57567">
        <ele>450.23</ele>
        <time>2018-06-07T13:08:04Z</time>
      </trkpt>
      <trkpt lat="45.95442" lon="4.57566">
        <ele>450.267</ele>
        <time>2018-06-07T13:08:09Z</time>
      </trkpt>
      <trkpt lat="45.95443" lon="4.57567">
        <ele>450.062</ele>
        <time>2018-06-07T13:08:15Z</time>
      </trkpt>
      <trkpt lat="45.95443" lon="4.57571">
        <ele>449.936</ele>
        <time>2018-06-07T13:08:20Z</time>
      </trkpt>
      <trkpt lat="45.95443" lon="4.57571">
        <ele>449.75</ele>
        <time>2018-06-07T13:08:26Z</time>
      </trkpt>
      <trkpt lat="45.95443" lon="4.57571">
        <ele>449.576</ele>
        <time>2018-06-07T13:08:31Z</time>
      </trkpt>
      <trkpt lat="45.95443" lon="4.57572">
        <ele>449.611</ele>
        <time>2018-06-07T13:08:37Z</time>
      </trkpt>
      <trkpt lat="45.95443" lon="4.57572">
        <ele>449.669</ele>
        <time>2018-06-07T13:08:43Z</time>
      </trkpt>
      <trkpt lat="45.95443" lon="4.57572">
        <ele>449.693</ele>
        <time>2018-06-07T13:08:49Z</time>
      </trkpt>
      <trkpt lat="45.95443" lon="4.57572">
        <ele>449.7</ele>
        <time>2018-06-07T13:08:54Z</time>
      </trkpt>
      <trkpt lat="45.95443" lon="4.57574">
        <ele>450.248</ele>
        <time>2018-06-07T13:09:00Z</time>
      </trkpt>
      <trkpt lat="45.95442" lon="4.57576">
        <ele>450.389</ele>
        <time>2018-06-07T13:09:05Z</time>
      </trkpt>
      <trkpt lat="45.95438" lon="4.57582">
        <ele>450.106</ele>
        <time>2018-06-07T13:09:10Z</time>
      </trkpt>
      <trkpt lat="45.95436" lon="4.57584">
        <ele>450.186</ele>
        <time>2018-06-07T13:09:15Z</time>
      </trkpt>
      <trkpt lat="45.95434" lon="4.57584">
        <ele>450.827</ele>
        <time>2018-06-07T13:09:20Z</time>
      </trkpt>
      <trkpt lat="45.95429" lon="4.57584">
        <ele>451.503</ele>
        <time>2018-06-07T13:09:26Z</time>
      </trkpt>
      <trkpt lat="45.95425" lon="4.57582">
        <ele>451.609</ele>
        <time>2018-06-07T13:09:32Z</time>
      </trkpt>
      <trkpt lat="45.95424" lon="4.57581">
        <ele>451.686</ele>
        <time>2018-06-07T13:09:37Z</time>
      </trkpt>
      <trkpt lat="45.95424" lon="4.57574">
        <ele>451.464</ele>
        <time>2018-06-07T13:09:43Z</time>
      </trkpt>
      <trkpt lat="45.95424" lon="4.57573">
        <ele>451.233</ele>
        <time>2018-06-07T13:09:48Z</time>
      </trkpt>
      <trkpt lat="45.95424" lon="4.57573">
        <ele>451.176</ele>
        <time>2018-06-07T13:09:54Z</time>
      </trkpt>
      <trkpt lat="45.95424" lon="4.57573">
        <ele>451.143</ele>
        <time>2018-06-07T13:09:59Z</time>
      </trkpt>
      <trkpt lat="45.95424" lon="4.57573">
        <ele>451.082</ele>
        <time>2018-06-07T13:10:05Z</time>
      </trkpt>
      <trkpt lat="45.95422" lon="4.57576">
        <ele>449.92</ele>
        <time>2018-06-07T13:10:11Z</time>
      </trkpt>
      <trkpt lat="45.95422" lon="4.57576">
        <ele>449.686</ele>
        <time>2018-06-07T13:10:17Z</time>
      </trkpt>
      <trkpt lat="45.95425" lon="4.5758">
        <ele>449.602</ele>
        <time>2018-06-07T13:10:23Z</time>
      </trkpt>
      <trkpt lat="45.95424" lon="4.5758">
        <ele>449.493</ele>
        <time>2018-06-07T13:10:29Z</time>
      </trkpt>
      <trkpt lat="45.95424" lon="4.5758">
        <ele>449.488</ele>
        <time>2018-06-07T13:10:35Z</time>
      </trkpt>
      <trkpt lat="45.95424" lon="4.5758">
        <ele>449.423</ele>
        <time>2018-06-07T13:10:40Z</time>
      </trkpt>
      <trkpt lat="45.95424" lon="4.5758">
        <ele>449.372</ele>
        <time>2018-06-07T13:10:46Z</time>
      </trkpt>
      <trkpt lat="45.95425" lon="4.57578">
        <ele>449.879</ele>
        <time>2018-06-07T13:10:51Z</time>
      </trkpt>
      <trkpt lat="45.95426" lon="4.57576">
        <ele>450.333</ele>
        <time>2018-06-07T13:10:56Z</time>
      </trkpt>
      <trkpt lat="45.95426" lon="4.57576">
        <ele>450.474</ele>
        <time>2018-06-07T13:11:02Z</time>
      </trkpt>
      <trkpt lat="45.95426" lon="4.57576">
        <ele>450.458</ele>
        <time>2018-06-07T13:11:07Z</time>
      </trkpt>
      <trkpt lat="45.95426" lon="4.57576">
        <ele>450.434</ele>
        <time>2018-06-07T13:11:12Z</time>
      </trkpt>
      <trkpt lat="45.95426" lon="4.57576">
        <ele>450.492</ele>
        <time>2018-06-07T13:11:18Z</time>
      </trkpt>
      <trkpt lat="45.95426" lon="4.57576">
        <ele>450.396</ele>
        <time>2018-06-07T13:11:23Z</time>
      </trkpt>
      <trkpt lat="45.95426" lon="4.57576">
        <ele>450.289</ele>
        <time>2018-06-07T13:11:28Z</time>
      </trkpt>
      <trkpt lat="45.95426" lon="4.57576">
        <ele>450.247</ele>
        <time>2018-06-07T13:11:33Z</time>
      </trkpt>
      <trkpt lat="45.95423" lon="4.57576">
        <ele>450.746</ele>
        <time>2018-06-07T13:11:39Z</time>
      </trkpt>
      <trkpt lat="45.95423" lon="4.57577">
        <ele>450.716</ele>
        <time>2018-06-07T13:11:44Z</time>
      </trkpt>
      <trkpt lat="45.95423" lon="4.57577">
        <ele>450.461</ele>
        <time>2018-06-07T13:11:50Z</time>
      </trkpt>
      <trkpt lat="45.95423" lon="4.57577">
        <ele>450.368</ele>
        <time>2018-06-07T13:11:56Z</time>
      </trkpt>
      <trkpt lat="45.95423" lon="4.57577">
        <ele>450.428</ele>
        <time>2018-06-07T13:12:02Z</time>
      </trkpt>
      <trkpt lat="45.95424" lon="4.57578">
        <ele>451.042</ele>
        <time>2018-06-07T13:12:08Z</time>
      </trkpt>
      <trkpt lat="45.95424" lon="4.57578">
        <ele>451.234</ele>
        <time>2018-06-07T13:12:13Z</time>
      </trkpt>
      <trkpt lat="45.95424" lon="4.57578">
        <ele>451.993</ele>
        <time>2018-06-07T13:12:19Z</time>
      </trkpt>
      <trkpt lat="45.95423" lon="4.57578">
        <ele>454.061</ele>
        <time>2018-06-07T13:12:25Z</time>
      </trkpt>
      <trkpt lat="45.95421" lon="4.57579">
        <ele>454.369</ele>
        <time>2018-06-07T13:12:30Z</time>
      </trkpt>
      <trkpt lat="45.95416" lon="4.57575">
        <ele>454.067</ele>
        <time>2018-06-07T13:12:36Z</time>
      </trkpt>
      <trkpt lat="45.95407" lon="4.57572">
        <ele>454.031</ele>
        <time>2018-06-07T13:12:42Z</time>
      </trkpt>
      <trkpt lat="45.95401" lon="4.57569">
        <ele>454.074</ele>
        <time>2018-06-07T13:12:47Z</time>
      </trkpt>
      <trkpt lat="45.95395" lon="4.57568">
        <ele>453.829</ele>
        <time>2018-06-07T13:12:52Z</time>
      </trkpt>
      <trkpt lat="45.95388" lon="4.57569">
        <ele>453.363</ele>
        <time>2018-06-07T13:12:57Z</time>
      </trkpt>
      <trkpt lat="45.95381" lon="4.57568">
        <ele>452.974</ele>
        <time>2018-06-07T13:13:03Z</time>
      </trkpt>
      <trkpt lat="45.95374" lon="4.57565">
        <ele>452.846</ele>
        <time>2018-06-07T13:13:09Z</time>
      </trkpt>
      <trkpt lat="45.95366" lon="4.57565">
        <ele>452.535</ele>
        <time>2018-06-07T13:13:15Z</time>
      </trkpt>
      <trkpt lat="45.95361" lon="4.57566">
        <ele>451.895</ele>
        <time>2018-06-07T13:13:20Z</time>
      </trkpt>
      <trkpt lat="45.95354" lon="4.57568">
        <ele>450.909</ele>
        <time>2018-06-07T13:13:26Z</time>
      </trkpt>
      <trkpt lat="45.95349" lon="4.5757">
        <ele>450.131</ele>
        <time>2018-06-07T13:13:31Z</time>
      </trkpt>
      <trkpt lat="45.95341" lon="4.57569">
        <ele>449.342</ele>
        <time>2018-06-07T13:13:37Z</time>
      </trkpt>
      <trkpt lat="45.95333" lon="4.57562">
        <ele>449.928</ele>
        <time>2018-06-07T13:13:43Z</time>
      </trkpt>
      <trkpt lat="45.95327" lon="4.57557">
        <ele>450.549</ele>
        <time>2018-06-07T13:13:49Z</time>
      </trkpt>
      <trkpt lat="45.95322" lon="4.57552">
        <ele>451.372</ele>
        <time>2018-06-07T13:13:55Z</time>
      </trkpt>
      <trkpt lat="45.95317" lon="4.57547">
        <ele>452.131</ele>
        <time>2018-06-07T13:14:01Z</time>
      </trkpt>
      <trkpt lat="45.95316" lon="4.57541">
        <ele>452.108</ele>
        <time>2018-06-07T13:14:06Z</time>
      </trkpt>
      <trkpt lat="45.9531" lon="4.57541">
        <ele>451.688</ele>
        <time>2018-06-07T13:14:12Z</time>
      </trkpt>
      <trkpt lat="45.95307" lon="4.57544">
        <ele>451.093</ele>
        <time>2018-06-07T13:14:17Z</time>
      </trkpt>
      <trkpt lat="45.95305" lon="4.57547">
        <ele>450.273</ele>
        <time>2018-06-07T13:14:22Z</time>
      </trkpt>
      <trkpt lat="45.95298" lon="4.57555">
        <ele>449.461</ele>
        <time>2018-06-07T13:14:28Z</time>
      </trkpt>
      <trkpt lat="45.95295" lon="4.57557">
        <ele>449.323</ele>
        <time>2018-06-07T13:14:33Z</time>
      </trkpt>
      <trkpt lat="45.95288" lon="4.5756">
        <ele>449.147</ele>
        <time>2018-06-07T13:14:39Z</time>
      </trkpt>
      <trkpt lat="45.95282" lon="4.57556">
        <ele>449.363</ele>
        <time>2018-06-07T13:14:45Z</time>
      </trkpt>
      <trkpt lat="45.95278" lon="4.57555">
        <ele>449.927</ele>
        <time>2018-06-07T13:14:51Z</time>
      </trkpt>
      <trkpt lat="45.95272" lon="4.57556">
        <ele>450.776</ele>
        <time>2018-06-07T13:14:57Z</time>
      </trkpt>
      <trkpt lat="45.95267" lon="4.57553">
        <ele>452.046</ele>
        <time>2018-06-07T13:15:03Z</time>
      </trkpt>
      <trkpt lat="45.95261" lon="4.57551">
        <ele>453.811</ele>
        <time>2018-06-07T13:15:09Z</time>
      </trkpt>
      <trkpt lat="45.95258" lon="4.57551">
        <ele>455.067</ele>
        <time>2018-06-07T13:15:15Z</time>
      </trkpt>
      <trkpt lat="45.95256" lon="4.5755">
        <ele>456.302</ele>
        <time>2018-06-07T13:15:21Z</time>
      </trkpt>
      <trkpt lat="45.95253" lon="4.57554">
        <ele>457.557</ele>
        <time>2018-06-07T13:15:26Z</time>
      </trkpt>
      <trkpt lat="45.9525" lon="4.57558">
        <ele>458.015</ele>
        <time>2018-06-07T13:15:31Z</time>
      </trkpt>
      <trkpt lat="45.95246" lon="4.5756">
        <ele>458.211</ele>
        <time>2018-06-07T13:15:37Z</time>
      </trkpt>
      <trkpt lat="45.95237" lon="4.57559">
        <ele>457.81</ele>
        <time>2018-06-07T13:15:42Z</time>
      </trkpt>
      <trkpt lat="45.95229" lon="4.57565">
        <ele>458.009</ele>
        <time>2018-06-07T13:15:48Z</time>
      </trkpt>
      <trkpt lat="45.95224" lon="4.57574">
        <ele>458.892</ele>
        <time>2018-06-07T13:15:53Z</time>
      </trkpt>
      <trkpt lat="45.95223" lon="4.57583">
        <ele>459.935</ele>
        <time>2018-06-07T13:15:59Z</time>
      </trkpt>
      <trkpt lat="45.95215" lon="4.57593">
        <ele>461.347</ele>
        <time>2018-06-07T13:16:05Z</time>
      </trkpt>
      <trkpt lat="45.95213" lon="4.57595">
        <ele>462.129</ele>
        <time>2018-06-07T13:16:10Z</time>
      </trkpt>
      <trkpt lat="45.95211" lon="4.576">
        <ele>462.961</ele>
        <time>2018-06-07T13:16:15Z</time>
      </trkpt>
      <trkpt lat="45.95207" lon="4.57602">
        <ele>463.568</ele>
        <time>2018-06-07T13:16:21Z</time>
      </trkpt>
      <trkpt lat="45.95202" lon="4.57603">
        <ele>464.529</ele>
        <time>2018-06-07T13:16:26Z</time>
      </trkpt>
      <trkpt lat="45.95199" lon="4.57606">
        <ele>466.145</ele>
        <time>2018-06-07T13:16:32Z</time>
      </trkpt>
      <trkpt lat="45.95196" lon="4.57607">
        <ele>467.141</ele>
        <time>2018-06-07T13:16:37Z</time>
      </trkpt>
      <trkpt lat="45.95188" lon="4.57618">
        <ele>468.388</ele>
        <time>2018-06-07T13:16:43Z</time>
      </trkpt>
      <trkpt lat="45.95181" lon="4.57623">
        <ele>470.212</ele>
        <time>2018-06-07T13:16:49Z</time>
      </trkpt>
      <trkpt lat="45.95176" lon="4.57628">
        <ele>471.677</ele>
        <time>2018-06-07T13:16:55Z</time>
      </trkpt>
      <trkpt lat="45.95171" lon="4.57635">
        <ele>472.425</ele>
        <time>2018-06-07T13:17:00Z</time>
      </trkpt>
      <trkpt lat="45.95163" lon="4.57636">
        <ele>472.991</ele>
        <time>2018-06-07T13:17:06Z</time>
      </trkpt>
      <trkpt lat="45.9516" lon="4.57639">
        <ele>473.306</ele>
        <time>2018-06-07T13:17:12Z</time>
      </trkpt>
      <trkpt lat="45.95157" lon="4.57642">
        <ele>473.625</ele>
        <time>2018-06-07T13:17:18Z</time>
      </trkpt>
      <trkpt lat="45.95152" lon="4.57648">
        <ele>473.659</ele>
        <time>2018-06-07T13:17:24Z</time>
      </trkpt>
      <trkpt lat="45.95148" lon="4.57651">
        <ele>473.557</ele>
        <time>2018-06-07T13:17:29Z</time>
      </trkpt>
      <trkpt lat="45.95142" lon="4.57658">
        <ele>473.364</ele>
        <time>2018-06-07T13:17:35Z</time>
      </trkpt>
      <trkpt lat="45.95139" lon="4.57662">
        <ele>473.69</ele>
        <time>2018-06-07T13:17:40Z</time>
      </trkpt>
      <trkpt lat="45.95134" lon="4.57665">
        <ele>474.339</ele>
        <time>2018-06-07T13:17:46Z</time>
      </trkpt>
      <trkpt lat="45.95133" lon="4.57669">
        <ele>475.3</ele>
        <time>2018-06-07T13:17:52Z</time>
      </trkpt>
      <trkpt lat="45.95128" lon="4.57675">
        <ele>476.152</ele>
        <time>2018-06-07T13:17:57Z</time>
      </trkpt>
      <trkpt lat="45.95122" lon="4.57684">
        <ele>476.802</ele>
        <time>2018-06-07T13:18:03Z</time>
      </trkpt>
      <trkpt lat="45.95118" lon="4.57692">
        <ele>477.334</ele>
        <time>2018-06-07T13:18:08Z</time>
      </trkpt>
      <trkpt lat="45.95113" lon="4.57698">
        <ele>477.665</ele>
        <time>2018-06-07T13:18:14Z</time>
      </trkpt>
      <trkpt lat="45.95109" lon="4.57703">
        <ele>478.305</ele>
        <time>2018-06-07T13:18:19Z</time>
      </trkpt>
      <trkpt lat="45.95104" lon="4.57707">
        <ele>478.557</ele>
        <time>2018-06-07T13:18:25Z</time>
      </trkpt>
      <trkpt lat="45.951" lon="4.5771">
        <ele>478.934</ele>
        <time>2018-06-07T13:18:30Z</time>
      </trkpt>
      <trkpt lat="45.95094" lon="4.57715">
        <ele>479.645</ele>
        <time>2018-06-07T13:18:35Z</time>
      </trkpt>
      <trkpt lat="45.95089" lon="4.57722">
        <ele>480.665</ele>
        <time>2018-06-07T13:18:41Z</time>
      </trkpt>
      <trkpt lat="45.95085" lon="4.57727">
        <ele>481.524</ele>
        <time>2018-06-07T13:18:47Z</time>
      </trkpt>
      <trkpt lat="45.95079" lon="4.57733">
        <ele>482.5</ele>
        <time>2018-06-07T13:18:53Z</time>
      </trkpt>
      <trkpt lat="45.95073" lon="4.57738">
        <ele>483.356</ele>
        <time>2018-06-07T13:18:58Z</time>
      </trkpt>
      <trkpt lat="45.95069" lon="4.57741">
        <ele>484.116</ele>
        <time>2018-06-07T13:19:03Z</time>
      </trkpt>
      <trkpt lat="45.9506" lon="4.57743">
        <ele>484.484</ele>
        <time>2018-06-07T13:19:09Z</time>
      </trkpt>
      <trkpt lat="45.95055" lon="4.57744">
        <ele>484.622</ele>
        <time>2018-06-07T13:19:15Z</time>
      </trkpt>
      <trkpt lat="45.9505" lon="4.57745">
        <ele>484.641</ele>
        <time>2018-06-07T13:19:20Z</time>
      </trkpt>
      <trkpt lat="45.95044" lon="4.57747">
        <ele>484.248</ele>
        <time>2018-06-07T13:19:26Z</time>
      </trkpt>
      <trkpt lat="45.95039" lon="4.5775">
        <ele>484.325</ele>
        <time>2018-06-07T13:19:31Z</time>
      </trkpt>
      <trkpt lat="45.95031" lon="4.57754">
        <ele>483.911</ele>
        <time>2018-06-07T13:19:37Z</time>
      </trkpt>
      <trkpt lat="45.95025" lon="4.57757">
        <ele>484.013</ele>
        <time>2018-06-07T13:19:42Z</time>
      </trkpt>
      <trkpt lat="45.95016" lon="4.57762">
        <ele>484.357</ele>
        <time>2018-06-07T13:19:48Z</time>
      </trkpt>
      <trkpt lat="45.95009" lon="4.57765">
        <ele>484.763</ele>
        <time>2018-06-07T13:19:53Z</time>
      </trkpt>
      <trkpt lat="45.95" lon="4.5777">
        <ele>485.269</ele>
        <time>2018-06-07T13:19:59Z</time>
      </trkpt>
      <trkpt lat="45.94994" lon="4.57774">
        <ele>486.053</ele>
        <time>2018-06-07T13:20:04Z</time>
      </trkpt>
      <trkpt lat="45.94987" lon="4.57777">
        <ele>486.916</ele>
        <time>2018-06-07T13:20:09Z</time>
      </trkpt>
      <trkpt lat="45.94979" lon="4.57779">
        <ele>488.071</ele>
        <time>2018-06-07T13:20:15Z</time>
      </trkpt>
      <trkpt lat="45.94972" lon="4.57781">
        <ele>489.119</ele>
        <time>2018-06-07T13:20:20Z</time>
      </trkpt>
      <trkpt lat="45.94965" lon="4.57784">
        <ele>490.319</ele>
        <time>2018-06-07T13:20:25Z</time>
      </trkpt>
      <trkpt lat="45.94959" lon="4.57786">
        <ele>491.299</ele>
        <time>2018-06-07T13:20:30Z</time>
      </trkpt>
      <trkpt lat="45.94952" lon="4.57789">
        <ele>492.403</ele>
        <time>2018-06-07T13:20:36Z</time>
      </trkpt>
      <trkpt lat="45.94945" lon="4.57792">
        <ele>493.412</ele>
        <time>2018-06-07T13:20:41Z</time>
      </trkpt>
      <trkpt lat="45.94937" lon="4.57791">
        <ele>494.327</ele>
        <time>2018-06-07T13:20:46Z</time>
      </trkpt>
      <trkpt lat="45.94932" lon="4.57791">
        <ele>495.458</ele>
        <time>2018-06-07T13:20:52Z</time>
      </trkpt>
      <trkpt lat="45.94923" lon="4.57792">
        <ele>496.301</ele>
        <time>2018-06-07T13:20:57Z</time>
      </trkpt>
      <trkpt lat="45.94915" lon="4.57795">
        <ele>497.027</ele>
        <time>2018-06-07T13:21:03Z</time>
      </trkpt>
      <trkpt lat="45.94906" lon="4.57798">
        <ele>497.633</ele>
        <time>2018-06-07T13:21:09Z</time>
      </trkpt>
      <trkpt lat="45.94897" lon="4.57801">
        <ele>498.628</ele>
        <time>2018-06-07T13:21:15Z</time>
      </trkpt>
      <trkpt lat="45.94889" lon="4.57805">
        <ele>499.599</ele>
        <time>2018-06-07T13:21:20Z</time>
      </trkpt>
      <trkpt lat="45.94883" lon="4.57808">
        <ele>500.854</ele>
        <time>2018-06-07T13:21:25Z</time>
      </trkpt>
      <trkpt lat="45.94876" lon="4.57811">
        <ele>502.659</ele>
        <time>2018-06-07T13:21:31Z</time>
      </trkpt>
      <trkpt lat="45.94867" lon="4.57813">
        <ele>503.789</ele>
        <time>2018-06-07T13:21:36Z</time>
      </trkpt>
      <trkpt lat="45.94858" lon="4.57814">
        <ele>504.724</ele>
        <time>2018-06-07T13:21:42Z</time>
      </trkpt>
      <trkpt lat="45.94854" lon="4.57815">
        <ele>505.273</ele>
        <time>2018-06-07T13:21:47Z</time>
      </trkpt>
      <trkpt lat="45.94847" lon="4.57816">
        <ele>505.938</ele>
        <time>2018-06-07T13:21:53Z</time>
      </trkpt>
      <trkpt lat="45.9484" lon="4.57818">
        <ele>506.971</ele>
        <time>2018-06-07T13:21:59Z</time>
      </trkpt>
      <trkpt lat="45.94833" lon="4.5782">
        <ele>508.004</ele>
        <time>2018-06-07T13:22:05Z</time>
      </trkpt>
      <trkpt lat="45.94829" lon="4.5782">
        <ele>508.418</ele>
        <time>2018-06-07T13:22:10Z</time>
      </trkpt>
      <trkpt lat="45.94824" lon="4.57821">
        <ele>508.789</ele>
        <time>2018-06-07T13:22:15Z</time>
      </trkpt>
      <trkpt lat="45.94817" lon="4.57822">
        <ele>509.049</ele>
        <time>2018-06-07T13:22:21Z</time>
      </trkpt>
      <trkpt lat="45.94809" lon="4.57822">
        <ele>509.204</ele>
        <time>2018-06-07T13:22:27Z</time>
      </trkpt>
      <trkpt lat="45.94804" lon="4.57824">
        <ele>509.431</ele>
        <time>2018-06-07T13:22:32Z</time>
      </trkpt>
      <trkpt lat="45.94796" lon="4.57826">
        <ele>510.015</ele>
        <time>2018-06-07T13:22:38Z</time>
      </trkpt>
      <trkpt lat="45.94791" lon="4.57827">
        <ele>510.738</ele>
        <time>2018-06-07T13:22:44Z</time>
      </trkpt>
      <trkpt lat="45.94785" lon="4.57829">
        <ele>511.279</ele>
        <time>2018-06-07T13:22:49Z</time>
      </trkpt>
      <trkpt lat="45.94778" lon="4.57831">
        <ele>512.049</ele>
        <time>2018-06-07T13:22:55Z</time>
      </trkpt>
      <trkpt lat="45.94771" lon="4.57834">
        <ele>513.049</ele>
        <time>2018-06-07T13:23:01Z</time>
      </trkpt>
      <trkpt lat="45.94767" lon="4.57836">
        <ele>513.74</ele>
        <time>2018-06-07T13:23:06Z</time>
      </trkpt>
      <trkpt lat="45.9476" lon="4.57837">
        <ele>514.442</ele>
        <time>2018-06-07T13:23:12Z</time>
      </trkpt>
      <trkpt lat="45.94755" lon="4.57838">
        <ele>515.179</ele>
        <time>2018-06-07T13:23:17Z</time>
      </trkpt>
      <trkpt lat="45.94748" lon="4.57838">
        <ele>515.398</ele>
        <time>2018-06-07T13:23:23Z</time>
      </trkpt>
      <trkpt lat="45.94741" lon="4.5784">
        <ele>515.671</ele>
        <time>2018-06-07T13:23:28Z</time>
      </trkpt>
      <trkpt lat="45.94734" lon="4.57842">
        <ele>516.409</ele>
        <time>2018-06-07T13:23:34Z</time>
      </trkpt>
      <trkpt lat="45.94729" lon="4.57843">
        <ele>516.99</ele>
        <time>2018-06-07T13:23:39Z</time>
      </trkpt>
      <trkpt lat="45.94724" lon="4.57841">
        <ele>517.329</ele>
        <time>2018-06-07T13:23:45Z</time>
      </trkpt>
      <trkpt lat="45.94721" lon="4.5784">
        <ele>517.584</ele>
        <time>2018-06-07T13:23:50Z</time>
      </trkpt>
      <trkpt lat="45.94717" lon="4.57843">
        <ele>518.396</ele>
        <time>2018-06-07T13:23:56Z</time>
      </trkpt>
      <trkpt lat="45.94715" lon="4.57849">
        <ele>519.489</ele>
        <time>2018-06-07T13:24:01Z</time>
      </trkpt>
      <trkpt lat="45.94714" lon="4.57853">
        <ele>520.717</ele>
        <time>2018-06-07T13:24:07Z</time>
      </trkpt>
      <trkpt lat="45.94712" lon="4.57855">
        <ele>521.853</ele>
        <time>2018-06-07T13:24:13Z</time>
      </trkpt>
      <trkpt lat="45.94713" lon="4.57856">
        <ele>521.949</ele>
        <time>2018-06-07T13:24:18Z</time>
      </trkpt>
      <trkpt lat="45.94716" lon="4.57859">
        <ele>522.109</ele>
        <time>2018-06-07T13:24:23Z</time>
      </trkpt>
      <trkpt lat="45.94717" lon="4.5786">
        <ele>522.23</ele>
        <time>2018-06-07T13:24:29Z</time>
      </trkpt>
      <trkpt lat="45.94716" lon="4.57861">
        <ele>522.322</ele>
        <time>2018-06-07T13:24:34Z</time>
      </trkpt>
      <trkpt lat="45.94714" lon="4.57861">
        <ele>522.679</ele>
        <time>2018-06-07T13:24:40Z</time>
      </trkpt>
      <trkpt lat="45.94715" lon="4.57861">
        <ele>522.829</ele>
        <time>2018-06-07T13:24:45Z</time>
      </trkpt>
      <trkpt lat="45.94715" lon="4.57861">
        <ele>522.828</ele>
        <time>2018-06-07T13:24:50Z</time>
      </trkpt>
      <trkpt lat="45.94715" lon="4.57861">
        <ele>522.877</ele>
        <time>2018-06-07T13:24:55Z</time>
      </trkpt>
      <trkpt lat="45.94715" lon="4.57861">
        <ele>523.108</ele>
        <time>2018-06-07T13:25:01Z</time>
      </trkpt>
      <trkpt lat="45.94714" lon="4.5786">
        <ele>523.617</ele>
        <time>2018-06-07T13:25:07Z</time>
      </trkpt>
      <trkpt lat="45.94714" lon="4.5786">
        <ele>524.324</ele>
        <time>2018-06-07T13:25:13Z</time>
      </trkpt>
      <trkpt lat="45.94714" lon="4.5786">
        <ele>524.675</ele>
        <time>2018-06-07T13:25:18Z</time>
      </trkpt>
      <trkpt lat="45.94714" lon="4.5786">
        <ele>525.266</ele>
        <time>2018-06-07T13:25:24Z</time>
      </trkpt>
      <trkpt lat="45.94714" lon="4.57857">
        <ele>526.095</ele>
        <time>2018-06-07T13:25:30Z</time>
      </trkpt>
      <trkpt lat="45.94713" lon="4.57856">
        <ele>527.073</ele>
        <time>2018-06-07T13:25:36Z</time>
      </trkpt>
      <trkpt lat="45.94713" lon="4.57856">
        <ele>527.498</ele>
        <time>2018-06-07T13:25:41Z</time>
      </trkpt>
      <trkpt lat="45.94713" lon="4.57856">
        <ele>527.682</ele>
        <time>2018-06-07T13:25:47Z</time>
      </trkpt>
      <trkpt lat="45.94714" lon="4.57857">
        <ele>527.762</ele>
        <time>2018-06-07T13:25:52Z</time>
      </trkpt>
      <trkpt lat="45.94714" lon="4.57856">
        <ele>527.905</ele>
        <time>2018-06-07T13:25:57Z</time>
      </trkpt>
      <trkpt lat="45.94714" lon="4.57856">
        <ele>528.197</ele>
        <time>2018-06-07T13:26:03Z</time>
      </trkpt>
      <trkpt lat="45.94714" lon="4.57855">
        <ele>528.662</ele>
        <time>2018-06-07T13:26:09Z</time>
      </trkpt>
      <trkpt lat="45.94714" lon="4.57855">
        <ele>529.566</ele>
        <time>2018-06-07T13:26:15Z</time>
      </trkpt>
      <trkpt lat="45.94714" lon="4.57855">
        <ele>529.717</ele>
        <time>2018-06-07T13:26:21Z</time>
      </trkpt>
      <trkpt lat="45.94714" lon="4.57855">
        <ele>530.361</ele>
        <time>2018-06-07T13:26:26Z</time>
      </trkpt>
      <trkpt lat="45.94714" lon="4.57855">
        <ele>530.451</ele>
        <time>2018-06-07T13:26:32Z</time>
      </trkpt>
      <trkpt lat="45.94717" lon="4.57856">
        <ele>531.772</ele>
        <time>2018-06-07T13:26:38Z</time>
      </trkpt>
      <trkpt lat="45.94717" lon="4.57856">
        <ele>532.239</ele>
        <time>2018-06-07T13:26:43Z</time>
      </trkpt>
      <trkpt lat="45.94717" lon="4.57856">
        <ele>532.426</ele>
        <time>2018-06-07T13:26:48Z</time>
      </trkpt>
      <trkpt lat="45.94717" lon="4.57856">
        <ele>532.809</ele>
        <time>2018-06-07T13:26:53Z</time>
      </trkpt>
      <trkpt lat="45.94717" lon="4.57855">
        <ele>533.671</ele>
        <time>2018-06-07T13:26:59Z</time>
      </trkpt>
      <trkpt lat="45.94717" lon="4.57855">
        <ele>534.122</ele>
        <time>2018-06-07T13:27:04Z</time>
      </trkpt>
      <trkpt lat="45.94717" lon="4.57855">
        <ele>534.477</ele>
        <time>2018-06-07T13:27:10Z</time>
      </trkpt>
      <trkpt lat="45.94717" lon="4.57855">
        <ele>534.572</ele>
        <time>2018-06-07T13:27:16Z</time>
      </trkpt>
      <trkpt lat="45.94717" lon="4.57855">
        <ele>534.711</ele>
        <time>2018-06-07T13:27:22Z</time>
      </trkpt>
      <trkpt lat="45.94716" lon="4.57855">
        <ele>534.589</ele>
        <time>2018-06-07T13:27:28Z</time>
      </trkpt>
      <trkpt lat="45.94716" lon="4.57855">
        <ele>534.706</ele>
        <time>2018-06-07T13:27:33Z</time>
      </trkpt>
      <trkpt lat="45.94716" lon="4.57855">
        <ele>534.958</ele>
        <time>2018-06-07T13:27:38Z</time>
      </trkpt>
      <trkpt lat="45.94716" lon="4.57856">
        <ele>534.987</ele>
        <time>2018-06-07T13:27:44Z</time>
      </trkpt>
      <trkpt lat="45.94716" lon="4.57856">
        <ele>535.118</ele>
        <time>2018-06-07T13:27:50Z</time>
      </trkpt>
      <trkpt lat="45.94716" lon="4.57856">
        <ele>535.094</ele>
        <time>2018-06-07T13:27:55Z</time>
      </trkpt>
      <trkpt lat="45.94716" lon="4.57856">
        <ele>535.133</ele>
        <time>2018-06-07T13:28:00Z</time>
      </trkpt>
      <trkpt lat="45.94716" lon="4.57856">
        <ele>535.309</ele>
        <time>2018-06-07T13:28:07Z</time>
      </trkpt>
      <trkpt lat="45.94717" lon="4.57856">
        <ele>535.559</ele>
        <time>2018-06-07T13:28:12Z</time>
      </trkpt>
      <trkpt lat="45.94716" lon="4.57856">
        <ele>535.88</ele>
        <time>2018-06-07T13:28:17Z</time>
      </trkpt>
      <trkpt lat="45.94715" lon="4.57855">
        <ele>535.967</ele>
        <time>2018-06-07T13:28:23Z</time>
      </trkpt>
      <trkpt lat="45.94715" lon="4.57855">
        <ele>536.313</ele>
        <time>2018-06-07T13:28:29Z</time>
      </trkpt>
      <trkpt lat="45.94713" lon="4.57853">
        <ele>536.915</ele>
        <time>2018-06-07T13:28:35Z</time>
      </trkpt>
      <trkpt lat="45.94714" lon="4.57852">
        <ele>537.083</ele>
        <time>2018-06-07T13:28:40Z</time>
      </trkpt>
      <trkpt lat="45.94715" lon="4.57851">
        <ele>537.282</ele>
        <time>2018-06-07T13:28:45Z</time>
      </trkpt>
      <trkpt lat="45.94718" lon="4.57849">
        <ele>537.034</ele>
        <time>2018-06-07T13:28:51Z</time>
      </trkpt>
      <trkpt lat="45.94718" lon="4.57849">
        <ele>536.914</ele>
        <time>2018-06-07T13:28:57Z</time>
      </trkpt>
      <trkpt lat="45.94718" lon="4.57849">
        <ele>536.942</ele>
        <time>2018-06-07T13:29:03Z</time>
      </trkpt>
      <trkpt lat="45.94718" lon="4.5785">
        <ele>537.384</ele>
        <time>2018-06-07T13:29:09Z</time>
      </trkpt>
      <trkpt lat="45.94718" lon="4.5785">
        <ele>538.064</ele>
        <time>2018-06-07T13:29:15Z</time>
      </trkpt>
      <trkpt lat="45.94718" lon="4.5785">
        <ele>538.126</ele>
        <time>2018-06-07T13:29:20Z</time>
      </trkpt>
      <trkpt lat="45.94718" lon="4.5785">
        <ele>538.114</ele>
        <time>2018-06-07T13:29:26Z</time>
      </trkpt>
      <trkpt lat="45.94718" lon="4.5785">
        <ele>538.096</ele>
        <time>2018-06-07T13:29:31Z</time>
      </trkpt>
      <trkpt lat="45.94718" lon="4.5785">
        <ele>538.089</ele>
        <time>2018-06-07T13:29:37Z</time>
      </trkpt>
      <trkpt lat="45.94718" lon="4.57851">
        <ele>537.943</ele>
        <time>2018-06-07T13:29:42Z</time>
      </trkpt>
      <trkpt lat="45.94718" lon="4.57852">
        <ele>537.76</ele>
        <time>2018-06-07T13:29:48Z</time>
      </trkpt>
      <trkpt lat="45.94718" lon="4.57852">
        <ele>537.634</ele>
        <time>2018-06-07T13:29:54Z</time>
      </trkpt>
      <trkpt lat="45.94718" lon="4.57853">
        <ele>537.36</ele>
        <time>2018-06-07T13:29:59Z</time>
      </trkpt>
      <trkpt lat="45.94716" lon="4.57859">
        <ele>537.054</ele>
        <time>2018-06-07T13:30:04Z</time>
      </trkpt>
      <trkpt lat="45.9471" lon="4.57864">
        <ele>536.584</ele>
        <time>2018-06-07T13:30:10Z</time>
      </trkpt>
      <trkpt lat="45.9471" lon="4.57864">
        <ele>536.443</ele>
        <time>2018-06-07T13:30:15Z</time>
      </trkpt>
      <trkpt lat="45.94707" lon="4.57865">
        <ele>536.197</ele>
        <time>2018-06-07T13:30:20Z</time>
      </trkpt>
      <trkpt lat="45.94707" lon="4.57865">
        <ele>536.15</ele>
        <time>2018-06-07T13:30:26Z</time>
      </trkpt>
      <trkpt lat="45.94707" lon="4.57864">
        <ele>536.214</ele>
        <time>2018-06-07T13:30:31Z</time>
      </trkpt>
      <trkpt lat="45.94707" lon="4.57864">
        <ele>536.195</ele>
        <time>2018-06-07T13:30:36Z</time>
      </trkpt>
      <trkpt lat="45.94707" lon="4.57865">
        <ele>535.809</ele>
        <time>2018-06-07T13:30:42Z</time>
      </trkpt>
      <trkpt lat="45.94707" lon="4.57865">
        <ele>535.873</ele>
        <time>2018-06-07T13:30:47Z</time>
      </trkpt>
      <trkpt lat="45.94708" lon="4.57866">
        <ele>536.106</ele>
        <time>2018-06-07T13:30:52Z</time>
      </trkpt>
      <trkpt lat="45.9471" lon="4.57869">
        <ele>536.709</ele>
        <time>2018-06-07T13:30:58Z</time>
      </trkpt>
      <trkpt lat="45.9471" lon="4.57869">
        <ele>536.644</ele>
        <time>2018-06-07T13:31:03Z</time>
      </trkpt>
      <trkpt lat="45.9471" lon="4.57869">
        <ele>536.571</ele>
        <time>2018-06-07T13:31:09Z</time>
      </trkpt>
      <trkpt lat="45.9471" lon="4.57869">
        <ele>536.497</ele>
        <time>2018-06-07T13:31:15Z</time>
      </trkpt>
      <trkpt lat="45.94711" lon="4.57867">
        <ele>536.318</ele>
        <time>2018-06-07T13:31:21Z</time>
      </trkpt>
      <trkpt lat="45.94711" lon="4.57867">
        <ele>536.109</ele>
        <time>2018-06-07T13:31:26Z</time>
      </trkpt>
      <trkpt lat="45.9471" lon="4.57868">
        <ele>535.619</ele>
        <time>2018-06-07T13:31:31Z</time>
      </trkpt>
      <trkpt lat="45.9471" lon="4.5787">
        <ele>535.172</ele>
        <time>2018-06-07T13:31:37Z</time>
      </trkpt>
      <trkpt lat="45.94706" lon="4.57878">
        <ele>534.304</ele>
        <time>2018-06-07T13:31:43Z</time>
      </trkpt>
      <trkpt lat="45.94702" lon="4.57881">
        <ele>533.944</ele>
        <time>2018-06-07T13:31:48Z</time>
      </trkpt>
      <trkpt lat="45.94699" lon="4.57888">
        <ele>533.065</ele>
        <time>2018-06-07T13:31:53Z</time>
      </trkpt>
      <trkpt lat="45.94695" lon="4.57897">
        <ele>532.272</ele>
        <time>2018-06-07T13:31:59Z</time>
      </trkpt>
      <trkpt lat="45.94695" lon="4.57906">
        <ele>532.239</ele>
        <time>2018-06-07T13:32:05Z</time>
      </trkpt>
      <trkpt lat="45.94696" lon="4.57906">
        <ele>532.492</ele>
        <time>2018-06-07T13:32:10Z</time>
      </trkpt>
      <trkpt lat="45.94696" lon="4.57906">
        <ele>532.736</ele>
        <time>2018-06-07T13:32:16Z</time>
      </trkpt>
      <trkpt lat="45.94696" lon="4.57906">
        <ele>532.814</ele>
        <time>2018-06-07T13:32:21Z</time>
      </trkpt>
      <trkpt lat="45.94696" lon="4.57906">
        <ele>532.824</ele>
        <time>2018-06-07T13:32:27Z</time>
      </trkpt>
      <trkpt lat="45.94696" lon="4.57906">
        <ele>532.881</ele>
        <time>2018-06-07T13:32:32Z</time>
      </trkpt>
      <trkpt lat="45.94704" lon="4.57899">
        <ele>532.829</ele>
        <time>2018-06-07T13:32:39Z</time>
      </trkpt>
      <trkpt lat="45.94707" lon="4.57892">
        <ele>532.925</ele>
        <time>2018-06-07T13:32:44Z</time>
      </trkpt>
      <trkpt lat="45.94711" lon="4.57885">
        <ele>533.005</ele>
        <time>2018-06-07T13:32:50Z</time>
      </trkpt>
      <trkpt lat="45.94714" lon="4.57873">
        <ele>532.915</ele>
        <time>2018-06-07T13:32:56Z</time>
      </trkpt>
      <trkpt lat="45.94716" lon="4.57867">
        <ele>533.038</ele>
        <time>2018-06-07T13:33:02Z</time>
      </trkpt>
      <trkpt lat="45.94717" lon="4.57854">
        <ele>533.042</ele>
        <time>2018-06-07T13:33:08Z</time>
      </trkpt>
      <trkpt lat="45.9472" lon="4.57848">
        <ele>533.013</ele>
        <time>2018-06-07T13:33:14Z</time>
      </trkpt>
      <trkpt lat="45.94721" lon="4.57844">
        <ele>533.087</ele>
        <time>2018-06-07T13:33:20Z</time>
      </trkpt>
      <trkpt lat="45.94721" lon="4.57845">
        <ele>533.546</ele>
        <time>2018-06-07T13:33:25Z</time>
      </trkpt>
      <trkpt lat="45.9472" lon="4.57846">
        <ele>533.488</ele>
        <time>2018-06-07T13:33:31Z</time>
      </trkpt>
      <trkpt lat="45.94721" lon="4.57847">
        <ele>533.585</ele>
        <time>2018-06-07T13:33:37Z</time>
      </trkpt>
      <trkpt lat="45.94721" lon="4.57847">
        <ele>533.565</ele>
        <time>2018-06-07T13:33:42Z</time>
      </trkpt>
      <trkpt lat="45.9472" lon="4.57847">
        <ele>533.201</ele>
        <time>2018-06-07T13:33:48Z</time>
      </trkpt>
      <trkpt lat="45.9472" lon="4.57847">
        <ele>532.975</ele>
        <time>2018-06-07T13:33:54Z</time>
      </trkpt>
      <trkpt lat="45.94721" lon="4.57848">
        <ele>532.651</ele>
        <time>2018-06-07T13:34:00Z</time>
      </trkpt>
      <trkpt lat="45.94721" lon="4.57847">
        <ele>532.784</ele>
        <time>2018-06-07T13:34:06Z</time>
      </trkpt>
      <trkpt lat="45.94721" lon="4.57847">
        <ele>532.863</ele>
        <time>2018-06-07T13:34:12Z</time>
      </trkpt>
      <trkpt lat="45.94721" lon="4.57847">
        <ele>532.867</ele>
        <time>2018-06-07T13:34:17Z</time>
      </trkpt>
      <trkpt lat="45.94718" lon="4.57847">
        <ele>533.09</ele>
        <time>2018-06-07T13:34:23Z</time>
      </trkpt>
      <trkpt lat="45.94718" lon="4.57847">
        <ele>533.057</ele>
        <time>2018-06-07T13:34:29Z</time>
      </trkpt>
      <trkpt lat="45.94718" lon="4.57847">
        <ele>532.889</ele>
        <time>2018-06-07T13:34:35Z</time>
      </trkpt>
      <trkpt lat="45.94718" lon="4.57847">
        <ele>532.855</ele>
        <time>2018-06-07T13:34:40Z</time>
      </trkpt>
      <trkpt lat="45.94718" lon="4.57847">
        <ele>532.791</ele>
        <time>2018-06-07T13:34:45Z</time>
      </trkpt>
      <trkpt lat="45.94718" lon="4.57847">
        <ele>532.734</ele>
        <time>2018-06-07T13:34:51Z</time>
      </trkpt>
      <trkpt lat="45.94718" lon="4.57847">
        <ele>532.725</ele>
        <time>2018-06-07T13:34:56Z</time>
      </trkpt>
      <trkpt lat="45.94718" lon="4.57847">
        <ele>532.835</ele>
        <time>2018-06-07T13:35:02Z</time>
      </trkpt>
      <trkpt lat="45.94718" lon="4.57847">
        <ele>532.844</ele>
        <time>2018-06-07T13:35:07Z</time>
      </trkpt>
      <trkpt lat="45.94718" lon="4.57847">
        <ele>532.855</ele>
        <time>2018-06-07T13:35:13Z</time>
      </trkpt>
      <trkpt lat="45.94718" lon="4.57847">
        <ele>532.794</ele>
        <time>2018-06-07T13:35:19Z</time>
      </trkpt>
      <trkpt lat="45.94718" lon="4.57847">
        <ele>532.792</ele>
        <time>2018-06-07T13:35:24Z</time>
      </trkpt>
      <trkpt lat="45.94718" lon="4.57847">
        <ele>532.791</ele>
        <time>2018-06-07T13:35:30Z</time>
      </trkpt>
      <trkpt lat="45.94718" lon="4.57847">
        <ele>532.795</ele>
        <time>2018-06-07T13:35:35Z</time>
      </trkpt>
      <trkpt lat="45.94718" lon="4.57847">
        <ele>532.802</ele>
        <time>2018-06-07T13:35:41Z</time>
      </trkpt>
      <trkpt lat="45.94718" lon="4.57847">
        <ele>532.802</ele>
        <time>2018-06-07T13:35:46Z</time>
      </trkpt>
      <trkpt lat="45.94718" lon="4.57847">
        <ele>532.771</ele>
        <time>2018-06-07T13:35:52Z</time>
      </trkpt>
      <trkpt lat="45.94718" lon="4.57847">
        <ele>532.77</ele>
        <time>2018-06-07T13:35:57Z</time>
      </trkpt>
      <trkpt lat="45.94718" lon="4.57847">
        <ele>532.782</ele>
        <time>2018-06-07T13:36:02Z</time>
      </trkpt>
      <trkpt lat="45.94718" lon="4.57847">
        <ele>532.868</ele>
        <time>2018-06-07T13:36:08Z</time>
      </trkpt>
      <trkpt lat="45.94718" lon="4.57847">
        <ele>532.918</ele>
        <time>2018-06-07T13:36:13Z</time>
      </trkpt>
      <trkpt lat="45.94718" lon="4.57847">
        <ele>532.949</ele>
        <time>2018-06-07T13:36:19Z</time>
      </trkpt>
      <trkpt lat="45.94718" lon="4.57847">
        <ele>532.975</ele>
        <time>2018-06-07T13:36:25Z</time>
      </trkpt>
      <trkpt lat="45.94718" lon="4.57847">
        <ele>532.996</ele>
        <time>2018-06-07T13:36:30Z</time>
      </trkpt>
      <trkpt lat="45.94718" lon="4.57847">
        <ele>532.989</ele>
        <time>2018-06-07T13:36:36Z</time>
      </trkpt>
      <trkpt lat="45.94718" lon="4.57847">
        <ele>532.927</ele>
        <time>2018-06-07T13:36:41Z</time>
      </trkpt>
      <trkpt lat="45.94718" lon="4.57847">
        <ele>532.928</ele>
        <time>2018-06-07T13:36:47Z</time>
      </trkpt>
      <trkpt lat="45.94718" lon="4.57847">
        <ele>533.123</ele>
        <time>2018-06-07T13:36:52Z</time>
      </trkpt>
      <trkpt lat="45.94718" lon="4.57847">
        <ele>533.327</ele>
        <time>2018-06-07T13:36:57Z</time>
      </trkpt>
      <trkpt lat="45.94718" lon="4.57847">
        <ele>533.533</ele>
        <time>2018-06-07T13:37:03Z</time>
      </trkpt>
      <trkpt lat="45.94718" lon="4.57847">
        <ele>533.604</ele>
        <time>2018-06-07T13:37:08Z</time>
      </trkpt>
      <trkpt lat="45.94718" lon="4.57847">
        <ele>533.66</ele>
        <time>2018-06-07T13:37:15Z</time>
      </trkpt>
      <trkpt lat="45.94718" lon="4.57847">
        <ele>533.775</ele>
        <time>2018-06-07T13:37:20Z</time>
      </trkpt>
      <trkpt lat="45.94718" lon="4.57847">
        <ele>533.88</ele>
        <time>2018-06-07T13:37:25Z</time>
      </trkpt>
      <trkpt lat="45.94718" lon="4.57847">
        <ele>534.062</ele>
        <time>2018-06-07T13:37:31Z</time>
      </trkpt>
      <trkpt lat="45.94718" lon="4.57847">
        <ele>533.899</ele>
        <time>2018-06-07T13:37:37Z</time>
      </trkpt>
      <trkpt lat="45.94718" lon="4.57847">
        <ele>533.846</ele>
        <time>2018-06-07T13:37:42Z</time>
      </trkpt>
      <trkpt lat="45.94718" lon="4.57848">
        <ele>533.768</ele>
        <time>2018-06-07T13:37:48Z</time>
      </trkpt>
      <trkpt lat="45.94718" lon="4.57848">
        <ele>533.814</ele>
        <time>2018-06-07T13:37:53Z</time>
      </trkpt>
      <trkpt lat="45.94718" lon="4.57848">
        <ele>533.978</ele>
        <time>2018-06-07T13:37:59Z</time>
      </trkpt>
      <trkpt lat="45.94718" lon="4.57848">
        <ele>534.017</ele>
        <time>2018-06-07T13:38:04Z</time>
      </trkpt>
      <trkpt lat="45.94718" lon="4.57848">
        <ele>533.973</ele>
        <time>2018-06-07T13:38:10Z</time>
      </trkpt>
      <trkpt lat="45.94718" lon="4.57853">
        <ele>533.836</ele>
        <time>2018-06-07T13:38:15Z</time>
      </trkpt>
      <trkpt lat="45.94718" lon="4.57859">
        <ele>533.454</ele>
        <time>2018-06-07T13:38:21Z</time>
      </trkpt>
      <trkpt lat="45.94719" lon="4.57859">
        <ele>533.183</ele>
        <time>2018-06-07T13:38:27Z</time>
      </trkpt>
      <trkpt lat="45.94719" lon="4.57858">
        <ele>533.191</ele>
        <time>2018-06-07T13:38:33Z</time>
      </trkpt>
      <trkpt lat="45.94718" lon="4.5786">
        <ele>533.229</ele>
        <time>2018-06-07T13:38:38Z</time>
      </trkpt>
      <trkpt lat="45.94717" lon="4.57865">
        <ele>533.285</ele>
        <time>2018-06-07T13:38:43Z</time>
      </trkpt>
      <trkpt lat="45.94717" lon="4.57871">
        <ele>534.054</ele>
        <time>2018-06-07T13:38:49Z</time>
      </trkpt>
      <trkpt lat="45.94716" lon="4.57876">
        <ele>534.077</ele>
        <time>2018-06-07T13:38:55Z</time>
      </trkpt>
      <trkpt lat="45.94714" lon="4.57882">
        <ele>533.529</ele>
        <time>2018-06-07T13:39:01Z</time>
      </trkpt>
      <trkpt lat="45.9471" lon="4.57889">
        <ele>533.405</ele>
        <time>2018-06-07T13:39:06Z</time>
      </trkpt>
      <trkpt lat="45.94706" lon="4.57898">
        <ele>533.582</ele>
        <time>2018-06-07T13:39:12Z</time>
      </trkpt>
      <trkpt lat="45.94705" lon="4.57907">
        <ele>533.648</ele>
        <time>2018-06-07T13:39:18Z</time>
      </trkpt>
      <trkpt lat="45.94702" lon="4.57915">
        <ele>533.502</ele>
        <time>2018-06-07T13:39:24Z</time>
      </trkpt>
      <trkpt lat="45.94697" lon="4.57925">
        <ele>533.562</ele>
        <time>2018-06-07T13:39:30Z</time>
      </trkpt>
      <trkpt lat="45.94696" lon="4.5793">
        <ele>533.803</ele>
        <time>2018-06-07T13:39:36Z</time>
      </trkpt>
      <trkpt lat="45.94693" lon="4.57937">
        <ele>534.038</ele>
        <time>2018-06-07T13:39:41Z</time>
      </trkpt>
      <trkpt lat="45.94691" lon="4.57944">
        <ele>534.375</ele>
        <time>2018-06-07T13:39:47Z</time>
      </trkpt>
      <trkpt lat="45.9469" lon="4.57953">
        <ele>534.984</ele>
        <time>2018-06-07T13:39:52Z</time>
      </trkpt>
      <trkpt lat="45.94689" lon="4.57962">
        <ele>535.567</ele>
        <time>2018-06-07T13:39:58Z</time>
      </trkpt>
      <trkpt lat="45.94688" lon="4.5797">
        <ele>535.84</ele>
        <time>2018-06-07T13:40:04Z</time>
      </trkpt>
      <trkpt lat="45.94687" lon="4.57978">
        <ele>536.102</ele>
        <time>2018-06-07T13:40:09Z</time>
      </trkpt>
      <trkpt lat="45.94686" lon="4.57983">
        <ele>536.431</ele>
        <time>2018-06-07T13:40:15Z</time>
      </trkpt>
      <trkpt lat="45.94684" lon="4.57985">
        <ele>536.792</ele>
        <time>2018-06-07T13:40:20Z</time>
      </trkpt>
      <trkpt lat="45.94685" lon="4.57984">
        <ele>537.162</ele>
        <time>2018-06-07T13:40:25Z</time>
      </trkpt>
      <trkpt lat="45.94685" lon="4.57987">
        <ele>537.901</ele>
        <time>2018-06-07T13:40:31Z</time>
      </trkpt>
      <trkpt lat="45.94684" lon="4.57997">
        <ele>538.31</ele>
        <time>2018-06-07T13:40:37Z</time>
      </trkpt>
      <trkpt lat="45.94683" lon="4.58">
        <ele>538.294</ele>
        <time>2018-06-07T13:40:42Z</time>
      </trkpt>
      <trkpt lat="45.94682" lon="4.58003">
        <ele>538.287</ele>
        <time>2018-06-07T13:40:48Z</time>
      </trkpt>
      <trkpt lat="45.94682" lon="4.58003">
        <ele>538.403</ele>
        <time>2018-06-07T13:40:54Z</time>
      </trkpt>
      <trkpt lat="45.94681" lon="4.58004">
        <ele>538.648</ele>
        <time>2018-06-07T13:41:00Z</time>
      </trkpt>
      <trkpt lat="45.94681" lon="4.58004">
        <ele>538.669</ele>
        <time>2018-06-07T13:41:05Z</time>
      </trkpt>
      <trkpt lat="45.9468" lon="4.58005">
        <ele>538.825</ele>
        <time>2018-06-07T13:41:11Z</time>
      </trkpt>
      <trkpt lat="45.94681" lon="4.58006">
        <ele>538.737</ele>
        <time>2018-06-07T13:41:16Z</time>
      </trkpt>
      <trkpt lat="45.94682" lon="4.5801">
        <ele>538.664</ele>
        <time>2018-06-07T13:41:22Z</time>
      </trkpt>
      <trkpt lat="45.94682" lon="4.58013">
        <ele>538.941</ele>
        <time>2018-06-07T13:41:28Z</time>
      </trkpt>
      <trkpt lat="45.94685" lon="4.58013">
        <ele>539.222</ele>
        <time>2018-06-07T13:41:33Z</time>
      </trkpt>
      <trkpt lat="45.94683" lon="4.5802">
        <ele>539.629</ele>
        <time>2018-06-07T13:41:39Z</time>
      </trkpt>
      <trkpt lat="45.94683" lon="4.58024">
        <ele>540.099</ele>
        <time>2018-06-07T13:41:44Z</time>
      </trkpt>
      <trkpt lat="45.94684" lon="4.58023">
        <ele>540.36</ele>
        <time>2018-06-07T13:41:50Z</time>
      </trkpt>
      <trkpt lat="45.94686" lon="4.5802">
        <ele>540.232</ele>
        <time>2018-06-07T13:41:55Z</time>
      </trkpt>
      <trkpt lat="45.94686" lon="4.5802">
        <ele>540.063</ele>
        <time>2018-06-07T13:42:01Z</time>
      </trkpt>
      <trkpt lat="45.94686" lon="4.5802">
        <ele>539.801</ele>
        <time>2018-06-07T13:42:07Z</time>
      </trkpt>
      <trkpt lat="45.94686" lon="4.5802">
        <ele>539.233</ele>
        <time>2018-06-07T13:42:13Z</time>
      </trkpt>
      <trkpt lat="45.94686" lon="4.5802">
        <ele>538.894</ele>
        <time>2018-06-07T13:42:18Z</time>
      </trkpt>
      <trkpt lat="45.94685" lon="4.58025">
        <ele>538.807</ele>
        <time>2018-06-07T13:42:24Z</time>
      </trkpt>
      <trkpt lat="45.94684" lon="4.58027">
        <ele>539.038</ele>
        <time>2018-06-07T13:42:29Z</time>
      </trkpt>
      <trkpt lat="45.94684" lon="4.58027">
        <ele>539.539</ele>
        <time>2018-06-07T13:42:35Z</time>
      </trkpt>
      <trkpt lat="45.94686" lon="4.58029">
        <ele>540.104</ele>
        <time>2018-06-07T13:42:41Z</time>
      </trkpt>
      <trkpt lat="45.94686" lon="4.58029">
        <ele>540.18</ele>
        <time>2018-06-07T13:42:47Z</time>
      </trkpt>
      <trkpt lat="45.94687" lon="4.5803">
        <ele>540.173</ele>
        <time>2018-06-07T13:42:52Z</time>
      </trkpt>
      <trkpt lat="45.94689" lon="4.58037">
        <ele>540.338</ele>
        <time>2018-06-07T13:42:57Z</time>
      </trkpt>
      <trkpt lat="45.94691" lon="4.58044">
        <ele>540.395</ele>
        <time>2018-06-07T13:43:03Z</time>
      </trkpt>
      <trkpt lat="45.9469" lon="4.58052">
        <ele>540.884</ele>
        <time>2018-06-07T13:43:09Z</time>
      </trkpt>
      <trkpt lat="45.9469" lon="4.58059">
        <ele>541.448</ele>
        <time>2018-06-07T13:43:15Z</time>
      </trkpt>
      <trkpt lat="45.9469" lon="4.58064">
        <ele>542.142</ele>
        <time>2018-06-07T13:43:20Z</time>
      </trkpt>
      <trkpt lat="45.9469" lon="4.58068">
        <ele>543.034</ele>
        <time>2018-06-07T13:43:26Z</time>
      </trkpt>
      <trkpt lat="45.9469" lon="4.5807">
        <ele>543.998</ele>
        <time>2018-06-07T13:43:32Z</time>
      </trkpt>
      <trkpt lat="45.94692" lon="4.58071">
        <ele>544.796</ele>
        <time>2018-06-07T13:43:37Z</time>
      </trkpt>
      <trkpt lat="45.94693" lon="4.58073">
        <ele>545.882</ele>
        <time>2018-06-07T13:43:42Z</time>
      </trkpt>
      <trkpt lat="45.94693" lon="4.58075">
        <ele>546.597</ele>
        <time>2018-06-07T13:43:48Z</time>
      </trkpt>
      <trkpt lat="45.94694" lon="4.58074">
        <ele>546.339</ele>
        <time>2018-06-07T13:43:53Z</time>
      </trkpt>
      <trkpt lat="45.94694" lon="4.58076">
        <ele>546.836</ele>
        <time>2018-06-07T13:43:58Z</time>
      </trkpt>
      <trkpt lat="45.94694" lon="4.58077">
        <ele>547.19</ele>
        <time>2018-06-07T13:44:04Z</time>
      </trkpt>
      <trkpt lat="45.94694" lon="4.58077">
        <ele>547.241</ele>
        <time>2018-06-07T13:44:09Z</time>
      </trkpt>
      <trkpt lat="45.94693" lon="4.58075">
        <ele>547.428</ele>
        <time>2018-06-07T13:44:15Z</time>
      </trkpt>
      <trkpt lat="45.94693" lon="4.58075">
        <ele>547.437</ele>
        <time>2018-06-07T13:44:20Z</time>
      </trkpt>
      <trkpt lat="45.94695" lon="4.58075">
        <ele>547.683</ele>
        <time>2018-06-07T13:44:28Z</time>
      </trkpt>
      <trkpt lat="45.94695" lon="4.58075">
        <ele>547.986</ele>
        <time>2018-06-07T13:44:33Z</time>
      </trkpt>
      <trkpt lat="45.94695" lon="4.58075">
        <ele>548.181</ele>
        <time>2018-06-07T13:44:39Z</time>
      </trkpt>
      <trkpt lat="45.94697" lon="4.5808">
        <ele>548.225</ele>
        <time>2018-06-07T13:44:45Z</time>
      </trkpt>
      <trkpt lat="45.94702" lon="4.58082">
        <ele>548.581</ele>
        <time>2018-06-07T13:44:51Z</time>
      </trkpt>
      <trkpt lat="45.94705" lon="4.58084">
        <ele>549.072</ele>
        <time>2018-06-07T13:44:57Z</time>
      </trkpt>
      <trkpt lat="45.94707" lon="4.58086">
        <ele>549.627</ele>
        <time>2018-06-07T13:45:02Z</time>
      </trkpt>
      <trkpt lat="45.9471" lon="4.58088">
        <ele>550.205</ele>
        <time>2018-06-07T13:45:07Z</time>
      </trkpt>
      <trkpt lat="45.94716" lon="4.58089">
        <ele>550.7</ele>
        <time>2018-06-07T13:45:13Z</time>
      </trkpt>
      <trkpt lat="45.9472" lon="4.58091">
        <ele>551.145</ele>
        <time>2018-06-07T13:45:19Z</time>
      </trkpt>
      <trkpt lat="45.94723" lon="4.58095">
        <ele>551.969</ele>
        <time>2018-06-07T13:45:24Z</time>
      </trkpt>
      <trkpt lat="45.94727" lon="4.58095">
        <ele>553.235</ele>
        <time>2018-06-07T13:45:30Z</time>
      </trkpt>
      <trkpt lat="45.94731" lon="4.58097">
        <ele>554.308</ele>
        <time>2018-06-07T13:45:35Z</time>
      </trkpt>
      <trkpt lat="45.94737" lon="4.58098">
        <ele>555.801</ele>
        <time>2018-06-07T13:45:40Z</time>
      </trkpt>
      <trkpt lat="45.94744" lon="4.58098">
        <ele>557.906</ele>
        <time>2018-06-07T13:45:46Z</time>
      </trkpt>
      <trkpt lat="45.94745" lon="4.58098">
        <ele>558.33</ele>
        <time>2018-06-07T13:45:52Z</time>
      </trkpt>
      <trkpt lat="45.94745" lon="4.58098">
        <ele>558.506</ele>
        <time>2018-06-07T13:45:57Z</time>
      </trkpt>
      <trkpt lat="45.94746" lon="4.58099">
        <ele>558.728</ele>
        <time>2018-06-07T13:46:03Z</time>
      </trkpt>
      <trkpt lat="45.9475" lon="4.58099">
        <ele>559.197</ele>
        <time>2018-06-07T13:46:08Z</time>
      </trkpt>
      <trkpt lat="45.94753" lon="4.58101">
        <ele>559.487</ele>
        <time>2018-06-07T13:46:14Z</time>
      </trkpt>
      <trkpt lat="45.94758" lon="4.58101">
        <ele>559.466</ele>
        <time>2018-06-07T13:46:19Z</time>
      </trkpt>
      <trkpt lat="45.94762" lon="4.58101">
        <ele>559.413</ele>
        <time>2018-06-07T13:46:25Z</time>
      </trkpt>
      <trkpt lat="45.94767" lon="4.581">
        <ele>559.819</ele>
        <time>2018-06-07T13:46:30Z</time>
      </trkpt>
      <trkpt lat="45.9477" lon="4.58102">
        <ele>560.114</ele>
        <time>2018-06-07T13:46:36Z</time>
      </trkpt>
      <trkpt lat="45.94773" lon="4.58102">
        <ele>560.272</ele>
        <time>2018-06-07T13:46:41Z</time>
      </trkpt>
      <trkpt lat="45.94779" lon="4.58104">
        <ele>560.506</ele>
        <time>2018-06-07T13:46:47Z</time>
      </trkpt>
      <trkpt lat="45.94782" lon="4.58105">
        <ele>560.61</ele>
        <time>2018-06-07T13:46:52Z</time>
      </trkpt>
      <trkpt lat="45.94783" lon="4.58107">
        <ele>561.122</ele>
        <time>2018-06-07T13:46:58Z</time>
      </trkpt>
      <trkpt lat="45.94791" lon="4.58109">
        <ele>562.475</ele>
        <time>2018-06-07T13:47:04Z</time>
      </trkpt>
      <trkpt lat="45.948" lon="4.5811">
        <ele>563.386</ele>
        <time>2018-06-07T13:47:10Z</time>
      </trkpt>
      <trkpt lat="45.94804" lon="4.58112">
        <ele>564.446</ele>
        <time>2018-06-07T13:47:16Z</time>
      </trkpt>
      <trkpt lat="45.94807" lon="4.58113">
        <ele>564.971</ele>
        <time>2018-06-07T13:47:21Z</time>
      </trkpt>
      <trkpt lat="45.94811" lon="4.58112">
        <ele>565.69</ele>
        <time>2018-06-07T13:47:26Z</time>
      </trkpt>
      <trkpt lat="45.94816" lon="4.58114">
        <ele>566.602</ele>
        <time>2018-06-07T13:47:31Z</time>
      </trkpt>
      <trkpt lat="45.9482" lon="4.58113">
        <ele>567.372</ele>
        <time>2018-06-07T13:47:36Z</time>
      </trkpt>
      <trkpt lat="45.94826" lon="4.58119">
        <ele>568.46</ele>
        <time>2018-06-07T13:47:42Z</time>
      </trkpt>
      <trkpt lat="45.94831" lon="4.58122">
        <ele>569.107</ele>
        <time>2018-06-07T13:47:47Z</time>
      </trkpt>
      <trkpt lat="45.94835" lon="4.58126">
        <ele>569.727</ele>
        <time>2018-06-07T13:47:52Z</time>
      </trkpt>
      <trkpt lat="45.94837" lon="4.5813">
        <ele>570.588</ele>
        <time>2018-06-07T13:47:58Z</time>
      </trkpt>
      <trkpt lat="45.9484" lon="4.58137">
        <ele>571.404</ele>
        <time>2018-06-07T13:48:04Z</time>
      </trkpt>
      <trkpt lat="45.94843" lon="4.58138">
        <ele>572.187</ele>
        <time>2018-06-07T13:48:10Z</time>
      </trkpt>
      <trkpt lat="45.94846" lon="4.58139">
        <ele>572.856</ele>
        <time>2018-06-07T13:48:16Z</time>
      </trkpt>
      <trkpt lat="45.94849" lon="4.5814">
        <ele>573.126</ele>
        <time>2018-06-07T13:48:21Z</time>
      </trkpt>
      <trkpt lat="45.94855" lon="4.58145">
        <ele>572.553</ele>
        <time>2018-06-07T13:48:27Z</time>
      </trkpt>
      <trkpt lat="45.94857" lon="4.58148">
        <ele>572.025</ele>
        <time>2018-06-07T13:48:33Z</time>
      </trkpt>
      <trkpt lat="45.94861" lon="4.58151">
        <ele>571.738</ele>
        <time>2018-06-07T13:48:38Z</time>
      </trkpt>
      <trkpt lat="45.94862" lon="4.58154">
        <ele>571.536</ele>
        <time>2018-06-07T13:48:44Z</time>
      </trkpt>
      <trkpt lat="45.94866" lon="4.58162">
        <ele>571.359</ele>
        <time>2018-06-07T13:48:50Z</time>
      </trkpt>
      <trkpt lat="45.9487" lon="4.5817">
        <ele>571.867</ele>
        <time>2018-06-07T13:48:56Z</time>
      </trkpt>
      <trkpt lat="45.94873" lon="4.58178">
        <ele>572.159</ele>
        <time>2018-06-07T13:49:01Z</time>
      </trkpt>
      <trkpt lat="45.94875" lon="4.58181">
        <ele>572.354</ele>
        <time>2018-06-07T13:49:06Z</time>
      </trkpt>
      <trkpt lat="45.94877" lon="4.5819">
        <ele>572.834</ele>
        <time>2018-06-07T13:49:12Z</time>
      </trkpt>
      <trkpt lat="45.94876" lon="4.58194">
        <ele>573.363</ele>
        <time>2018-06-07T13:49:18Z</time>
      </trkpt>
      <trkpt lat="45.94877" lon="4.58197">
        <ele>574.126</ele>
        <time>2018-06-07T13:49:24Z</time>
      </trkpt>
      <trkpt lat="45.94878" lon="4.58204">
        <ele>574.447</ele>
        <time>2018-06-07T13:49:29Z</time>
      </trkpt>
      <trkpt lat="45.9488" lon="4.58216">
        <ele>574.468</ele>
        <time>2018-06-07T13:49:35Z</time>
      </trkpt>
      <trkpt lat="45.9488" lon="4.58227">
        <ele>574.676</ele>
        <time>2018-06-07T13:49:40Z</time>
      </trkpt>
      <trkpt lat="45.94882" lon="4.58239">
        <ele>574.468</ele>
        <time>2018-06-07T13:49:46Z</time>
      </trkpt>
      <trkpt lat="45.94884" lon="4.58245">
        <ele>574.112</ele>
        <time>2018-06-07T13:49:51Z</time>
      </trkpt>
      <trkpt lat="45.94888" lon="4.58253">
        <ele>573.959</ele>
        <time>2018-06-07T13:49:57Z</time>
      </trkpt>
      <trkpt lat="45.94892" lon="4.5826">
        <ele>574.043</ele>
        <time>2018-06-07T13:50:02Z</time>
      </trkpt>
      <trkpt lat="45.94894" lon="4.58267">
        <ele>573.945</ele>
        <time>2018-06-07T13:50:08Z</time>
      </trkpt>
      <trkpt lat="45.94894" lon="4.58274">
        <ele>573.914</ele>
        <time>2018-06-07T13:50:13Z</time>
      </trkpt>
      <trkpt lat="45.94895" lon="4.58281">
        <ele>574.494</ele>
        <time>2018-06-07T13:50:18Z</time>
      </trkpt>
      <trkpt lat="45.94897" lon="4.58289">
        <ele>574.961</ele>
        <time>2018-06-07T13:50:24Z</time>
      </trkpt>
      <trkpt lat="45.94898" lon="4.58296">
        <ele>575.058</ele>
        <time>2018-06-07T13:50:29Z</time>
      </trkpt>
      <trkpt lat="45.949" lon="4.58299">
        <ele>575.186</ele>
        <time>2018-06-07T13:50:35Z</time>
      </trkpt>
      <trkpt lat="45.94899" lon="4.58299">
        <ele>575.123</ele>
        <time>2018-06-07T13:50:40Z</time>
      </trkpt>
      <trkpt lat="45.94897" lon="4.58298">
        <ele>574.982</ele>
        <time>2018-06-07T13:50:46Z</time>
      </trkpt>
      <trkpt lat="45.94896" lon="4.58296">
        <ele>574.964</ele>
        <time>2018-06-07T13:50:51Z</time>
      </trkpt>
      <trkpt lat="45.94894" lon="4.58293">
        <ele>574.971</ele>
        <time>2018-06-07T13:50:57Z</time>
      </trkpt>
      <trkpt lat="45.94891" lon="4.58289">
        <ele>575.403</ele>
        <time>2018-06-07T13:51:03Z</time>
      </trkpt>
      <trkpt lat="45.94892" lon="4.58292">
        <ele>575.723</ele>
        <time>2018-06-07T13:51:09Z</time>
      </trkpt>
      <trkpt lat="45.94893" lon="4.58294">
        <ele>575.625</ele>
        <time>2018-06-07T13:51:15Z</time>
      </trkpt>
      <trkpt lat="45.94891" lon="4.58295">
        <ele>575.548</ele>
        <time>2018-06-07T13:51:21Z</time>
      </trkpt>
      <trkpt lat="45.9489" lon="4.58294">
        <ele>575.398</ele>
        <time>2018-06-07T13:51:27Z</time>
      </trkpt>
      <trkpt lat="45.9489" lon="4.58295">
        <ele>574.74</ele>
        <time>2018-06-07T13:51:32Z</time>
      </trkpt>
      <trkpt lat="45.94891" lon="4.58296">
        <ele>574.672</ele>
        <time>2018-06-07T13:51:38Z</time>
      </trkpt>
      <trkpt lat="45.94891" lon="4.58297">
        <ele>574.686</ele>
        <time>2018-06-07T13:51:44Z</time>
      </trkpt>
      <trkpt lat="45.94891" lon="4.58296">
        <ele>574.618</ele>
        <time>2018-06-07T13:51:50Z</time>
      </trkpt>
      <trkpt lat="45.94891" lon="4.58296">
        <ele>574.52</ele>
        <time>2018-06-07T13:51:56Z</time>
      </trkpt>
      <trkpt lat="45.94893" lon="4.58295">
        <ele>574.489</ele>
        <time>2018-06-07T13:52:01Z</time>
      </trkpt>
      <trkpt lat="45.94894" lon="4.58294">
        <ele>574.48</ele>
        <time>2018-06-07T13:52:07Z</time>
      </trkpt>
      <trkpt lat="45.94894" lon="4.58294">
        <ele>574.49</ele>
        <time>2018-06-07T13:52:13Z</time>
      </trkpt>
      <trkpt lat="45.94894" lon="4.58294">
        <ele>574.584</ele>
        <time>2018-06-07T13:52:18Z</time>
      </trkpt>
      <trkpt lat="45.94894" lon="4.58294">
        <ele>574.582</ele>
        <time>2018-06-07T13:52:24Z</time>
      </trkpt>
      <trkpt lat="45.94894" lon="4.58294">
        <ele>574.566</ele>
        <time>2018-06-07T13:52:30Z</time>
      </trkpt>
      <trkpt lat="45.94894" lon="4.58294">
        <ele>574.541</ele>
        <time>2018-06-07T13:52:36Z</time>
      </trkpt>
      <trkpt lat="45.94894" lon="4.58294">
        <ele>574.527</ele>
        <time>2018-06-07T13:52:42Z</time>
      </trkpt>
      <trkpt lat="45.94894" lon="4.58294">
        <ele>574.548</ele>
        <time>2018-06-07T13:52:47Z</time>
      </trkpt>
      <trkpt lat="45.94894" lon="4.58294">
        <ele>574.607</ele>
        <time>2018-06-07T13:52:53Z</time>
      </trkpt>
      <trkpt lat="45.94894" lon="4.58294">
        <ele>574.698</ele>
        <time>2018-06-07T13:52:59Z</time>
      </trkpt>
      <trkpt lat="45.94894" lon="4.58294">
        <ele>574.753</ele>
        <time>2018-06-07T13:53:04Z</time>
      </trkpt>
      <trkpt lat="45.94894" lon="4.58294">
        <ele>575.133</ele>
        <time>2018-06-07T13:53:11Z</time>
      </trkpt>
      <trkpt lat="45.94894" lon="4.58294">
        <ele>575.224</ele>
        <time>2018-06-07T13:53:17Z</time>
      </trkpt>
      <trkpt lat="45.94894" lon="4.58294">
        <ele>575.311</ele>
        <time>2018-06-07T13:53:22Z</time>
      </trkpt>
      <trkpt lat="45.94894" lon="4.58294">
        <ele>575.44</ele>
        <time>2018-06-07T13:53:28Z</time>
      </trkpt>
      <trkpt lat="45.94894" lon="4.58294">
        <ele>575.427</ele>
        <time>2018-06-07T13:53:33Z</time>
      </trkpt>
      <trkpt lat="45.94894" lon="4.58294">
        <ele>575.373</ele>
        <time>2018-06-07T13:53:39Z</time>
      </trkpt>
      <trkpt lat="45.94894" lon="4.58294">
        <ele>575.386</ele>
        <time>2018-06-07T13:53:44Z</time>
      </trkpt>
      <trkpt lat="45.94894" lon="4.58294">
        <ele>575.404</ele>
        <time>2018-06-07T13:53:49Z</time>
      </trkpt>
    </trkseg>
  </trk>
</gpx>